<?xml version="1.0" encoding="UTF-8" standalone="no" ?>
<gpx xmlns="http://www.topografix.com/GPX/1/1" xmlns:xsi="http://www.w3.org/2001/XMLSchema-instance" xsi:schemaLocation="http://www.topografix.com/GPX/1/1 http://www.topografix.com/GPX/1/1/gpx.xsd" version="1.1" creator="VisuGPX - https://www.visugpx.com">
  <metadata>
    <name>Petit Parpaillon</name>
    <desc><![CDATA[Montée par le vallon du Crachet
Descente par le vallon de la Grande Combe]]></desc>
  </metadata>
  <trk>
    <name><![CDATA[PARPAILLON]]></name>
    <trkseg>
      <trkpt lat="44.53164" lon="6.70143">
        <ele>1973.72</ele>
        <time>2011-03-21T07:52:26Z</time>
      </trkpt>
      <trkpt lat="44.53165" lon="6.70146">
        <ele>1973.72</ele>
        <time>2011-03-21T07:52:27Z</time>
      </trkpt>
      <trkpt lat="44.53162" lon="6.70147">
        <ele>1977.57</ele>
        <time>2011-03-21T07:52:31Z</time>
      </trkpt>
      <trkpt lat="44.53163" lon="6.70149">
        <ele>1981.41</ele>
        <time>2011-03-21T07:52:32Z</time>
      </trkpt>
      <trkpt lat="44.53163" lon="6.7015">
        <ele>1984.3</ele>
        <time>2011-03-21T07:52:33Z</time>
      </trkpt>
      <trkpt lat="44.53164" lon="6.70152">
        <ele>1990.07</ele>
        <time>2011-03-21T07:52:35Z</time>
      </trkpt>
      <trkpt lat="44.53165" lon="6.70153">
        <ele>1995.35</ele>
        <time>2011-03-21T07:52:37Z</time>
      </trkpt>
      <trkpt lat="44.53165" lon="6.70154">
        <ele>1999.68</ele>
        <time>2011-03-21T07:52:39Z</time>
      </trkpt>
      <trkpt lat="44.53165" lon="6.70154">
        <ele>2004.01</ele>
        <time>2011-03-21T07:52:41Z</time>
      </trkpt>
      <trkpt lat="44.53166" lon="6.70154">
        <ele>2007.85</ele>
        <time>2011-03-21T07:52:43Z</time>
      </trkpt>
      <trkpt lat="44.53166" lon="6.70155">
        <ele>2011.7</ele>
        <time>2011-03-21T07:52:45Z</time>
      </trkpt>
      <trkpt lat="44.53166" lon="6.70155">
        <ele>2015.06</ele>
        <time>2011-03-21T07:52:47Z</time>
      </trkpt>
      <trkpt lat="44.53166" lon="6.70155">
        <ele>2019.39</ele>
        <time>2011-03-21T07:52:50Z</time>
      </trkpt>
      <trkpt lat="44.53166" lon="6.70156">
        <ele>2022.75</ele>
        <time>2011-03-21T07:52:53Z</time>
      </trkpt>
      <trkpt lat="44.53168" lon="6.70155">
        <ele>2026.12</ele>
        <time>2011-03-21T07:52:57Z</time>
      </trkpt>
      <trkpt lat="44.5317" lon="6.70152">
        <ele>2029.48</ele>
        <time>2011-03-21T07:53:01Z</time>
      </trkpt>
      <trkpt lat="44.53171" lon="6.70152">
        <ele>2029.48</ele>
        <time>2011-03-21T07:53:02Z</time>
      </trkpt>
      <trkpt lat="44.53175" lon="6.70151">
        <ele>2032.84</ele>
        <time>2011-03-21T07:53:08Z</time>
      </trkpt>
      <trkpt lat="44.53174" lon="6.7015">
        <ele>2035.73</ele>
        <time>2011-03-21T07:53:18Z</time>
      </trkpt>
      <trkpt lat="44.53174" lon="6.7015">
        <ele>2040.05</ele>
        <time>2011-03-21T07:53:33Z</time>
      </trkpt>
      <trkpt lat="44.53174" lon="6.70149">
        <ele>2039.57</ele>
        <time>2011-03-21T07:53:34Z</time>
      </trkpt>
      <trkpt lat="44.53175" lon="6.70152">
        <ele>2040.54</ele>
        <time>2011-03-21T07:53:50Z</time>
      </trkpt>
      <trkpt lat="44.53174" lon="6.70152">
        <ele>2039.09</ele>
        <time>2011-03-21T07:53:55Z</time>
      </trkpt>
      <trkpt lat="44.53173" lon="6.70152">
        <ele>2042.46</ele>
        <time>2011-03-21T07:53:58Z</time>
      </trkpt>
      <trkpt lat="44.53173" lon="6.70152">
        <ele>2042.46</ele>
        <time>2011-03-21T07:53:59Z</time>
      </trkpt>
      <trkpt lat="44.53173" lon="6.70153">
        <ele>2041.02</ele>
        <time>2011-03-21T07:54:01Z</time>
      </trkpt>
      <trkpt lat="44.53173" lon="6.70152">
        <ele>2040.54</ele>
        <time>2011-03-21T07:54:28Z</time>
      </trkpt>
      <trkpt lat="44.53173" lon="6.70151">
        <ele>2040.54</ele>
        <time>2011-03-21T07:55:05Z</time>
      </trkpt>
      <trkpt lat="44.53174" lon="6.7015">
        <ele>2040.05</ele>
        <time>2011-03-21T07:55:32Z</time>
      </trkpt>
      <trkpt lat="44.53174" lon="6.7015">
        <ele>2040.05</ele>
        <time>2011-03-21T07:56:03Z</time>
      </trkpt>
      <trkpt lat="44.53174" lon="6.7015">
        <ele>2040.54</ele>
        <time>2011-03-21T07:56:28Z</time>
      </trkpt>
      <trkpt lat="44.53174" lon="6.7015">
        <ele>2040.54</ele>
        <time>2011-03-21T07:56:53Z</time>
      </trkpt>
      <trkpt lat="44.53174" lon="6.7015">
        <ele>2040.05</ele>
        <time>2011-03-21T07:57:19Z</time>
      </trkpt>
      <trkpt lat="44.53175" lon="6.7015">
        <ele>2041.5</ele>
        <time>2011-03-21T07:57:39Z</time>
      </trkpt>
      <trkpt lat="44.53175" lon="6.7015">
        <ele>2041.5</ele>
        <time>2011-03-21T07:57:45Z</time>
      </trkpt>
      <trkpt lat="44.53173" lon="6.70148">
        <ele>2041.02</ele>
        <time>2011-03-21T07:57:57Z</time>
      </trkpt>
      <trkpt lat="44.53171" lon="6.70147">
        <ele>2041.02</ele>
        <time>2011-03-21T07:58:10Z</time>
      </trkpt>
      <trkpt lat="44.53171" lon="6.70148">
        <ele>2040.54</ele>
        <time>2011-03-21T07:58:21Z</time>
      </trkpt>
      <trkpt lat="44.53172" lon="6.70149">
        <ele>2040.54</ele>
        <time>2011-03-21T07:58:32Z</time>
      </trkpt>
      <trkpt lat="44.5317" lon="6.70148">
        <ele>2041.02</ele>
        <time>2011-03-21T07:58:37Z</time>
      </trkpt>
      <trkpt lat="44.53164" lon="6.70145">
        <ele>2041.02</ele>
        <time>2011-03-21T07:58:44Z</time>
      </trkpt>
      <trkpt lat="44.53159" lon="6.70147">
        <ele>2040.05</ele>
        <time>2011-03-21T07:58:59Z</time>
      </trkpt>
      <trkpt lat="44.53157" lon="6.70146">
        <ele>2040.05</ele>
        <time>2011-03-21T07:59:10Z</time>
      </trkpt>
      <trkpt lat="44.53156" lon="6.70147">
        <ele>2039.57</ele>
        <time>2011-03-21T07:59:30Z</time>
      </trkpt>
      <trkpt lat="44.53156" lon="6.70147">
        <ele>2039.57</ele>
        <time>2011-03-21T07:59:56Z</time>
      </trkpt>
      <trkpt lat="44.53155" lon="6.70144">
        <ele>2040.54</ele>
        <time>2011-03-21T08:00:09Z</time>
      </trkpt>
      <trkpt lat="44.53155" lon="6.70132">
        <ele>2042.94</ele>
        <time>2011-03-21T08:00:21Z</time>
      </trkpt>
      <trkpt lat="44.53153" lon="6.70121">
        <ele>2045.34</ele>
        <time>2011-03-21T08:00:33Z</time>
      </trkpt>
      <trkpt lat="44.5315" lon="6.70116">
        <ele>2045.82</ele>
        <time>2011-03-21T08:00:47Z</time>
      </trkpt>
      <trkpt lat="44.5315" lon="6.70116">
        <ele>2045.34</ele>
        <time>2011-03-21T08:01:07Z</time>
      </trkpt>
      <trkpt lat="44.53147" lon="6.7011">
        <ele>2047.26</ele>
        <time>2011-03-21T08:01:26Z</time>
      </trkpt>
      <trkpt lat="44.5314" lon="6.7011">
        <ele>2048.23</ele>
        <time>2011-03-21T08:01:39Z</time>
      </trkpt>
      <trkpt lat="44.53133" lon="6.7011">
        <ele>2050.15</ele>
        <time>2011-03-21T08:01:49Z</time>
      </trkpt>
      <trkpt lat="44.53125" lon="6.70113">
        <ele>2052.07</ele>
        <time>2011-03-21T08:02:03Z</time>
      </trkpt>
      <trkpt lat="44.5312" lon="6.70112">
        <ele>2053.51</ele>
        <time>2011-03-21T08:02:14Z</time>
      </trkpt>
      <trkpt lat="44.53116" lon="6.70109">
        <ele>2055.44</ele>
        <time>2011-03-21T08:02:27Z</time>
      </trkpt>
      <trkpt lat="44.53116" lon="6.70107">
        <ele>2055.44</ele>
        <time>2011-03-21T08:02:28Z</time>
      </trkpt>
      <trkpt lat="44.53115" lon="6.7009">
        <ele>2057.36</ele>
        <time>2011-03-21T08:02:43Z</time>
      </trkpt>
      <trkpt lat="44.53116" lon="6.70083">
        <ele>2059.28</ele>
        <time>2011-03-21T08:02:55Z</time>
      </trkpt>
      <trkpt lat="44.53116" lon="6.70073">
        <ele>2060.72</ele>
        <time>2011-03-21T08:03:08Z</time>
      </trkpt>
      <trkpt lat="44.53114" lon="6.70062">
        <ele>2061.68</ele>
        <time>2011-03-21T08:03:20Z</time>
      </trkpt>
      <trkpt lat="44.53111" lon="6.70052">
        <ele>2063.61</ele>
        <time>2011-03-21T08:03:32Z</time>
      </trkpt>
      <trkpt lat="44.53107" lon="6.70042">
        <ele>2065.05</ele>
        <time>2011-03-21T08:03:45Z</time>
      </trkpt>
      <trkpt lat="44.531" lon="6.70039">
        <ele>2066.01</ele>
        <time>2011-03-21T08:03:57Z</time>
      </trkpt>
      <trkpt lat="44.5309" lon="6.70037">
        <ele>2067.93</ele>
        <time>2011-03-21T08:04:11Z</time>
      </trkpt>
      <trkpt lat="44.53081" lon="6.70037">
        <ele>2069.38</ele>
        <time>2011-03-21T08:04:24Z</time>
      </trkpt>
      <trkpt lat="44.5308" lon="6.70034">
        <ele>2069.38</ele>
        <time>2011-03-21T08:04:28Z</time>
      </trkpt>
      <trkpt lat="44.5308" lon="6.70032">
        <ele>2069.38</ele>
        <time>2011-03-21T08:04:31Z</time>
      </trkpt>
      <trkpt lat="44.53078" lon="6.70025">
        <ele>2069.38</ele>
        <time>2011-03-21T08:04:36Z</time>
      </trkpt>
      <trkpt lat="44.53079" lon="6.70021">
        <ele>2069.38</ele>
        <time>2011-03-21T08:04:40Z</time>
      </trkpt>
      <trkpt lat="44.53079" lon="6.70019">
        <ele>2069.38</ele>
        <time>2011-03-21T08:05:02Z</time>
      </trkpt>
      <trkpt lat="44.53079" lon="6.70019">
        <ele>2068.89</ele>
        <time>2011-03-21T08:05:34Z</time>
      </trkpt>
      <trkpt lat="44.53079" lon="6.70019">
        <ele>2068.41</ele>
        <time>2011-03-21T08:06:00Z</time>
      </trkpt>
      <trkpt lat="44.53078" lon="6.70018">
        <ele>2068.89</ele>
        <time>2011-03-21T08:06:02Z</time>
      </trkpt>
      <trkpt lat="44.53077" lon="6.70016">
        <ele>2068.41</ele>
        <time>2011-03-21T08:06:04Z</time>
      </trkpt>
      <trkpt lat="44.53066" lon="6.70008">
        <ele>2068.41</ele>
        <time>2011-03-21T08:06:17Z</time>
      </trkpt>
      <trkpt lat="44.53063" lon="6.70006">
        <ele>2069.38</ele>
        <time>2011-03-21T08:06:21Z</time>
      </trkpt>
      <trkpt lat="44.53062" lon="6.70004">
        <ele>2069.38</ele>
        <time>2011-03-21T08:06:23Z</time>
      </trkpt>
      <trkpt lat="44.53051" lon="6.69995">
        <ele>2071.78</ele>
        <time>2011-03-21T08:06:40Z</time>
      </trkpt>
      <trkpt lat="44.53046" lon="6.69988">
        <ele>2072.26</ele>
        <time>2011-03-21T08:06:49Z</time>
      </trkpt>
      <trkpt lat="44.53038" lon="6.6998">
        <ele>2074.66</ele>
        <time>2011-03-21T08:07:03Z</time>
      </trkpt>
      <trkpt lat="44.53032" lon="6.69971">
        <ele>2076.1</ele>
        <time>2011-03-21T08:07:17Z</time>
      </trkpt>
      <trkpt lat="44.53026" lon="6.69965">
        <ele>2078.03</ele>
        <time>2011-03-21T08:07:31Z</time>
      </trkpt>
      <trkpt lat="44.53021" lon="6.69956">
        <ele>2080.43</ele>
        <time>2011-03-21T08:07:44Z</time>
      </trkpt>
      <trkpt lat="44.53016" lon="6.69946">
        <ele>2082.35</ele>
        <time>2011-03-21T08:07:58Z</time>
      </trkpt>
      <trkpt lat="44.53013" lon="6.69941">
        <ele>2084.76</ele>
        <time>2011-03-21T08:08:10Z</time>
      </trkpt>
      <trkpt lat="44.53006" lon="6.69933">
        <ele>2086.68</ele>
        <time>2011-03-21T08:08:25Z</time>
      </trkpt>
      <trkpt lat="44.53003" lon="6.6993">
        <ele>2087.64</ele>
        <time>2011-03-21T08:08:35Z</time>
      </trkpt>
      <trkpt lat="44.53" lon="6.69923">
        <ele>2089.56</ele>
        <time>2011-03-21T08:08:47Z</time>
      </trkpt>
      <trkpt lat="44.52996" lon="6.69915">
        <ele>2090.52</ele>
        <time>2011-03-21T08:09:00Z</time>
      </trkpt>
      <trkpt lat="44.52991" lon="6.69902">
        <ele>2092.93</ele>
        <time>2011-03-21T08:09:12Z</time>
      </trkpt>
      <trkpt lat="44.52985" lon="6.69891">
        <ele>2094.85</ele>
        <time>2011-03-21T08:09:26Z</time>
      </trkpt>
      <trkpt lat="44.52982" lon="6.69885">
        <ele>2095.81</ele>
        <time>2011-03-21T08:09:33Z</time>
      </trkpt>
      <trkpt lat="44.52979" lon="6.69881">
        <ele>2096.77</ele>
        <time>2011-03-21T08:09:38Z</time>
      </trkpt>
      <trkpt lat="44.52974" lon="6.69871">
        <ele>2098.21</ele>
        <time>2011-03-21T08:09:48Z</time>
      </trkpt>
      <trkpt lat="44.5297" lon="6.69856">
        <ele>2099.66</ele>
        <time>2011-03-21T08:10:03Z</time>
      </trkpt>
      <trkpt lat="44.52965" lon="6.69848">
        <ele>2101.1</ele>
        <time>2011-03-21T08:10:16Z</time>
      </trkpt>
      <trkpt lat="44.52958" lon="6.69836">
        <ele>2102.54</ele>
        <time>2011-03-21T08:10:31Z</time>
      </trkpt>
      <trkpt lat="44.52951" lon="6.69827">
        <ele>2104.46</ele>
        <time>2011-03-21T08:10:44Z</time>
      </trkpt>
      <trkpt lat="44.52946" lon="6.6982">
        <ele>2105.91</ele>
        <time>2011-03-21T08:10:57Z</time>
      </trkpt>
      <trkpt lat="44.52943" lon="6.69813">
        <ele>2106.39</ele>
        <time>2011-03-21T08:11:03Z</time>
      </trkpt>
      <trkpt lat="44.52941" lon="6.69811">
        <ele>2107.35</ele>
        <time>2011-03-21T08:11:07Z</time>
      </trkpt>
      <trkpt lat="44.52935" lon="6.698">
        <ele>2109.27</ele>
        <time>2011-03-21T08:11:21Z</time>
      </trkpt>
      <trkpt lat="44.52927" lon="6.69791">
        <ele>2111.19</ele>
        <time>2011-03-21T08:11:35Z</time>
      </trkpt>
      <trkpt lat="44.52921" lon="6.69783">
        <ele>2112.63</ele>
        <time>2011-03-21T08:11:48Z</time>
      </trkpt>
      <trkpt lat="44.52912" lon="6.69774">
        <ele>2114.56</ele>
        <time>2011-03-21T08:12:02Z</time>
      </trkpt>
      <trkpt lat="44.52905" lon="6.69767">
        <ele>2116.48</ele>
        <time>2011-03-21T08:12:16Z</time>
      </trkpt>
      <trkpt lat="44.52898" lon="6.69756">
        <ele>2116.96</ele>
        <time>2011-03-21T08:12:28Z</time>
      </trkpt>
      <trkpt lat="44.52891" lon="6.69747">
        <ele>2118.88</ele>
        <time>2011-03-21T08:12:41Z</time>
      </trkpt>
      <trkpt lat="44.52885" lon="6.69737">
        <ele>2120.81</ele>
        <time>2011-03-21T08:12:55Z</time>
      </trkpt>
      <trkpt lat="44.5288" lon="6.6973">
        <ele>2122.25</ele>
        <time>2011-03-21T08:13:08Z</time>
      </trkpt>
      <trkpt lat="44.52874" lon="6.69726">
        <ele>2123.21</ele>
        <time>2011-03-21T08:13:20Z</time>
      </trkpt>
      <trkpt lat="44.52869" lon="6.69719">
        <ele>2125.13</ele>
        <time>2011-03-21T08:13:32Z</time>
      </trkpt>
      <trkpt lat="44.52866" lon="6.69712">
        <ele>2126.57</ele>
        <time>2011-03-21T08:13:44Z</time>
      </trkpt>
      <trkpt lat="44.52866" lon="6.69707">
        <ele>2128.02</ele>
        <time>2011-03-21T08:13:58Z</time>
      </trkpt>
      <trkpt lat="44.52864" lon="6.69699">
        <ele>2128.98</ele>
        <time>2011-03-21T08:14:14Z</time>
      </trkpt>
      <trkpt lat="44.52862" lon="6.69692">
        <ele>2130.42</ele>
        <time>2011-03-21T08:14:24Z</time>
      </trkpt>
      <trkpt lat="44.52859" lon="6.69683">
        <ele>2131.86</ele>
        <time>2011-03-21T08:14:38Z</time>
      </trkpt>
      <trkpt lat="44.52855" lon="6.69667">
        <ele>2133.78</ele>
        <time>2011-03-21T08:14:52Z</time>
      </trkpt>
      <trkpt lat="44.52854" lon="6.69665">
        <ele>2133.78</ele>
        <time>2011-03-21T08:14:54Z</time>
      </trkpt>
      <trkpt lat="44.5285" lon="6.69656">
        <ele>2135.71</ele>
        <time>2011-03-21T08:15:09Z</time>
      </trkpt>
      <trkpt lat="44.52846" lon="6.69645">
        <ele>2138.59</ele>
        <time>2011-03-21T08:15:23Z</time>
      </trkpt>
      <trkpt lat="44.52842" lon="6.69639">
        <ele>2140.51</ele>
        <time>2011-03-21T08:15:36Z</time>
      </trkpt>
      <trkpt lat="44.52838" lon="6.69631">
        <ele>2141.95</ele>
        <time>2011-03-21T08:15:50Z</time>
      </trkpt>
      <trkpt lat="44.52835" lon="6.69626">
        <ele>2142.92</ele>
        <time>2011-03-21T08:15:59Z</time>
      </trkpt>
      <trkpt lat="44.52829" lon="6.69613">
        <ele>2144.84</ele>
        <time>2011-03-21T08:16:13Z</time>
      </trkpt>
      <trkpt lat="44.52826" lon="6.69604">
        <ele>2146.28</ele>
        <time>2011-03-21T08:16:23Z</time>
      </trkpt>
      <trkpt lat="44.52824" lon="6.69599">
        <ele>2146.76</ele>
        <time>2011-03-21T08:16:28Z</time>
      </trkpt>
      <trkpt lat="44.5282" lon="6.69587">
        <ele>2149.16</ele>
        <time>2011-03-21T08:16:42Z</time>
      </trkpt>
      <trkpt lat="44.52815" lon="6.69574">
        <ele>2151.09</ele>
        <time>2011-03-21T08:16:58Z</time>
      </trkpt>
      <trkpt lat="44.52809" lon="6.6957">
        <ele>2153.01</ele>
        <time>2011-03-21T08:17:11Z</time>
      </trkpt>
      <trkpt lat="44.52803" lon="6.69563">
        <ele>2155.41</ele>
        <time>2011-03-21T08:17:25Z</time>
      </trkpt>
      <trkpt lat="44.52796" lon="6.69558">
        <ele>2156.86</ele>
        <time>2011-03-21T08:17:38Z</time>
      </trkpt>
      <trkpt lat="44.5279" lon="6.6955">
        <ele>2158.3</ele>
        <time>2011-03-21T08:17:50Z</time>
      </trkpt>
      <trkpt lat="44.52784" lon="6.69544">
        <ele>2159.74</ele>
        <time>2011-03-21T08:18:03Z</time>
      </trkpt>
      <trkpt lat="44.52779" lon="6.6954">
        <ele>2161.18</ele>
        <time>2011-03-21T08:18:13Z</time>
      </trkpt>
      <trkpt lat="44.52773" lon="6.69531">
        <ele>2162.14</ele>
        <time>2011-03-21T08:18:25Z</time>
      </trkpt>
      <trkpt lat="44.52766" lon="6.69527">
        <ele>2163.1</ele>
        <time>2011-03-21T08:18:35Z</time>
      </trkpt>
      <trkpt lat="44.52762" lon="6.69526">
        <ele>2163.58</ele>
        <time>2011-03-21T08:18:39Z</time>
      </trkpt>
      <trkpt lat="44.52757" lon="6.69522">
        <ele>2165.03</ele>
        <time>2011-03-21T08:18:49Z</time>
      </trkpt>
      <trkpt lat="44.5275" lon="6.69512">
        <ele>2166.47</ele>
        <time>2011-03-21T08:19:04Z</time>
      </trkpt>
      <trkpt lat="44.52744" lon="6.69504">
        <ele>2166.95</ele>
        <time>2011-03-21T08:19:16Z</time>
      </trkpt>
      <trkpt lat="44.52737" lon="6.69495">
        <ele>2169.35</ele>
        <time>2011-03-21T08:19:30Z</time>
      </trkpt>
      <trkpt lat="44.52728" lon="6.69496">
        <ele>2171.27</ele>
        <time>2011-03-21T08:19:43Z</time>
      </trkpt>
      <trkpt lat="44.52719" lon="6.69491">
        <ele>2172.72</ele>
        <time>2011-03-21T08:19:56Z</time>
      </trkpt>
      <trkpt lat="44.52713" lon="6.69489">
        <ele>2174.16</ele>
        <time>2011-03-21T08:20:08Z</time>
      </trkpt>
      <trkpt lat="44.52707" lon="6.69488">
        <ele>2175.12</ele>
        <time>2011-03-21T08:20:20Z</time>
      </trkpt>
      <trkpt lat="44.52705" lon="6.69488">
        <ele>2176.08</ele>
        <time>2011-03-21T08:20:22Z</time>
      </trkpt>
      <trkpt lat="44.52697" lon="6.69483">
        <ele>2177.52</ele>
        <time>2011-03-21T08:20:34Z</time>
      </trkpt>
      <trkpt lat="44.52692" lon="6.69481">
        <ele>2178</ele>
        <time>2011-03-21T08:20:41Z</time>
      </trkpt>
      <trkpt lat="44.52685" lon="6.69475">
        <ele>2179.45</ele>
        <time>2011-03-21T08:20:54Z</time>
      </trkpt>
      <trkpt lat="44.52679" lon="6.6947">
        <ele>2180.89</ele>
        <time>2011-03-21T08:21:05Z</time>
      </trkpt>
      <trkpt lat="44.52673" lon="6.69469">
        <ele>2182.33</ele>
        <time>2011-03-21T08:21:16Z</time>
      </trkpt>
      <trkpt lat="44.52666" lon="6.69471">
        <ele>2183.29</ele>
        <time>2011-03-21T08:21:26Z</time>
      </trkpt>
      <trkpt lat="44.52658" lon="6.69471">
        <ele>2184.73</ele>
        <time>2011-03-21T08:21:38Z</time>
      </trkpt>
      <trkpt lat="44.52652" lon="6.69471">
        <ele>2186.66</ele>
        <time>2011-03-21T08:21:50Z</time>
      </trkpt>
      <trkpt lat="44.52647" lon="6.6947">
        <ele>2188.58</ele>
        <time>2011-03-21T08:22:00Z</time>
      </trkpt>
      <trkpt lat="44.5264" lon="6.69471">
        <ele>2190.5</ele>
        <time>2011-03-21T08:22:11Z</time>
      </trkpt>
      <trkpt lat="44.52633" lon="6.69475">
        <ele>2191.94</ele>
        <time>2011-03-21T08:22:22Z</time>
      </trkpt>
      <trkpt lat="44.52627" lon="6.69481">
        <ele>2193.87</ele>
        <time>2011-03-21T08:22:34Z</time>
      </trkpt>
      <trkpt lat="44.52622" lon="6.69485">
        <ele>2195.31</ele>
        <time>2011-03-21T08:22:45Z</time>
      </trkpt>
      <trkpt lat="44.52615" lon="6.69491">
        <ele>2197.71</ele>
        <time>2011-03-21T08:22:58Z</time>
      </trkpt>
      <trkpt lat="44.52611" lon="6.69498">
        <ele>2198.67</ele>
        <time>2011-03-21T08:23:09Z</time>
      </trkpt>
      <trkpt lat="44.52604" lon="6.69504">
        <ele>2200.59</ele>
        <time>2011-03-21T08:23:21Z</time>
      </trkpt>
      <trkpt lat="44.526" lon="6.69506">
        <ele>2201.08</ele>
        <time>2011-03-21T08:23:29Z</time>
      </trkpt>
      <trkpt lat="44.52594" lon="6.69511">
        <ele>2202.52</ele>
        <time>2011-03-21T08:23:41Z</time>
      </trkpt>
      <trkpt lat="44.52587" lon="6.69515">
        <ele>2203.96</ele>
        <time>2011-03-21T08:23:53Z</time>
      </trkpt>
      <trkpt lat="44.52582" lon="6.69523">
        <ele>2206.36</ele>
        <time>2011-03-21T08:24:05Z</time>
      </trkpt>
      <trkpt lat="44.52581" lon="6.69525">
        <ele>2206.36</ele>
        <time>2011-03-21T08:24:18Z</time>
      </trkpt>
      <trkpt lat="44.52576" lon="6.69531">
        <ele>2208.77</ele>
        <time>2011-03-21T08:24:30Z</time>
      </trkpt>
      <trkpt lat="44.5257" lon="6.69532">
        <ele>2210.21</ele>
        <time>2011-03-21T08:24:41Z</time>
      </trkpt>
      <trkpt lat="44.52562" lon="6.69527">
        <ele>2211.17</ele>
        <time>2011-03-21T08:24:52Z</time>
      </trkpt>
      <trkpt lat="44.52554" lon="6.69524">
        <ele>2212.61</ele>
        <time>2011-03-21T08:25:04Z</time>
      </trkpt>
      <trkpt lat="44.52552" lon="6.69524">
        <ele>2213.09</ele>
        <time>2011-03-21T08:25:07Z</time>
      </trkpt>
      <trkpt lat="44.52546" lon="6.69519">
        <ele>2214.53</ele>
        <time>2011-03-21T08:25:18Z</time>
      </trkpt>
      <trkpt lat="44.52537" lon="6.69516">
        <ele>2215.5</ele>
        <time>2011-03-21T08:25:31Z</time>
      </trkpt>
      <trkpt lat="44.52531" lon="6.69511">
        <ele>2217.9</ele>
        <time>2011-03-21T08:25:43Z</time>
      </trkpt>
      <trkpt lat="44.52523" lon="6.69506">
        <ele>2218.86</ele>
        <time>2011-03-21T08:25:55Z</time>
      </trkpt>
      <trkpt lat="44.52517" lon="6.695">
        <ele>2220.3</ele>
        <time>2011-03-21T08:26:06Z</time>
      </trkpt>
      <trkpt lat="44.52511" lon="6.69497">
        <ele>2221.74</ele>
        <time>2011-03-21T08:26:17Z</time>
      </trkpt>
      <trkpt lat="44.52507" lon="6.6949">
        <ele>2222.71</ele>
        <time>2011-03-21T08:26:29Z</time>
      </trkpt>
      <trkpt lat="44.52507" lon="6.6949">
        <ele>2223.67</ele>
        <time>2011-03-21T08:26:49Z</time>
      </trkpt>
      <trkpt lat="44.52507" lon="6.6949">
        <ele>2223.19</ele>
        <time>2011-03-21T08:27:15Z</time>
      </trkpt>
      <trkpt lat="44.52507" lon="6.69491">
        <ele>2221.26</ele>
        <time>2011-03-21T08:27:36Z</time>
      </trkpt>
      <trkpt lat="44.52507" lon="6.69491">
        <ele>2221.26</ele>
        <time>2011-03-21T08:28:06Z</time>
      </trkpt>
      <trkpt lat="44.52507" lon="6.6949">
        <ele>2221.74</ele>
        <time>2011-03-21T08:28:36Z</time>
      </trkpt>
      <trkpt lat="44.52507" lon="6.6949">
        <ele>2222.71</ele>
        <time>2011-03-21T08:28:49Z</time>
      </trkpt>
      <trkpt lat="44.52501" lon="6.69489">
        <ele>2224.15</ele>
        <time>2011-03-21T08:28:59Z</time>
      </trkpt>
      <trkpt lat="44.52492" lon="6.69482">
        <ele>2225.59</ele>
        <time>2011-03-21T08:29:12Z</time>
      </trkpt>
      <trkpt lat="44.52491" lon="6.69481">
        <ele>2226.55</ele>
        <time>2011-03-21T08:29:15Z</time>
      </trkpt>
      <trkpt lat="44.52485" lon="6.69476">
        <ele>2227.03</ele>
        <time>2011-03-21T08:29:24Z</time>
      </trkpt>
      <trkpt lat="44.52477" lon="6.69468">
        <ele>2227.99</ele>
        <time>2011-03-21T08:29:38Z</time>
      </trkpt>
      <trkpt lat="44.5247" lon="6.69465">
        <ele>2229.92</ele>
        <time>2011-03-21T08:29:50Z</time>
      </trkpt>
      <trkpt lat="44.52469" lon="6.69463">
        <ele>2229.43</ele>
        <time>2011-03-21T08:29:52Z</time>
      </trkpt>
      <trkpt lat="44.52463" lon="6.69459">
        <ele>2231.84</ele>
        <time>2011-03-21T08:30:01Z</time>
      </trkpt>
      <trkpt lat="44.5246" lon="6.69459">
        <ele>2231.84</ele>
        <time>2011-03-21T08:30:05Z</time>
      </trkpt>
      <trkpt lat="44.52451" lon="6.69454">
        <ele>2233.28</ele>
        <time>2011-03-21T08:30:17Z</time>
      </trkpt>
      <trkpt lat="44.52446" lon="6.69451">
        <ele>2234.24</ele>
        <time>2011-03-21T08:30:24Z</time>
      </trkpt>
      <trkpt lat="44.52439" lon="6.69446">
        <ele>2236.16</ele>
        <time>2011-03-21T08:30:36Z</time>
      </trkpt>
      <trkpt lat="44.52434" lon="6.69442">
        <ele>2236.16</ele>
        <time>2011-03-21T08:30:44Z</time>
      </trkpt>
      <trkpt lat="44.52431" lon="6.6944">
        <ele>2236.64</ele>
        <time>2011-03-21T08:30:48Z</time>
      </trkpt>
      <trkpt lat="44.52428" lon="6.69437">
        <ele>2237.13</ele>
        <time>2011-03-21T08:30:53Z</time>
      </trkpt>
      <trkpt lat="44.52419" lon="6.69431">
        <ele>2238.57</ele>
        <time>2011-03-21T08:31:05Z</time>
      </trkpt>
      <trkpt lat="44.52415" lon="6.69428">
        <ele>2239.53</ele>
        <time>2011-03-21T08:31:11Z</time>
      </trkpt>
      <trkpt lat="44.52407" lon="6.69421">
        <ele>2240.49</ele>
        <time>2011-03-21T08:31:23Z</time>
      </trkpt>
      <trkpt lat="44.52406" lon="6.69421">
        <ele>2240.97</ele>
        <time>2011-03-21T08:31:24Z</time>
      </trkpt>
      <trkpt lat="44.52403" lon="6.69417">
        <ele>2240.97</ele>
        <time>2011-03-21T08:31:29Z</time>
      </trkpt>
      <trkpt lat="44.52394" lon="6.69412">
        <ele>2242.41</ele>
        <time>2011-03-21T08:31:43Z</time>
      </trkpt>
      <trkpt lat="44.52388" lon="6.69408">
        <ele>2242.89</ele>
        <time>2011-03-21T08:31:55Z</time>
      </trkpt>
      <trkpt lat="44.52383" lon="6.69406">
        <ele>2243.85</ele>
        <time>2011-03-21T08:32:09Z</time>
      </trkpt>
      <trkpt lat="44.52377" lon="6.69399">
        <ele>2244.82</ele>
        <time>2011-03-21T08:32:21Z</time>
      </trkpt>
      <trkpt lat="44.52369" lon="6.69396">
        <ele>2246.26</ele>
        <time>2011-03-21T08:32:34Z</time>
      </trkpt>
      <trkpt lat="44.52366" lon="6.69393">
        <ele>2246.26</ele>
        <time>2011-03-21T08:32:38Z</time>
      </trkpt>
      <trkpt lat="44.52358" lon="6.69387">
        <ele>2246.74</ele>
        <time>2011-03-21T08:32:52Z</time>
      </trkpt>
      <trkpt lat="44.52355" lon="6.69385">
        <ele>2247.22</ele>
        <time>2011-03-21T08:32:56Z</time>
      </trkpt>
      <trkpt lat="44.52351" lon="6.69383">
        <ele>2247.7</ele>
        <time>2011-03-21T08:33:01Z</time>
      </trkpt>
      <trkpt lat="44.52348" lon="6.6938">
        <ele>2247.7</ele>
        <time>2011-03-21T08:33:05Z</time>
      </trkpt>
      <trkpt lat="44.52339" lon="6.69378">
        <ele>2249.14</ele>
        <time>2011-03-21T08:33:17Z</time>
      </trkpt>
      <trkpt lat="44.5233" lon="6.69373">
        <ele>2251.06</ele>
        <time>2011-03-21T08:33:30Z</time>
      </trkpt>
      <trkpt lat="44.52322" lon="6.6937">
        <ele>2252.51</ele>
        <time>2011-03-21T08:33:43Z</time>
      </trkpt>
      <trkpt lat="44.52317" lon="6.69362">
        <ele>2252.99</ele>
        <time>2011-03-21T08:33:52Z</time>
      </trkpt>
      <trkpt lat="44.52309" lon="6.69355">
        <ele>2254.43</ele>
        <time>2011-03-21T08:34:06Z</time>
      </trkpt>
      <trkpt lat="44.523" lon="6.69351">
        <ele>2255.87</ele>
        <time>2011-03-21T08:34:20Z</time>
      </trkpt>
      <trkpt lat="44.52297" lon="6.6935">
        <ele>2256.35</ele>
        <time>2011-03-21T08:34:24Z</time>
      </trkpt>
      <trkpt lat="44.52293" lon="6.69348">
        <ele>2256.83</ele>
        <time>2011-03-21T08:34:29Z</time>
      </trkpt>
      <trkpt lat="44.52291" lon="6.69347">
        <ele>2257.79</ele>
        <time>2011-03-21T08:34:31Z</time>
      </trkpt>
      <trkpt lat="44.52284" lon="6.69344">
        <ele>2258.27</ele>
        <time>2011-03-21T08:34:43Z</time>
      </trkpt>
      <trkpt lat="44.52281" lon="6.69344">
        <ele>2259.24</ele>
        <time>2011-03-21T08:34:46Z</time>
      </trkpt>
      <trkpt lat="44.52271" lon="6.69341">
        <ele>2260.2</ele>
        <time>2011-03-21T08:35:00Z</time>
      </trkpt>
      <trkpt lat="44.52265" lon="6.69337">
        <ele>2261.16</ele>
        <time>2011-03-21T08:35:10Z</time>
      </trkpt>
      <trkpt lat="44.52256" lon="6.69334">
        <ele>2262.12</ele>
        <time>2011-03-21T08:35:23Z</time>
      </trkpt>
      <trkpt lat="44.5225" lon="6.69328">
        <ele>2264.04</ele>
        <time>2011-03-21T08:35:32Z</time>
      </trkpt>
      <trkpt lat="44.52243" lon="6.69324">
        <ele>2264.52</ele>
        <time>2011-03-21T08:35:43Z</time>
      </trkpt>
      <trkpt lat="44.52241" lon="6.69324">
        <ele>2264.04</ele>
        <time>2011-03-21T08:35:45Z</time>
      </trkpt>
      <trkpt lat="44.52233" lon="6.69322">
        <ele>2265</ele>
        <time>2011-03-21T08:35:57Z</time>
      </trkpt>
      <trkpt lat="44.52223" lon="6.69318">
        <ele>2267.41</ele>
        <time>2011-03-21T08:36:10Z</time>
      </trkpt>
      <trkpt lat="44.52219" lon="6.69318">
        <ele>2267.89</ele>
        <time>2011-03-21T08:36:17Z</time>
      </trkpt>
      <trkpt lat="44.52215" lon="6.69317">
        <ele>2268.37</ele>
        <time>2011-03-21T08:36:21Z</time>
      </trkpt>
      <trkpt lat="44.52205" lon="6.69314">
        <ele>2270.29</ele>
        <time>2011-03-21T08:36:34Z</time>
      </trkpt>
      <trkpt lat="44.52196" lon="6.69312">
        <ele>2272.21</ele>
        <time>2011-03-21T08:36:47Z</time>
      </trkpt>
      <trkpt lat="44.52187" lon="6.69309">
        <ele>2273.66</ele>
        <time>2011-03-21T08:37:00Z</time>
      </trkpt>
      <trkpt lat="44.52179" lon="6.69302">
        <ele>2275.1</ele>
        <time>2011-03-21T08:37:12Z</time>
      </trkpt>
      <trkpt lat="44.52175" lon="6.69299">
        <ele>2275.58</ele>
        <time>2011-03-21T08:37:18Z</time>
      </trkpt>
      <trkpt lat="44.52166" lon="6.69295">
        <ele>2276.06</ele>
        <time>2011-03-21T08:37:30Z</time>
      </trkpt>
      <trkpt lat="44.52157" lon="6.6929">
        <ele>2277.98</ele>
        <time>2011-03-21T08:37:43Z</time>
      </trkpt>
      <trkpt lat="44.52147" lon="6.69284">
        <ele>2279.42</ele>
        <time>2011-03-21T08:37:57Z</time>
      </trkpt>
      <trkpt lat="44.52146" lon="6.69284">
        <ele>2279.42</ele>
        <time>2011-03-21T08:37:58Z</time>
      </trkpt>
      <trkpt lat="44.5214" lon="6.69279">
        <ele>2280.87</ele>
        <time>2011-03-21T08:38:08Z</time>
      </trkpt>
      <trkpt lat="44.52132" lon="6.6927">
        <ele>2282.31</ele>
        <time>2011-03-21T08:38:20Z</time>
      </trkpt>
      <trkpt lat="44.52129" lon="6.6927">
        <ele>2282.31</ele>
        <time>2011-03-21T08:38:23Z</time>
      </trkpt>
      <trkpt lat="44.5212" lon="6.69268">
        <ele>2282.79</ele>
        <time>2011-03-21T08:38:33Z</time>
      </trkpt>
      <trkpt lat="44.52118" lon="6.69266">
        <ele>2283.27</ele>
        <time>2011-03-21T08:38:36Z</time>
      </trkpt>
      <trkpt lat="44.52107" lon="6.6926">
        <ele>2284.71</ele>
        <time>2011-03-21T08:38:50Z</time>
      </trkpt>
      <trkpt lat="44.52098" lon="6.69254">
        <ele>2286.15</ele>
        <time>2011-03-21T08:39:02Z</time>
      </trkpt>
      <trkpt lat="44.52092" lon="6.69249">
        <ele>2287.59</ele>
        <time>2011-03-21T08:39:11Z</time>
      </trkpt>
      <trkpt lat="44.52081" lon="6.69236">
        <ele>2288.56</ele>
        <time>2011-03-21T08:39:26Z</time>
      </trkpt>
      <trkpt lat="44.52074" lon="6.69229">
        <ele>2290.48</ele>
        <time>2011-03-21T08:39:39Z</time>
      </trkpt>
      <trkpt lat="44.52067" lon="6.69227">
        <ele>2291.44</ele>
        <time>2011-03-21T08:39:51Z</time>
      </trkpt>
      <trkpt lat="44.52059" lon="6.69218">
        <ele>2293.36</ele>
        <time>2011-03-21T08:40:04Z</time>
      </trkpt>
      <trkpt lat="44.52051" lon="6.69209">
        <ele>2294.32</ele>
        <time>2011-03-21T08:40:16Z</time>
      </trkpt>
      <trkpt lat="44.52045" lon="6.69204">
        <ele>2295.77</ele>
        <time>2011-03-21T08:40:29Z</time>
      </trkpt>
      <trkpt lat="44.52044" lon="6.69203">
        <ele>2295.77</ele>
        <time>2011-03-21T08:40:31Z</time>
      </trkpt>
      <trkpt lat="44.52035" lon="6.69191">
        <ele>2298.17</ele>
        <time>2011-03-21T08:40:46Z</time>
      </trkpt>
      <trkpt lat="44.52034" lon="6.69191">
        <ele>2298.17</ele>
        <time>2011-03-21T08:40:47Z</time>
      </trkpt>
      <trkpt lat="44.52028" lon="6.69188">
        <ele>2298.65</ele>
        <time>2011-03-21T08:40:57Z</time>
      </trkpt>
      <trkpt lat="44.5202" lon="6.69183">
        <ele>2299.13</ele>
        <time>2011-03-21T08:41:09Z</time>
      </trkpt>
      <trkpt lat="44.52015" lon="6.69182">
        <ele>2300.57</ele>
        <time>2011-03-21T08:41:19Z</time>
      </trkpt>
      <trkpt lat="44.5201" lon="6.69188">
        <ele>2302.49</ele>
        <time>2011-03-21T08:41:32Z</time>
      </trkpt>
      <trkpt lat="44.5201" lon="6.69188">
        <ele>2302.49</ele>
        <time>2011-03-21T08:41:35Z</time>
      </trkpt>
      <trkpt lat="44.52005" lon="6.69198">
        <ele>2303.46</ele>
        <time>2011-03-21T08:41:49Z</time>
      </trkpt>
      <trkpt lat="44.52005" lon="6.69198">
        <ele>2302.98</ele>
        <time>2011-03-21T08:42:06Z</time>
      </trkpt>
      <trkpt lat="44.52006" lon="6.69197">
        <ele>2299.61</ele>
        <time>2011-03-21T08:42:17Z</time>
      </trkpt>
      <trkpt lat="44.52006" lon="6.69197">
        <ele>2302.98</ele>
        <time>2011-03-21T08:42:18Z</time>
      </trkpt>
      <trkpt lat="44.52006" lon="6.69197">
        <ele>2302.49</ele>
        <time>2011-03-21T08:42:40Z</time>
      </trkpt>
      <trkpt lat="44.52006" lon="6.69197">
        <ele>2302.98</ele>
        <time>2011-03-21T08:43:10Z</time>
      </trkpt>
      <trkpt lat="44.52006" lon="6.69197">
        <ele>2301.05</ele>
        <time>2011-03-21T08:43:12Z</time>
      </trkpt>
      <trkpt lat="44.52006" lon="6.69197">
        <ele>2302.49</ele>
        <time>2011-03-21T08:43:14Z</time>
      </trkpt>
      <trkpt lat="44.52006" lon="6.69197">
        <ele>2302.98</ele>
        <time>2011-03-21T08:43:41Z</time>
      </trkpt>
      <trkpt lat="44.52006" lon="6.69197">
        <ele>2302.98</ele>
        <time>2011-03-21T08:44:04Z</time>
      </trkpt>
      <trkpt lat="44.52006" lon="6.69197">
        <ele>2302.01</ele>
        <time>2011-03-21T08:44:15Z</time>
      </trkpt>
      <trkpt lat="44.52006" lon="6.69197">
        <ele>2302.98</ele>
        <time>2011-03-21T08:44:45Z</time>
      </trkpt>
      <trkpt lat="44.52006" lon="6.69197">
        <ele>2301.53</ele>
        <time>2011-03-21T08:45:12Z</time>
      </trkpt>
      <trkpt lat="44.52005" lon="6.69199">
        <ele>2301.53</ele>
        <time>2011-03-21T08:45:30Z</time>
      </trkpt>
      <trkpt lat="44.52005" lon="6.69199">
        <ele>2301.53</ele>
        <time>2011-03-21T08:46:05Z</time>
      </trkpt>
      <trkpt lat="44.52006" lon="6.69198">
        <ele>2302.01</ele>
        <time>2011-03-21T08:46:42Z</time>
      </trkpt>
      <trkpt lat="44.52006" lon="6.69198">
        <ele>2300.57</ele>
        <time>2011-03-21T08:47:16Z</time>
      </trkpt>
      <trkpt lat="44.52006" lon="6.69197">
        <ele>2301.05</ele>
        <time>2011-03-21T08:47:38Z</time>
      </trkpt>
      <trkpt lat="44.52005" lon="6.69197">
        <ele>2300.57</ele>
        <time>2011-03-21T08:48:03Z</time>
      </trkpt>
      <trkpt lat="44.52005" lon="6.69197">
        <ele>2300.57</ele>
        <time>2011-03-21T08:48:30Z</time>
      </trkpt>
      <trkpt lat="44.52005" lon="6.69196">
        <ele>2301.53</ele>
        <time>2011-03-21T08:48:40Z</time>
      </trkpt>
      <trkpt lat="44.52005" lon="6.69196">
        <ele>2300.57</ele>
        <time>2011-03-21T08:49:10Z</time>
      </trkpt>
      <trkpt lat="44.52005" lon="6.69196">
        <ele>2301.53</ele>
        <time>2011-03-21T08:49:37Z</time>
      </trkpt>
      <trkpt lat="44.52005" lon="6.69196">
        <ele>2301.53</ele>
        <time>2011-03-21T08:50:02Z</time>
      </trkpt>
      <trkpt lat="44.52005" lon="6.69196">
        <ele>2300.57</ele>
        <time>2011-03-21T08:50:26Z</time>
      </trkpt>
      <trkpt lat="44.52005" lon="6.69196">
        <ele>2300.57</ele>
        <time>2011-03-21T08:50:51Z</time>
      </trkpt>
      <trkpt lat="44.52005" lon="6.69198">
        <ele>2301.53</ele>
        <time>2011-03-21T08:51:08Z</time>
      </trkpt>
      <trkpt lat="44.52005" lon="6.69198">
        <ele>2300.57</ele>
        <time>2011-03-21T08:51:30Z</time>
      </trkpt>
      <trkpt lat="44.52003" lon="6.692">
        <ele>2301.05</ele>
        <time>2011-03-21T08:51:41Z</time>
      </trkpt>
      <trkpt lat="44.52003" lon="6.692">
        <ele>2300.57</ele>
        <time>2011-03-21T08:52:05Z</time>
      </trkpt>
      <trkpt lat="44.52001" lon="6.69196">
        <ele>2300.57</ele>
        <time>2011-03-21T08:52:23Z</time>
      </trkpt>
      <trkpt lat="44.51998" lon="6.69192">
        <ele>2301.05</ele>
        <time>2011-03-21T08:52:28Z</time>
      </trkpt>
      <trkpt lat="44.51997" lon="6.69188">
        <ele>2300.57</ele>
        <time>2011-03-21T08:52:41Z</time>
      </trkpt>
      <trkpt lat="44.51995" lon="6.69186">
        <ele>2301.05</ele>
        <time>2011-03-21T08:53:07Z</time>
      </trkpt>
      <trkpt lat="44.51991" lon="6.69183">
        <ele>2301.05</ele>
        <time>2011-03-21T08:53:15Z</time>
      </trkpt>
      <trkpt lat="44.51986" lon="6.69178">
        <ele>2301.53</ele>
        <time>2011-03-21T08:53:22Z</time>
      </trkpt>
      <trkpt lat="44.51981" lon="6.69172">
        <ele>2302.49</ele>
        <time>2011-03-21T08:53:30Z</time>
      </trkpt>
      <trkpt lat="44.51975" lon="6.69161">
        <ele>2303.46</ele>
        <time>2011-03-21T08:53:42Z</time>
      </trkpt>
      <trkpt lat="44.51971" lon="6.69153">
        <ele>2304.42</ele>
        <time>2011-03-21T08:53:51Z</time>
      </trkpt>
      <trkpt lat="44.51963" lon="6.69146">
        <ele>2305.86</ele>
        <time>2011-03-21T08:54:04Z</time>
      </trkpt>
      <trkpt lat="44.51954" lon="6.69142">
        <ele>2307.3</ele>
        <time>2011-03-21T08:54:17Z</time>
      </trkpt>
      <trkpt lat="44.51947" lon="6.69138">
        <ele>2308.74</ele>
        <time>2011-03-21T08:54:28Z</time>
      </trkpt>
      <trkpt lat="44.51941" lon="6.69134">
        <ele>2310.19</ele>
        <time>2011-03-21T08:54:39Z</time>
      </trkpt>
      <trkpt lat="44.51932" lon="6.69129">
        <ele>2311.63</ele>
        <time>2011-03-21T08:54:52Z</time>
      </trkpt>
      <trkpt lat="44.51926" lon="6.69125">
        <ele>2312.59</ele>
        <time>2011-03-21T08:55:05Z</time>
      </trkpt>
      <trkpt lat="44.51922" lon="6.69122">
        <ele>2313.55</ele>
        <time>2011-03-21T08:55:17Z</time>
      </trkpt>
      <trkpt lat="44.51915" lon="6.69115">
        <ele>2315.47</ele>
        <time>2011-03-21T08:55:29Z</time>
      </trkpt>
      <trkpt lat="44.5191" lon="6.69111">
        <ele>2316.91</ele>
        <time>2011-03-21T08:55:41Z</time>
      </trkpt>
      <trkpt lat="44.51903" lon="6.69104">
        <ele>2319.32</ele>
        <time>2011-03-21T08:55:56Z</time>
      </trkpt>
      <trkpt lat="44.51897" lon="6.69097">
        <ele>2321.72</ele>
        <time>2011-03-21T08:56:10Z</time>
      </trkpt>
      <trkpt lat="44.51893" lon="6.6909">
        <ele>2322.68</ele>
        <time>2011-03-21T08:56:22Z</time>
      </trkpt>
      <trkpt lat="44.51888" lon="6.6908">
        <ele>2325.09</ele>
        <time>2011-03-21T08:56:37Z</time>
      </trkpt>
      <trkpt lat="44.51883" lon="6.69073">
        <ele>2326.53</ele>
        <time>2011-03-21T08:56:49Z</time>
      </trkpt>
      <trkpt lat="44.51878" lon="6.69066">
        <ele>2328.45</ele>
        <time>2011-03-21T08:57:02Z</time>
      </trkpt>
      <trkpt lat="44.51874" lon="6.69057">
        <ele>2329.89</ele>
        <time>2011-03-21T08:57:15Z</time>
      </trkpt>
      <trkpt lat="44.51873" lon="6.69047">
        <ele>2331.33</ele>
        <time>2011-03-21T08:57:27Z</time>
      </trkpt>
      <trkpt lat="44.5187" lon="6.69041">
        <ele>2332.78</ele>
        <time>2011-03-21T08:57:40Z</time>
      </trkpt>
      <trkpt lat="44.51867" lon="6.69035">
        <ele>2333.74</ele>
        <time>2011-03-21T08:57:47Z</time>
      </trkpt>
      <trkpt lat="44.51862" lon="6.69032">
        <ele>2334.22</ele>
        <time>2011-03-21T08:57:54Z</time>
      </trkpt>
      <trkpt lat="44.5186" lon="6.69029">
        <ele>2335.18</ele>
        <time>2011-03-21T08:57:58Z</time>
      </trkpt>
      <trkpt lat="44.51851" lon="6.69022">
        <ele>2337.1</ele>
        <time>2011-03-21T08:58:10Z</time>
      </trkpt>
      <trkpt lat="44.51842" lon="6.69012">
        <ele>2338.54</ele>
        <time>2011-03-21T08:58:25Z</time>
      </trkpt>
      <trkpt lat="44.51836" lon="6.69002">
        <ele>2339.99</ele>
        <time>2011-03-21T08:58:38Z</time>
      </trkpt>
      <trkpt lat="44.51832" lon="6.68994">
        <ele>2341.91</ele>
        <time>2011-03-21T08:58:50Z</time>
      </trkpt>
      <trkpt lat="44.51827" lon="6.68987">
        <ele>2343.83</ele>
        <time>2011-03-21T08:59:03Z</time>
      </trkpt>
      <trkpt lat="44.51822" lon="6.68979">
        <ele>2346.23</ele>
        <time>2011-03-21T08:59:16Z</time>
      </trkpt>
      <trkpt lat="44.51816" lon="6.68973">
        <ele>2347.68</ele>
        <time>2011-03-21T08:59:29Z</time>
      </trkpt>
      <trkpt lat="44.51811" lon="6.68965">
        <ele>2349.6</ele>
        <time>2011-03-21T08:59:43Z</time>
      </trkpt>
      <trkpt lat="44.51811" lon="6.68964">
        <ele>2349.6</ele>
        <time>2011-03-21T08:59:44Z</time>
      </trkpt>
      <trkpt lat="44.51806" lon="6.68957">
        <ele>2351.52</ele>
        <time>2011-03-21T08:59:57Z</time>
      </trkpt>
      <trkpt lat="44.51801" lon="6.6895">
        <ele>2353.44</ele>
        <time>2011-03-21T09:00:10Z</time>
      </trkpt>
      <trkpt lat="44.51796" lon="6.68944">
        <ele>2354.89</ele>
        <time>2011-03-21T09:00:22Z</time>
      </trkpt>
      <trkpt lat="44.51791" lon="6.68938">
        <ele>2356.33</ele>
        <time>2011-03-21T09:00:34Z</time>
      </trkpt>
      <trkpt lat="44.51785" lon="6.6893">
        <ele>2358.25</ele>
        <time>2011-03-21T09:00:49Z</time>
      </trkpt>
      <trkpt lat="44.51778" lon="6.68925">
        <ele>2359.69</ele>
        <time>2011-03-21T09:01:01Z</time>
      </trkpt>
      <trkpt lat="44.51773" lon="6.68921">
        <ele>2361.14</ele>
        <time>2011-03-21T09:01:13Z</time>
      </trkpt>
      <trkpt lat="44.51767" lon="6.68918">
        <ele>2363.06</ele>
        <time>2011-03-21T09:01:26Z</time>
      </trkpt>
      <trkpt lat="44.51759" lon="6.68915">
        <ele>2364.98</ele>
        <time>2011-03-21T09:01:40Z</time>
      </trkpt>
      <trkpt lat="44.51752" lon="6.68909">
        <ele>2366.9</ele>
        <time>2011-03-21T09:01:53Z</time>
      </trkpt>
      <trkpt lat="44.51748" lon="6.68907">
        <ele>2368.83</ele>
        <time>2011-03-21T09:02:05Z</time>
      </trkpt>
      <trkpt lat="44.51743" lon="6.689">
        <ele>2371.23</ele>
        <time>2011-03-21T09:02:18Z</time>
      </trkpt>
      <trkpt lat="44.51737" lon="6.68893">
        <ele>2372.67</ele>
        <time>2011-03-21T09:02:30Z</time>
      </trkpt>
      <trkpt lat="44.51731" lon="6.68892">
        <ele>2375.07</ele>
        <time>2011-03-21T09:02:41Z</time>
      </trkpt>
      <trkpt lat="44.51726" lon="6.68889">
        <ele>2376.52</ele>
        <time>2011-03-21T09:02:53Z</time>
      </trkpt>
      <trkpt lat="44.51719" lon="6.68889">
        <ele>2379.4</ele>
        <time>2011-03-21T09:03:07Z</time>
      </trkpt>
      <trkpt lat="44.51711" lon="6.68889">
        <ele>2381.32</ele>
        <time>2011-03-21T09:03:20Z</time>
      </trkpt>
      <trkpt lat="44.51706" lon="6.68884">
        <ele>2383.25</ele>
        <time>2011-03-21T09:03:33Z</time>
      </trkpt>
      <trkpt lat="44.51701" lon="6.68881">
        <ele>2385.65</ele>
        <time>2011-03-21T09:03:44Z</time>
      </trkpt>
      <trkpt lat="44.51693" lon="6.68875">
        <ele>2386.61</ele>
        <time>2011-03-21T09:03:58Z</time>
      </trkpt>
      <trkpt lat="44.51687" lon="6.68867">
        <ele>2387.57</ele>
        <time>2011-03-21T09:04:11Z</time>
      </trkpt>
      <trkpt lat="44.51682" lon="6.68862">
        <ele>2389.97</ele>
        <time>2011-03-21T09:04:23Z</time>
      </trkpt>
      <trkpt lat="44.51677" lon="6.68855">
        <ele>2391.42</ele>
        <time>2011-03-21T09:04:36Z</time>
      </trkpt>
      <trkpt lat="44.51674" lon="6.6885">
        <ele>2393.34</ele>
        <time>2011-03-21T09:04:48Z</time>
      </trkpt>
      <trkpt lat="44.51667" lon="6.6884">
        <ele>2395.74</ele>
        <time>2011-03-21T09:05:01Z</time>
      </trkpt>
      <trkpt lat="44.51662" lon="6.68832">
        <ele>2397.18</ele>
        <time>2011-03-21T09:05:12Z</time>
      </trkpt>
      <trkpt lat="44.51656" lon="6.68825">
        <ele>2399.11</ele>
        <time>2011-03-21T09:05:25Z</time>
      </trkpt>
      <trkpt lat="44.5165" lon="6.68818">
        <ele>2399.59</ele>
        <time>2011-03-21T09:05:37Z</time>
      </trkpt>
      <trkpt lat="44.51644" lon="6.68808">
        <ele>2401.51</ele>
        <time>2011-03-21T09:05:50Z</time>
      </trkpt>
      <trkpt lat="44.51638" lon="6.68801">
        <ele>2402.47</ele>
        <time>2011-03-21T09:06:04Z</time>
      </trkpt>
      <trkpt lat="44.51633" lon="6.68792">
        <ele>2404.39</ele>
        <time>2011-03-21T09:06:16Z</time>
      </trkpt>
      <trkpt lat="44.51627" lon="6.68786">
        <ele>2405.84</ele>
        <time>2011-03-21T09:06:29Z</time>
      </trkpt>
      <trkpt lat="44.51625" lon="6.6879">
        <ele>2408.72</ele>
        <time>2011-03-21T09:06:41Z</time>
      </trkpt>
      <trkpt lat="44.51622" lon="6.68794">
        <ele>2410.16</ele>
        <time>2011-03-21T09:06:53Z</time>
      </trkpt>
      <trkpt lat="44.51616" lon="6.68791">
        <ele>2412.57</ele>
        <time>2011-03-21T09:07:05Z</time>
      </trkpt>
      <trkpt lat="44.51611" lon="6.68785">
        <ele>2414.01</ele>
        <time>2011-03-21T09:07:17Z</time>
      </trkpt>
      <trkpt lat="44.51606" lon="6.68779">
        <ele>2415.93</ele>
        <time>2011-03-21T09:07:29Z</time>
      </trkpt>
      <trkpt lat="44.51603" lon="6.68769">
        <ele>2418.33</ele>
        <time>2011-03-21T09:07:42Z</time>
      </trkpt>
      <trkpt lat="44.51599" lon="6.68774">
        <ele>2419.78</ele>
        <time>2011-03-21T09:07:54Z</time>
      </trkpt>
      <trkpt lat="44.51597" lon="6.68783">
        <ele>2421.22</ele>
        <time>2011-03-21T09:08:06Z</time>
      </trkpt>
      <trkpt lat="44.51592" lon="6.68793">
        <ele>2423.14</ele>
        <time>2011-03-21T09:08:19Z</time>
      </trkpt>
      <trkpt lat="44.51585" lon="6.688">
        <ele>2425.06</ele>
        <time>2011-03-21T09:08:32Z</time>
      </trkpt>
      <trkpt lat="44.51576" lon="6.68798">
        <ele>2427.47</ele>
        <time>2011-03-21T09:08:45Z</time>
      </trkpt>
      <trkpt lat="44.51572" lon="6.68786">
        <ele>2429.87</ele>
        <time>2011-03-21T09:08:59Z</time>
      </trkpt>
      <trkpt lat="44.51571" lon="6.68775">
        <ele>2430.83</ele>
        <time>2011-03-21T09:09:13Z</time>
      </trkpt>
      <trkpt lat="44.5157" lon="6.68765">
        <ele>2432.75</ele>
        <time>2011-03-21T09:09:25Z</time>
      </trkpt>
      <trkpt lat="44.51566" lon="6.68766">
        <ele>2435.16</ele>
        <time>2011-03-21T09:09:36Z</time>
      </trkpt>
      <trkpt lat="44.51561" lon="6.6877">
        <ele>2436.12</ele>
        <time>2011-03-21T09:09:44Z</time>
      </trkpt>
      <trkpt lat="44.51552" lon="6.68775">
        <ele>2437.56</ele>
        <time>2011-03-21T09:09:57Z</time>
      </trkpt>
      <trkpt lat="44.51545" lon="6.68781">
        <ele>2439.48</ele>
        <time>2011-03-21T09:10:09Z</time>
      </trkpt>
      <trkpt lat="44.51539" lon="6.68787">
        <ele>2441.41</ele>
        <time>2011-03-21T09:10:22Z</time>
      </trkpt>
      <trkpt lat="44.51531" lon="6.68792">
        <ele>2442.85</ele>
        <time>2011-03-21T09:10:35Z</time>
      </trkpt>
      <trkpt lat="44.51523" lon="6.68797">
        <ele>2443.81</ele>
        <time>2011-03-21T09:10:47Z</time>
      </trkpt>
      <trkpt lat="44.51514" lon="6.68804">
        <ele>2446.21</ele>
        <time>2011-03-21T09:11:01Z</time>
      </trkpt>
      <trkpt lat="44.51509" lon="6.68805">
        <ele>2447.65</ele>
        <time>2011-03-21T09:11:10Z</time>
      </trkpt>
      <trkpt lat="44.51501" lon="6.68811">
        <ele>2449.58</ele>
        <time>2011-03-21T09:11:23Z</time>
      </trkpt>
      <trkpt lat="44.515" lon="6.68813">
        <ele>2450.06</ele>
        <time>2011-03-21T09:11:27Z</time>
      </trkpt>
      <trkpt lat="44.51491" lon="6.6882">
        <ele>2451.98</ele>
        <time>2011-03-21T09:11:41Z</time>
      </trkpt>
      <trkpt lat="44.51488" lon="6.68823">
        <ele>2451.98</ele>
        <time>2011-03-21T09:11:46Z</time>
      </trkpt>
      <trkpt lat="44.51487" lon="6.68825">
        <ele>2452.46</ele>
        <time>2011-03-21T09:11:49Z</time>
      </trkpt>
      <trkpt lat="44.5148" lon="6.68834">
        <ele>2453.42</ele>
        <time>2011-03-21T09:12:02Z</time>
      </trkpt>
      <trkpt lat="44.51478" lon="6.68843">
        <ele>2455.34</ele>
        <time>2011-03-21T09:12:13Z</time>
      </trkpt>
      <trkpt lat="44.51472" lon="6.68845">
        <ele>2456.79</ele>
        <time>2011-03-21T09:12:25Z</time>
      </trkpt>
      <trkpt lat="44.51466" lon="6.68844">
        <ele>2458.71</ele>
        <time>2011-03-21T09:12:38Z</time>
      </trkpt>
      <trkpt lat="44.51462" lon="6.68846">
        <ele>2460.15</ele>
        <time>2011-03-21T09:12:49Z</time>
      </trkpt>
      <trkpt lat="44.51461" lon="6.6885">
        <ele>2460.63</ele>
        <time>2011-03-21T09:13:04Z</time>
      </trkpt>
      <trkpt lat="44.51461" lon="6.6885">
        <ele>2460.63</ele>
        <time>2011-03-21T09:13:37Z</time>
      </trkpt>
      <trkpt lat="44.51461" lon="6.6885">
        <ele>2460.63</ele>
        <time>2011-03-21T09:13:55Z</time>
      </trkpt>
      <trkpt lat="44.5146" lon="6.68851">
        <ele>2459.19</ele>
        <time>2011-03-21T09:14:13Z</time>
      </trkpt>
      <trkpt lat="44.5146" lon="6.68851">
        <ele>2459.19</ele>
        <time>2011-03-21T09:14:34Z</time>
      </trkpt>
      <trkpt lat="44.5146" lon="6.68851">
        <ele>2458.71</ele>
        <time>2011-03-21T09:15:08Z</time>
      </trkpt>
      <trkpt lat="44.5146" lon="6.68851">
        <ele>2459.19</ele>
        <time>2011-03-21T09:15:30Z</time>
      </trkpt>
      <trkpt lat="44.5146" lon="6.68851">
        <ele>2459.19</ele>
        <time>2011-03-21T09:15:59Z</time>
      </trkpt>
      <trkpt lat="44.5146" lon="6.6885">
        <ele>2459.19</ele>
        <time>2011-03-21T09:16:28Z</time>
      </trkpt>
      <trkpt lat="44.5146" lon="6.68851">
        <ele>2459.19</ele>
        <time>2011-03-21T09:17:03Z</time>
      </trkpt>
      <trkpt lat="44.51459" lon="6.6885">
        <ele>2459.19</ele>
        <time>2011-03-21T09:17:31Z</time>
      </trkpt>
      <trkpt lat="44.51459" lon="6.6885">
        <ele>2461.11</ele>
        <time>2011-03-21T09:17:43Z</time>
      </trkpt>
      <trkpt lat="44.51459" lon="6.6885">
        <ele>2460.15</ele>
        <time>2011-03-21T09:17:45Z</time>
      </trkpt>
      <trkpt lat="44.51459" lon="6.6885">
        <ele>2460.15</ele>
        <time>2011-03-21T09:18:11Z</time>
      </trkpt>
      <trkpt lat="44.51459" lon="6.6885">
        <ele>2459.67</ele>
        <time>2011-03-21T09:18:31Z</time>
      </trkpt>
      <trkpt lat="44.51459" lon="6.6885">
        <ele>2460.15</ele>
        <time>2011-03-21T09:18:57Z</time>
      </trkpt>
      <trkpt lat="44.51459" lon="6.68849">
        <ele>2460.15</ele>
        <time>2011-03-21T09:19:17Z</time>
      </trkpt>
      <trkpt lat="44.51459" lon="6.68849">
        <ele>2458.71</ele>
        <time>2011-03-21T09:19:36Z</time>
      </trkpt>
      <trkpt lat="44.51459" lon="6.6885">
        <ele>2458.71</ele>
        <time>2011-03-21T09:20:01Z</time>
      </trkpt>
      <trkpt lat="44.51458" lon="6.6885">
        <ele>2458.23</ele>
        <time>2011-03-21T09:20:30Z</time>
      </trkpt>
      <trkpt lat="44.51458" lon="6.68849">
        <ele>2458.23</ele>
        <time>2011-03-21T09:21:04Z</time>
      </trkpt>
      <trkpt lat="44.51458" lon="6.68849">
        <ele>2458.23</ele>
        <time>2011-03-21T09:21:36Z</time>
      </trkpt>
      <trkpt lat="44.51458" lon="6.68849">
        <ele>2458.23</ele>
        <time>2011-03-21T09:22:09Z</time>
      </trkpt>
      <trkpt lat="44.51459" lon="6.68849">
        <ele>2457.75</ele>
        <time>2011-03-21T09:22:42Z</time>
      </trkpt>
      <trkpt lat="44.51459" lon="6.68848">
        <ele>2457.75</ele>
        <time>2011-03-21T09:23:14Z</time>
      </trkpt>
      <trkpt lat="44.51459" lon="6.68849">
        <ele>2457.27</ele>
        <time>2011-03-21T09:23:49Z</time>
      </trkpt>
      <trkpt lat="44.51459" lon="6.68849">
        <ele>2457.75</ele>
        <time>2011-03-21T09:24:09Z</time>
      </trkpt>
      <trkpt lat="44.51458" lon="6.68849">
        <ele>2457.75</ele>
        <time>2011-03-21T09:24:35Z</time>
      </trkpt>
      <trkpt lat="44.51458" lon="6.68849">
        <ele>2457.27</ele>
        <time>2011-03-21T09:24:56Z</time>
      </trkpt>
      <trkpt lat="44.51458" lon="6.68849">
        <ele>2457.27</ele>
        <time>2011-03-21T09:25:26Z</time>
      </trkpt>
      <trkpt lat="44.51458" lon="6.68849">
        <ele>2457.75</ele>
        <time>2011-03-21T09:25:58Z</time>
      </trkpt>
      <trkpt lat="44.51459" lon="6.68849">
        <ele>2457.27</ele>
        <time>2011-03-21T09:26:33Z</time>
      </trkpt>
      <trkpt lat="44.51459" lon="6.68849">
        <ele>2456.79</ele>
        <time>2011-03-21T09:27:07Z</time>
      </trkpt>
      <trkpt lat="44.51458" lon="6.68849">
        <ele>2456.79</ele>
        <time>2011-03-21T09:27:40Z</time>
      </trkpt>
      <trkpt lat="44.51458" lon="6.68853">
        <ele>2457.75</ele>
        <time>2011-03-21T09:27:58Z</time>
      </trkpt>
      <trkpt lat="44.51458" lon="6.68853">
        <ele>2457.75</ele>
        <time>2011-03-21T09:28:27Z</time>
      </trkpt>
      <trkpt lat="44.51458" lon="6.68852">
        <ele>2457.27</ele>
        <time>2011-03-21T09:28:54Z</time>
      </trkpt>
      <trkpt lat="44.51458" lon="6.68851">
        <ele>2457.27</ele>
        <time>2011-03-21T09:29:10Z</time>
      </trkpt>
      <trkpt lat="44.51459" lon="6.68851">
        <ele>2457.75</ele>
        <time>2011-03-21T09:29:23Z</time>
      </trkpt>
      <trkpt lat="44.51459" lon="6.68859">
        <ele>2458.23</ele>
        <time>2011-03-21T09:29:35Z</time>
      </trkpt>
      <trkpt lat="44.51458" lon="6.68857">
        <ele>2458.23</ele>
        <time>2011-03-21T09:29:48Z</time>
      </trkpt>
      <trkpt lat="44.51458" lon="6.68857">
        <ele>2457.27</ele>
        <time>2011-03-21T09:30:08Z</time>
      </trkpt>
      <trkpt lat="44.51459" lon="6.68856">
        <ele>2456.79</ele>
        <time>2011-03-21T09:30:23Z</time>
      </trkpt>
      <trkpt lat="44.51458" lon="6.68856">
        <ele>2456.79</ele>
        <time>2011-03-21T09:30:38Z</time>
      </trkpt>
      <trkpt lat="44.51458" lon="6.68856">
        <ele>2456.31</ele>
        <time>2011-03-21T09:30:57Z</time>
      </trkpt>
      <trkpt lat="44.51458" lon="6.68856">
        <ele>2452.94</ele>
        <time>2011-03-21T09:31:14Z</time>
      </trkpt>
      <trkpt lat="44.51458" lon="6.68856">
        <ele>2456.31</ele>
        <time>2011-03-21T09:31:15Z</time>
      </trkpt>
      <trkpt lat="44.51458" lon="6.68856">
        <ele>2456.31</ele>
        <time>2011-03-21T09:31:48Z</time>
      </trkpt>
      <trkpt lat="44.51458" lon="6.68855">
        <ele>2456.79</ele>
        <time>2011-03-21T09:32:21Z</time>
      </trkpt>
      <trkpt lat="44.51458" lon="6.68855">
        <ele>2456.31</ele>
        <time>2011-03-21T09:32:51Z</time>
      </trkpt>
      <trkpt lat="44.51458" lon="6.68855">
        <ele>2452.94</ele>
        <time>2011-03-21T09:32:54Z</time>
      </trkpt>
      <trkpt lat="44.51458" lon="6.68855">
        <ele>2453.9</ele>
        <time>2011-03-21T09:32:55Z</time>
      </trkpt>
      <trkpt lat="44.51458" lon="6.68855">
        <ele>2456.31</ele>
        <time>2011-03-21T09:32:57Z</time>
      </trkpt>
      <trkpt lat="44.51458" lon="6.68856">
        <ele>2452.94</ele>
        <time>2011-03-21T09:33:24Z</time>
      </trkpt>
      <trkpt lat="44.51458" lon="6.68856">
        <ele>2460.63</ele>
        <time>2011-03-21T09:33:25Z</time>
      </trkpt>
      <trkpt lat="44.51458" lon="6.68856">
        <ele>2456.31</ele>
        <time>2011-03-21T09:33:26Z</time>
      </trkpt>
      <trkpt lat="44.51458" lon="6.68856">
        <ele>2456.31</ele>
        <time>2011-03-21T09:34:05Z</time>
      </trkpt>
      <trkpt lat="44.51458" lon="6.68855">
        <ele>2455.34</ele>
        <time>2011-03-21T09:34:41Z</time>
      </trkpt>
      <trkpt lat="44.51458" lon="6.68855">
        <ele>2462.55</ele>
        <time>2011-03-21T09:35:03Z</time>
      </trkpt>
      <trkpt lat="44.51458" lon="6.68855">
        <ele>2456.31</ele>
        <time>2011-03-21T09:35:04Z</time>
      </trkpt>
      <trkpt lat="44.51458" lon="6.68856">
        <ele>2455.34</ele>
        <time>2011-03-21T09:35:29Z</time>
      </trkpt>
      <trkpt lat="44.51458" lon="6.68856">
        <ele>2456.79</ele>
        <time>2011-03-21T09:35:48Z</time>
      </trkpt>
      <trkpt lat="44.51458" lon="6.68855">
        <ele>2456.79</ele>
        <time>2011-03-21T09:36:01Z</time>
      </trkpt>
      <trkpt lat="44.51459" lon="6.68856">
        <ele>2456.79</ele>
        <time>2011-03-21T09:36:10Z</time>
      </trkpt>
      <trkpt lat="44.51461" lon="6.68865">
        <ele>2455.82</ele>
        <time>2011-03-21T09:36:16Z</time>
      </trkpt>
      <trkpt lat="44.51462" lon="6.68869">
        <ele>2455.34</ele>
        <time>2011-03-21T09:36:29Z</time>
      </trkpt>
      <trkpt lat="44.51462" lon="6.68869">
        <ele>2455.82</ele>
        <time>2011-03-21T09:36:54Z</time>
      </trkpt>
      <trkpt lat="44.51468" lon="6.68869">
        <ele>2454.38</ele>
        <time>2011-03-21T09:37:15Z</time>
      </trkpt>
      <trkpt lat="44.51479" lon="6.68874">
        <ele>2451.98</ele>
        <time>2011-03-21T09:37:22Z</time>
      </trkpt>
      <trkpt lat="44.51482" lon="6.68878">
        <ele>2451.02</ele>
        <time>2011-03-21T09:37:34Z</time>
      </trkpt>
      <trkpt lat="44.51483" lon="6.68881">
        <ele>2451.02</ele>
        <time>2011-03-21T09:37:50Z</time>
      </trkpt>
      <trkpt lat="44.51485" lon="6.68884">
        <ele>2449.58</ele>
        <time>2011-03-21T09:38:05Z</time>
      </trkpt>
      <trkpt lat="44.51485" lon="6.68886">
        <ele>2448.62</ele>
        <time>2011-03-21T09:38:08Z</time>
      </trkpt>
      <trkpt lat="44.51486" lon="6.68893">
        <ele>2444.77</ele>
        <time>2011-03-21T09:38:12Z</time>
      </trkpt>
      <trkpt lat="44.5149" lon="6.68902">
        <ele>2441.41</ele>
        <time>2011-03-21T09:38:15Z</time>
      </trkpt>
      <trkpt lat="44.51489" lon="6.68904">
        <ele>2439.96</ele>
        <time>2011-03-21T09:38:16Z</time>
      </trkpt>
      <trkpt lat="44.51487" lon="6.68914">
        <ele>2435.16</ele>
        <time>2011-03-21T09:38:19Z</time>
      </trkpt>
      <trkpt lat="44.51485" lon="6.68917">
        <ele>2432.27</ele>
        <time>2011-03-21T09:38:20Z</time>
      </trkpt>
      <trkpt lat="44.51485" lon="6.6892">
        <ele>2428.91</ele>
        <time>2011-03-21T09:38:21Z</time>
      </trkpt>
      <trkpt lat="44.51483" lon="6.68927">
        <ele>2426.02</ele>
        <time>2011-03-21T09:38:23Z</time>
      </trkpt>
      <trkpt lat="44.51479" lon="6.68935">
        <ele>2422.18</ele>
        <time>2011-03-21T09:38:25Z</time>
      </trkpt>
      <trkpt lat="44.51479" lon="6.68948">
        <ele>2418.33</ele>
        <time>2011-03-21T09:38:27Z</time>
      </trkpt>
      <trkpt lat="44.51481" lon="6.6896">
        <ele>2414.01</ele>
        <time>2011-03-21T09:38:29Z</time>
      </trkpt>
      <trkpt lat="44.51479" lon="6.68973">
        <ele>2409.68</ele>
        <time>2011-03-21T09:38:31Z</time>
      </trkpt>
      <trkpt lat="44.51466" lon="6.68987">
        <ele>2404.39</ele>
        <time>2011-03-21T09:38:34Z</time>
      </trkpt>
      <trkpt lat="44.51444" lon="6.68994">
        <ele>2400.55</ele>
        <time>2011-03-21T09:38:37Z</time>
      </trkpt>
      <trkpt lat="44.51415" lon="6.68997">
        <ele>2397.18</ele>
        <time>2011-03-21T09:38:40Z</time>
      </trkpt>
      <trkpt lat="44.51405" lon="6.69002">
        <ele>2396.22</ele>
        <time>2011-03-21T09:38:41Z</time>
      </trkpt>
      <trkpt lat="44.51356" lon="6.69015">
        <ele>2391.42</ele>
        <time>2011-03-21T09:38:45Z</time>
      </trkpt>
      <trkpt lat="44.51339" lon="6.69019">
        <ele>2389.49</ele>
        <time>2011-03-21T09:38:47Z</time>
      </trkpt>
      <trkpt lat="44.51327" lon="6.69019">
        <ele>2385.17</ele>
        <time>2011-03-21T09:38:55Z</time>
      </trkpt>
      <trkpt lat="44.51328" lon="6.69013">
        <ele>2385.17</ele>
        <time>2011-03-21T09:39:05Z</time>
      </trkpt>
      <trkpt lat="44.51328" lon="6.69013">
        <ele>2384.69</ele>
        <time>2011-03-21T09:39:18Z</time>
      </trkpt>
      <trkpt lat="44.51324" lon="6.69018">
        <ele>2384.21</ele>
        <time>2011-03-21T09:39:22Z</time>
      </trkpt>
      <trkpt lat="44.51321" lon="6.69018">
        <ele>2383.73</ele>
        <time>2011-03-21T09:39:37Z</time>
      </trkpt>
      <trkpt lat="44.51321" lon="6.6902">
        <ele>2383.73</ele>
        <time>2011-03-21T09:40:05Z</time>
      </trkpt>
      <trkpt lat="44.51315" lon="6.69023">
        <ele>2381.32</ele>
        <time>2011-03-21T09:40:12Z</time>
      </trkpt>
      <trkpt lat="44.51306" lon="6.69029">
        <ele>2378.44</ele>
        <time>2011-03-21T09:40:16Z</time>
      </trkpt>
      <trkpt lat="44.51303" lon="6.69039">
        <ele>2374.59</ele>
        <time>2011-03-21T09:40:18Z</time>
      </trkpt>
      <trkpt lat="44.51302" lon="6.69049">
        <ele>2370.75</ele>
        <time>2011-03-21T09:40:20Z</time>
      </trkpt>
      <trkpt lat="44.51296" lon="6.69055">
        <ele>2366.42</ele>
        <time>2011-03-21T09:40:22Z</time>
      </trkpt>
      <trkpt lat="44.51292" lon="6.69064">
        <ele>2361.14</ele>
        <time>2011-03-21T09:40:24Z</time>
      </trkpt>
      <trkpt lat="44.5129" lon="6.69067">
        <ele>2358.25</ele>
        <time>2011-03-21T09:40:25Z</time>
      </trkpt>
      <trkpt lat="44.51287" lon="6.69071">
        <ele>2354.89</ele>
        <time>2011-03-21T09:40:26Z</time>
      </trkpt>
      <trkpt lat="44.51286" lon="6.69074">
        <ele>2352.96</ele>
        <time>2011-03-21T09:40:32Z</time>
      </trkpt>
      <trkpt lat="44.51286" lon="6.69074">
        <ele>2352.96</ele>
        <time>2011-03-21T09:41:07Z</time>
      </trkpt>
      <trkpt lat="44.51286" lon="6.69074">
        <ele>2352.48</ele>
        <time>2011-03-21T09:41:09Z</time>
      </trkpt>
      <trkpt lat="44.51281" lon="6.69072">
        <ele>2352</ele>
        <time>2011-03-21T09:41:11Z</time>
      </trkpt>
      <trkpt lat="44.51257" lon="6.69066">
        <ele>2348.16</ele>
        <time>2011-03-21T09:41:15Z</time>
      </trkpt>
      <trkpt lat="44.51237" lon="6.69062">
        <ele>2342.87</ele>
        <time>2011-03-21T09:41:18Z</time>
      </trkpt>
      <trkpt lat="44.5123" lon="6.6906">
        <ele>2339.99</ele>
        <time>2011-03-21T09:41:19Z</time>
      </trkpt>
      <trkpt lat="44.51215" lon="6.69057">
        <ele>2335.66</ele>
        <time>2011-03-21T09:41:21Z</time>
      </trkpt>
      <trkpt lat="44.51204" lon="6.69052">
        <ele>2335.66</ele>
        <time>2011-03-21T09:41:23Z</time>
      </trkpt>
      <trkpt lat="44.51179" lon="6.69044">
        <ele>2333.26</ele>
        <time>2011-03-21T09:41:28Z</time>
      </trkpt>
      <trkpt lat="44.51139" lon="6.6903">
        <ele>2329.41</ele>
        <time>2011-03-21T09:41:36Z</time>
      </trkpt>
      <trkpt lat="44.51114" lon="6.69019">
        <ele>2327.49</ele>
        <time>2011-03-21T09:41:41Z</time>
      </trkpt>
      <trkpt lat="44.51109" lon="6.69017">
        <ele>2327.01</ele>
        <time>2011-03-21T09:41:42Z</time>
      </trkpt>
      <trkpt lat="44.51079" lon="6.69012">
        <ele>2323.64</ele>
        <time>2011-03-21T09:41:50Z</time>
      </trkpt>
      <trkpt lat="44.51079" lon="6.69013">
        <ele>2323.16</ele>
        <time>2011-03-21T09:41:53Z</time>
      </trkpt>
      <trkpt lat="44.51073" lon="6.69013">
        <ele>2321.24</ele>
        <time>2011-03-21T09:41:56Z</time>
      </trkpt>
      <trkpt lat="44.5107" lon="6.69019">
        <ele>2316.91</ele>
        <time>2011-03-21T09:41:58Z</time>
      </trkpt>
      <trkpt lat="44.51065" lon="6.69029">
        <ele>2314.03</ele>
        <time>2011-03-21T09:42:00Z</time>
      </trkpt>
      <trkpt lat="44.51053" lon="6.69046">
        <ele>2304.9</ele>
        <time>2011-03-21T09:42:03Z</time>
      </trkpt>
      <trkpt lat="44.51049" lon="6.69049">
        <ele>2302.01</ele>
        <time>2011-03-21T09:42:04Z</time>
      </trkpt>
      <trkpt lat="44.51046" lon="6.69047">
        <ele>2300.57</ele>
        <time>2011-03-21T09:42:06Z</time>
      </trkpt>
      <trkpt lat="44.51044" lon="6.69046">
        <ele>2300.09</ele>
        <time>2011-03-21T09:42:20Z</time>
      </trkpt>
      <trkpt lat="44.51044" lon="6.69046">
        <ele>2300.57</ele>
        <time>2011-03-21T09:42:45Z</time>
      </trkpt>
      <trkpt lat="44.51044" lon="6.69046">
        <ele>2300.09</ele>
        <time>2011-03-21T09:43:04Z</time>
      </trkpt>
      <trkpt lat="44.51045" lon="6.69042">
        <ele>2299.13</ele>
        <time>2011-03-21T09:43:14Z</time>
      </trkpt>
      <trkpt lat="44.51045" lon="6.69042">
        <ele>2299.13</ele>
        <time>2011-03-21T09:43:33Z</time>
      </trkpt>
      <trkpt lat="44.51045" lon="6.69042">
        <ele>2299.13</ele>
        <time>2011-03-21T09:44:16Z</time>
      </trkpt>
      <trkpt lat="44.51045" lon="6.69042">
        <ele>2299.13</ele>
        <time>2011-03-21T09:44:50Z</time>
      </trkpt>
      <trkpt lat="44.51045" lon="6.69042">
        <ele>2299.13</ele>
        <time>2011-03-21T09:45:34Z</time>
      </trkpt>
      <trkpt lat="44.51044" lon="6.69043">
        <ele>2298.17</ele>
        <time>2011-03-21T09:46:10Z</time>
      </trkpt>
      <trkpt lat="44.51045" lon="6.69042">
        <ele>2298.17</ele>
        <time>2011-03-21T09:46:28Z</time>
      </trkpt>
      <trkpt lat="44.51045" lon="6.69042">
        <ele>2299.13</ele>
        <time>2011-03-21T09:46:51Z</time>
      </trkpt>
      <trkpt lat="44.51045" lon="6.69044">
        <ele>2298.65</ele>
        <time>2011-03-21T09:47:05Z</time>
      </trkpt>
      <trkpt lat="44.51044" lon="6.69044">
        <ele>2299.61</ele>
        <time>2011-03-21T09:47:17Z</time>
      </trkpt>
      <trkpt lat="44.51043" lon="6.69043">
        <ele>2300.09</ele>
        <time>2011-03-21T09:47:31Z</time>
      </trkpt>
      <trkpt lat="44.51039" lon="6.69038">
        <ele>2300.57</ele>
        <time>2011-03-21T09:47:40Z</time>
      </trkpt>
      <trkpt lat="44.51033" lon="6.69031">
        <ele>2302.49</ele>
        <time>2011-03-21T09:47:51Z</time>
      </trkpt>
      <trkpt lat="44.51028" lon="6.69025">
        <ele>2304.42</ele>
        <time>2011-03-21T09:48:02Z</time>
      </trkpt>
      <trkpt lat="44.51025" lon="6.69023">
        <ele>2305.38</ele>
        <time>2011-03-21T09:48:06Z</time>
      </trkpt>
      <trkpt lat="44.51016" lon="6.69023">
        <ele>2306.34</ele>
        <time>2011-03-21T09:48:19Z</time>
      </trkpt>
      <trkpt lat="44.51007" lon="6.69018">
        <ele>2308.26</ele>
        <time>2011-03-21T09:48:32Z</time>
      </trkpt>
      <trkpt lat="44.51002" lon="6.69015">
        <ele>2310.19</ele>
        <time>2011-03-21T09:48:45Z</time>
      </trkpt>
      <trkpt lat="44.50994" lon="6.69007">
        <ele>2312.11</ele>
        <time>2011-03-21T09:48:59Z</time>
      </trkpt>
      <trkpt lat="44.50987" lon="6.69003">
        <ele>2314.99</ele>
        <time>2011-03-21T09:49:12Z</time>
      </trkpt>
      <trkpt lat="44.50979" lon="6.68995">
        <ele>2316.91</ele>
        <time>2011-03-21T09:49:26Z</time>
      </trkpt>
      <trkpt lat="44.50971" lon="6.68989">
        <ele>2318.36</ele>
        <time>2011-03-21T09:49:38Z</time>
      </trkpt>
      <trkpt lat="44.50966" lon="6.68987">
        <ele>2319.32</ele>
        <time>2011-03-21T09:49:45Z</time>
      </trkpt>
      <trkpt lat="44.50957" lon="6.68982">
        <ele>2320.76</ele>
        <time>2011-03-21T09:49:58Z</time>
      </trkpt>
      <trkpt lat="44.5095" lon="6.68978">
        <ele>2322.68</ele>
        <time>2011-03-21T09:50:11Z</time>
      </trkpt>
      <trkpt lat="44.50942" lon="6.68972">
        <ele>2324.61</ele>
        <time>2011-03-21T09:50:25Z</time>
      </trkpt>
      <trkpt lat="44.50936" lon="6.68966">
        <ele>2327.01</ele>
        <time>2011-03-21T09:50:39Z</time>
      </trkpt>
      <trkpt lat="44.5093" lon="6.68959">
        <ele>2329.41</ele>
        <time>2011-03-21T09:50:52Z</time>
      </trkpt>
      <trkpt lat="44.50927" lon="6.68955">
        <ele>2331.33</ele>
        <time>2011-03-21T09:51:04Z</time>
      </trkpt>
      <trkpt lat="44.50924" lon="6.68953">
        <ele>2332.3</ele>
        <time>2011-03-21T09:51:09Z</time>
      </trkpt>
      <trkpt lat="44.50917" lon="6.68945">
        <ele>2334.22</ele>
        <time>2011-03-21T09:51:22Z</time>
      </trkpt>
      <trkpt lat="44.5091" lon="6.68937">
        <ele>2337.1</ele>
        <time>2011-03-21T09:51:36Z</time>
      </trkpt>
      <trkpt lat="44.50902" lon="6.68928">
        <ele>2337.58</ele>
        <time>2011-03-21T09:51:51Z</time>
      </trkpt>
      <trkpt lat="44.50901" lon="6.68927">
        <ele>2338.06</ele>
        <time>2011-03-21T09:51:53Z</time>
      </trkpt>
      <trkpt lat="44.50892" lon="6.68911">
        <ele>2337.1</ele>
        <time>2011-03-21T09:52:06Z</time>
      </trkpt>
      <trkpt lat="44.5089" lon="6.6891">
        <ele>2337.58</ele>
        <time>2011-03-21T09:52:09Z</time>
      </trkpt>
      <trkpt lat="44.50888" lon="6.68905">
        <ele>2338.06</ele>
        <time>2011-03-21T09:52:13Z</time>
      </trkpt>
      <trkpt lat="44.50887" lon="6.68902">
        <ele>2337.58</ele>
        <time>2011-03-21T09:52:15Z</time>
      </trkpt>
      <trkpt lat="44.50884" lon="6.68897">
        <ele>2337.1</ele>
        <time>2011-03-21T09:52:20Z</time>
      </trkpt>
      <trkpt lat="44.50879" lon="6.68882">
        <ele>2337.1</ele>
        <time>2011-03-21T09:52:33Z</time>
      </trkpt>
      <trkpt lat="44.50876" lon="6.68873">
        <ele>2338.06</ele>
        <time>2011-03-21T09:52:41Z</time>
      </trkpt>
      <trkpt lat="44.50875" lon="6.6887">
        <ele>2338.06</ele>
        <time>2011-03-21T09:52:44Z</time>
      </trkpt>
      <trkpt lat="44.50871" lon="6.68861">
        <ele>2339.51</ele>
        <time>2011-03-21T09:52:53Z</time>
      </trkpt>
      <trkpt lat="44.5087" lon="6.68859">
        <ele>2339.51</ele>
        <time>2011-03-21T09:52:55Z</time>
      </trkpt>
      <trkpt lat="44.50869" lon="6.68856">
        <ele>2340.47</ele>
        <time>2011-03-21T09:52:58Z</time>
      </trkpt>
      <trkpt lat="44.50868" lon="6.68853">
        <ele>2340.47</ele>
        <time>2011-03-21T09:53:01Z</time>
      </trkpt>
      <trkpt lat="44.50864" lon="6.68842">
        <ele>2341.91</ele>
        <time>2011-03-21T09:53:14Z</time>
      </trkpt>
      <trkpt lat="44.50861" lon="6.68825">
        <ele>2343.83</ele>
        <time>2011-03-21T09:53:29Z</time>
      </trkpt>
      <trkpt lat="44.50857" lon="6.68814">
        <ele>2345.75</ele>
        <time>2011-03-21T09:53:42Z</time>
      </trkpt>
      <trkpt lat="44.50851" lon="6.68804">
        <ele>2347.2</ele>
        <time>2011-03-21T09:53:56Z</time>
      </trkpt>
      <trkpt lat="44.50846" lon="6.68792">
        <ele>2348.64</ele>
        <time>2011-03-21T09:54:11Z</time>
      </trkpt>
      <trkpt lat="44.50841" lon="6.68782">
        <ele>2350.08</ele>
        <time>2011-03-21T09:54:23Z</time>
      </trkpt>
      <trkpt lat="44.50835" lon="6.68777">
        <ele>2351.52</ele>
        <time>2011-03-21T09:54:33Z</time>
      </trkpt>
      <trkpt lat="44.50832" lon="6.68764">
        <ele>2352.96</ele>
        <time>2011-03-21T09:54:46Z</time>
      </trkpt>
      <trkpt lat="44.50828" lon="6.68752">
        <ele>2354.41</ele>
        <time>2011-03-21T09:54:59Z</time>
      </trkpt>
      <trkpt lat="44.50826" lon="6.68743">
        <ele>2355.85</ele>
        <time>2011-03-21T09:55:10Z</time>
      </trkpt>
      <trkpt lat="44.50821" lon="6.68732">
        <ele>2357.29</ele>
        <time>2011-03-21T09:55:23Z</time>
      </trkpt>
      <trkpt lat="44.50814" lon="6.68721">
        <ele>2359.69</ele>
        <time>2011-03-21T09:55:37Z</time>
      </trkpt>
      <trkpt lat="44.5081" lon="6.68713">
        <ele>2361.14</ele>
        <time>2011-03-21T09:55:50Z</time>
      </trkpt>
      <trkpt lat="44.50806" lon="6.68707">
        <ele>2363.06</ele>
        <time>2011-03-21T09:56:01Z</time>
      </trkpt>
      <trkpt lat="44.50799" lon="6.687">
        <ele>2364.5</ele>
        <time>2011-03-21T09:56:16Z</time>
      </trkpt>
      <trkpt lat="44.50794" lon="6.68694">
        <ele>2365.94</ele>
        <time>2011-03-21T09:56:28Z</time>
      </trkpt>
      <trkpt lat="44.5079" lon="6.68684">
        <ele>2368.83</ele>
        <time>2011-03-21T09:56:42Z</time>
      </trkpt>
      <trkpt lat="44.50786" lon="6.68673">
        <ele>2369.31</ele>
        <time>2011-03-21T09:56:55Z</time>
      </trkpt>
      <trkpt lat="44.50782" lon="6.68667">
        <ele>2370.75</ele>
        <time>2011-03-21T09:57:07Z</time>
      </trkpt>
      <trkpt lat="44.50777" lon="6.68659">
        <ele>2372.19</ele>
        <time>2011-03-21T09:57:19Z</time>
      </trkpt>
      <trkpt lat="44.50774" lon="6.6865">
        <ele>2374.59</ele>
        <time>2011-03-21T09:57:32Z</time>
      </trkpt>
      <trkpt lat="44.5077" lon="6.6864">
        <ele>2376.04</ele>
        <time>2011-03-21T09:57:46Z</time>
      </trkpt>
      <trkpt lat="44.50766" lon="6.68634">
        <ele>2377.96</ele>
        <time>2011-03-21T09:57:58Z</time>
      </trkpt>
      <trkpt lat="44.50762" lon="6.68624">
        <ele>2379.4</ele>
        <time>2011-03-21T09:58:11Z</time>
      </trkpt>
      <trkpt lat="44.50758" lon="6.68616">
        <ele>2381.32</ele>
        <time>2011-03-21T09:58:23Z</time>
      </trkpt>
      <trkpt lat="44.50755" lon="6.68613">
        <ele>2381.8</ele>
        <time>2011-03-21T09:58:28Z</time>
      </trkpt>
      <trkpt lat="44.50753" lon="6.68605">
        <ele>2383.25</ele>
        <time>2011-03-21T09:58:37Z</time>
      </trkpt>
      <trkpt lat="44.50751" lon="6.68597">
        <ele>2384.69</ele>
        <time>2011-03-21T09:58:50Z</time>
      </trkpt>
      <trkpt lat="44.50746" lon="6.68588">
        <ele>2386.61</ele>
        <time>2011-03-21T09:59:04Z</time>
      </trkpt>
      <trkpt lat="44.5074" lon="6.6858">
        <ele>2388.53</ele>
        <time>2011-03-21T09:59:16Z</time>
      </trkpt>
      <trkpt lat="44.50736" lon="6.68573">
        <ele>2390.46</ele>
        <time>2011-03-21T09:59:28Z</time>
      </trkpt>
      <trkpt lat="44.50732" lon="6.68568">
        <ele>2392.38</ele>
        <time>2011-03-21T09:59:41Z</time>
      </trkpt>
      <trkpt lat="44.50728" lon="6.68561">
        <ele>2394.3</ele>
        <time>2011-03-21T09:59:54Z</time>
      </trkpt>
      <trkpt lat="44.50721" lon="6.68554">
        <ele>2395.74</ele>
        <time>2011-03-21T10:00:07Z</time>
      </trkpt>
      <trkpt lat="44.50716" lon="6.68546">
        <ele>2397.67</ele>
        <time>2011-03-21T10:00:21Z</time>
      </trkpt>
      <trkpt lat="44.50711" lon="6.68542">
        <ele>2400.55</ele>
        <time>2011-03-21T10:00:35Z</time>
      </trkpt>
      <trkpt lat="44.50706" lon="6.68534">
        <ele>2401.51</ele>
        <time>2011-03-21T10:00:48Z</time>
      </trkpt>
      <trkpt lat="44.50701" lon="6.68527">
        <ele>2403.91</ele>
        <time>2011-03-21T10:01:01Z</time>
      </trkpt>
      <trkpt lat="44.50698" lon="6.68519">
        <ele>2405.84</ele>
        <time>2011-03-21T10:01:13Z</time>
      </trkpt>
      <trkpt lat="44.50694" lon="6.68511">
        <ele>2407.28</ele>
        <time>2011-03-21T10:01:25Z</time>
      </trkpt>
      <trkpt lat="44.50689" lon="6.68505">
        <ele>2408.72</ele>
        <time>2011-03-21T10:01:37Z</time>
      </trkpt>
      <trkpt lat="44.50682" lon="6.68498">
        <ele>2410.64</ele>
        <time>2011-03-21T10:01:50Z</time>
      </trkpt>
      <trkpt lat="44.50679" lon="6.68494">
        <ele>2412.57</ele>
        <time>2011-03-21T10:02:00Z</time>
      </trkpt>
      <trkpt lat="44.50675" lon="6.68491">
        <ele>2414.97</ele>
        <time>2011-03-21T10:02:13Z</time>
      </trkpt>
      <trkpt lat="44.5067" lon="6.68482">
        <ele>2415.93</ele>
        <time>2011-03-21T10:02:24Z</time>
      </trkpt>
      <trkpt lat="44.50665" lon="6.68476">
        <ele>2417.85</ele>
        <time>2011-03-21T10:02:37Z</time>
      </trkpt>
      <trkpt lat="44.5066" lon="6.68467">
        <ele>2419.3</ele>
        <time>2011-03-21T10:02:49Z</time>
      </trkpt>
      <trkpt lat="44.50656" lon="6.68462">
        <ele>2420.74</ele>
        <time>2011-03-21T10:03:00Z</time>
      </trkpt>
      <trkpt lat="44.50651" lon="6.68456">
        <ele>2422.66</ele>
        <time>2011-03-21T10:03:14Z</time>
      </trkpt>
      <trkpt lat="44.50647" lon="6.6845">
        <ele>2425.06</ele>
        <time>2011-03-21T10:03:27Z</time>
      </trkpt>
      <trkpt lat="44.50643" lon="6.68449">
        <ele>2426.02</ele>
        <time>2011-03-21T10:03:42Z</time>
      </trkpt>
      <trkpt lat="44.50638" lon="6.68444">
        <ele>2426.99</ele>
        <time>2011-03-21T10:04:04Z</time>
      </trkpt>
      <trkpt lat="44.50636" lon="6.68441">
        <ele>2428.91</ele>
        <time>2011-03-21T10:04:17Z</time>
      </trkpt>
      <trkpt lat="44.5063" lon="6.68428">
        <ele>2430.83</ele>
        <time>2011-03-21T10:04:29Z</time>
      </trkpt>
      <trkpt lat="44.50626" lon="6.68422">
        <ele>2432.27</ele>
        <time>2011-03-21T10:04:41Z</time>
      </trkpt>
      <trkpt lat="44.5062" lon="6.68417">
        <ele>2433.71</ele>
        <time>2011-03-21T10:04:54Z</time>
      </trkpt>
      <trkpt lat="44.50613" lon="6.6841">
        <ele>2435.16</ele>
        <time>2011-03-21T10:05:05Z</time>
      </trkpt>
      <trkpt lat="44.50611" lon="6.68404">
        <ele>2437.56</ele>
        <time>2011-03-21T10:05:16Z</time>
      </trkpt>
      <trkpt lat="44.50607" lon="6.68399">
        <ele>2439</ele>
        <time>2011-03-21T10:05:28Z</time>
      </trkpt>
      <trkpt lat="44.506" lon="6.68393">
        <ele>2441.41</ele>
        <time>2011-03-21T10:05:41Z</time>
      </trkpt>
      <trkpt lat="44.50594" lon="6.68388">
        <ele>2443.33</ele>
        <time>2011-03-21T10:05:55Z</time>
      </trkpt>
      <trkpt lat="44.50588" lon="6.68385">
        <ele>2445.25</ele>
        <time>2011-03-21T10:06:07Z</time>
      </trkpt>
      <trkpt lat="44.50583" lon="6.68381">
        <ele>2446.21</ele>
        <time>2011-03-21T10:06:20Z</time>
      </trkpt>
      <trkpt lat="44.50583" lon="6.68381">
        <ele>2447.17</ele>
        <time>2011-03-21T10:06:34Z</time>
      </trkpt>
      <trkpt lat="44.50579" lon="6.68377">
        <ele>2448.62</ele>
        <time>2011-03-21T10:06:44Z</time>
      </trkpt>
      <trkpt lat="44.50574" lon="6.68371">
        <ele>2450.06</ele>
        <time>2011-03-21T10:06:55Z</time>
      </trkpt>
      <trkpt lat="44.50569" lon="6.68367">
        <ele>2451.98</ele>
        <time>2011-03-21T10:07:07Z</time>
      </trkpt>
      <trkpt lat="44.50564" lon="6.68365">
        <ele>2453.9</ele>
        <time>2011-03-21T10:07:19Z</time>
      </trkpt>
      <trkpt lat="44.50558" lon="6.68358">
        <ele>2455.34</ele>
        <time>2011-03-21T10:07:32Z</time>
      </trkpt>
      <trkpt lat="44.50552" lon="6.68352">
        <ele>2458.23</ele>
        <time>2011-03-21T10:07:46Z</time>
      </trkpt>
      <trkpt lat="44.50549" lon="6.68345">
        <ele>2460.15</ele>
        <time>2011-03-21T10:07:57Z</time>
      </trkpt>
      <trkpt lat="44.50545" lon="6.68343">
        <ele>2461.11</ele>
        <time>2011-03-21T10:08:09Z</time>
      </trkpt>
      <trkpt lat="44.50543" lon="6.68338">
        <ele>2462.55</ele>
        <time>2011-03-21T10:08:19Z</time>
      </trkpt>
      <trkpt lat="44.50538" lon="6.6833">
        <ele>2464.48</ele>
        <time>2011-03-21T10:08:31Z</time>
      </trkpt>
      <trkpt lat="44.50532" lon="6.68326">
        <ele>2465.92</ele>
        <time>2011-03-21T10:08:44Z</time>
      </trkpt>
      <trkpt lat="44.50525" lon="6.68323">
        <ele>2467.84</ele>
        <time>2011-03-21T10:08:56Z</time>
      </trkpt>
      <trkpt lat="44.50523" lon="6.6832">
        <ele>2468.32</ele>
        <time>2011-03-21T10:09:02Z</time>
      </trkpt>
      <trkpt lat="44.50512" lon="6.68314">
        <ele>2468.8</ele>
        <time>2011-03-21T10:09:16Z</time>
      </trkpt>
      <trkpt lat="44.5051" lon="6.68313">
        <ele>2470.73</ele>
        <time>2011-03-21T10:09:27Z</time>
      </trkpt>
      <trkpt lat="44.50502" lon="6.68308">
        <ele>2472.65</ele>
        <time>2011-03-21T10:09:39Z</time>
      </trkpt>
      <trkpt lat="44.50495" lon="6.68303">
        <ele>2474.57</ele>
        <time>2011-03-21T10:09:52Z</time>
      </trkpt>
      <trkpt lat="44.50491" lon="6.68302">
        <ele>2476.49</ele>
        <time>2011-03-21T10:10:04Z</time>
      </trkpt>
      <trkpt lat="44.50484" lon="6.68299">
        <ele>2477.94</ele>
        <time>2011-03-21T10:10:17Z</time>
      </trkpt>
      <trkpt lat="44.50478" lon="6.68298">
        <ele>2480.34</ele>
        <time>2011-03-21T10:10:29Z</time>
      </trkpt>
      <trkpt lat="44.50473" lon="6.68296">
        <ele>2482.26</ele>
        <time>2011-03-21T10:10:40Z</time>
      </trkpt>
      <trkpt lat="44.50466" lon="6.68296">
        <ele>2484.18</ele>
        <time>2011-03-21T10:10:54Z</time>
      </trkpt>
      <trkpt lat="44.50462" lon="6.68294">
        <ele>2485.63</ele>
        <time>2011-03-21T10:11:08Z</time>
      </trkpt>
      <trkpt lat="44.50458" lon="6.68292">
        <ele>2487.07</ele>
        <time>2011-03-21T10:11:24Z</time>
      </trkpt>
      <trkpt lat="44.50454" lon="6.6829">
        <ele>2488.51</ele>
        <time>2011-03-21T10:11:37Z</time>
      </trkpt>
      <trkpt lat="44.50448" lon="6.68283">
        <ele>2489.95</ele>
        <time>2011-03-21T10:11:48Z</time>
      </trkpt>
      <trkpt lat="44.50444" lon="6.6828">
        <ele>2491.87</ele>
        <time>2011-03-21T10:11:59Z</time>
      </trkpt>
      <trkpt lat="44.50441" lon="6.68276">
        <ele>2493.8</ele>
        <time>2011-03-21T10:12:10Z</time>
      </trkpt>
      <trkpt lat="44.50439" lon="6.68272">
        <ele>2495.24</ele>
        <time>2011-03-21T10:12:22Z</time>
      </trkpt>
      <trkpt lat="44.50434" lon="6.68263">
        <ele>2497.64</ele>
        <time>2011-03-21T10:12:34Z</time>
      </trkpt>
      <trkpt lat="44.50429" lon="6.68255">
        <ele>2498.6</ele>
        <time>2011-03-21T10:12:46Z</time>
      </trkpt>
      <trkpt lat="44.50425" lon="6.68245">
        <ele>2500.05</ele>
        <time>2011-03-21T10:12:58Z</time>
      </trkpt>
      <trkpt lat="44.50424" lon="6.68237">
        <ele>2501.97</ele>
        <time>2011-03-21T10:13:10Z</time>
      </trkpt>
      <trkpt lat="44.50419" lon="6.68229">
        <ele>2503.89</ele>
        <time>2011-03-21T10:13:23Z</time>
      </trkpt>
      <trkpt lat="44.50417" lon="6.68224">
        <ele>2505.33</ele>
        <time>2011-03-21T10:13:34Z</time>
      </trkpt>
      <trkpt lat="44.50413" lon="6.68217">
        <ele>2506.29</ele>
        <time>2011-03-21T10:13:42Z</time>
      </trkpt>
      <trkpt lat="44.50407" lon="6.68209">
        <ele>2507.26</ele>
        <time>2011-03-21T10:13:54Z</time>
      </trkpt>
      <trkpt lat="44.50402" lon="6.68203">
        <ele>2509.18</ele>
        <time>2011-03-21T10:14:06Z</time>
      </trkpt>
      <trkpt lat="44.50396" lon="6.68197">
        <ele>2510.14</ele>
        <time>2011-03-21T10:14:17Z</time>
      </trkpt>
      <trkpt lat="44.50388" lon="6.68191">
        <ele>2512.54</ele>
        <time>2011-03-21T10:14:30Z</time>
      </trkpt>
      <trkpt lat="44.50383" lon="6.68188">
        <ele>2513.98</ele>
        <time>2011-03-21T10:14:42Z</time>
      </trkpt>
      <trkpt lat="44.50376" lon="6.68185">
        <ele>2515.91</ele>
        <time>2011-03-21T10:14:54Z</time>
      </trkpt>
      <trkpt lat="44.5037" lon="6.68185">
        <ele>2517.83</ele>
        <time>2011-03-21T10:15:07Z</time>
      </trkpt>
      <trkpt lat="44.50364" lon="6.68184">
        <ele>2519.75</ele>
        <time>2011-03-21T10:15:21Z</time>
      </trkpt>
      <trkpt lat="44.50358" lon="6.68184">
        <ele>2522.64</ele>
        <time>2011-03-21T10:15:32Z</time>
      </trkpt>
      <trkpt lat="44.50355" lon="6.68186">
        <ele>2523.12</ele>
        <time>2011-03-21T10:15:39Z</time>
      </trkpt>
      <trkpt lat="44.5035" lon="6.68192">
        <ele>2525.04</ele>
        <time>2011-03-21T10:15:50Z</time>
      </trkpt>
      <trkpt lat="44.50344" lon="6.68196">
        <ele>2526.48</ele>
        <time>2011-03-21T10:16:00Z</time>
      </trkpt>
      <trkpt lat="44.5034" lon="6.68201">
        <ele>2527.92</ele>
        <time>2011-03-21T10:16:11Z</time>
      </trkpt>
      <trkpt lat="44.50334" lon="6.68208">
        <ele>2529.85</ele>
        <time>2011-03-21T10:16:24Z</time>
      </trkpt>
      <trkpt lat="44.5033" lon="6.68214">
        <ele>2531.29</ele>
        <time>2011-03-21T10:16:36Z</time>
      </trkpt>
      <trkpt lat="44.50325" lon="6.68218">
        <ele>2533.21</ele>
        <time>2011-03-21T10:16:48Z</time>
      </trkpt>
      <trkpt lat="44.50325" lon="6.68218">
        <ele>2533.21</ele>
        <time>2011-03-21T10:17:09Z</time>
      </trkpt>
      <trkpt lat="44.50325" lon="6.68218">
        <ele>2532.73</ele>
        <time>2011-03-21T10:17:40Z</time>
      </trkpt>
      <trkpt lat="44.50325" lon="6.68218">
        <ele>2532.25</ele>
        <time>2011-03-21T10:18:16Z</time>
      </trkpt>
      <trkpt lat="44.50325" lon="6.68218">
        <ele>2532.25</ele>
        <time>2011-03-21T10:18:47Z</time>
      </trkpt>
      <trkpt lat="44.5032" lon="6.68221">
        <ele>2533.69</ele>
        <time>2011-03-21T10:18:57Z</time>
      </trkpt>
      <trkpt lat="44.50319" lon="6.68226">
        <ele>2532.73</ele>
        <time>2011-03-21T10:19:10Z</time>
      </trkpt>
      <trkpt lat="44.50319" lon="6.68226">
        <ele>2532.73</ele>
        <time>2011-03-21T10:19:43Z</time>
      </trkpt>
      <trkpt lat="44.50319" lon="6.68225">
        <ele>2531.77</ele>
        <time>2011-03-21T10:20:20Z</time>
      </trkpt>
      <trkpt lat="44.50319" lon="6.68225">
        <ele>2531.77</ele>
        <time>2011-03-21T10:20:54Z</time>
      </trkpt>
      <trkpt lat="44.50319" lon="6.68225">
        <ele>2531.77</ele>
        <time>2011-03-21T10:21:03Z</time>
      </trkpt>
      <trkpt lat="44.5032" lon="6.68224">
        <ele>2533.21</ele>
        <time>2011-03-21T10:21:16Z</time>
      </trkpt>
      <trkpt lat="44.50316" lon="6.68226">
        <ele>2533.69</ele>
        <time>2011-03-21T10:21:26Z</time>
      </trkpt>
      <trkpt lat="44.50316" lon="6.68226">
        <ele>2534.17</ele>
        <time>2011-03-21T10:22:01Z</time>
      </trkpt>
      <trkpt lat="44.50314" lon="6.68225">
        <ele>2534.17</ele>
        <time>2011-03-21T10:22:34Z</time>
      </trkpt>
      <trkpt lat="44.5031" lon="6.68226">
        <ele>2535.13</ele>
        <time>2011-03-21T10:22:50Z</time>
      </trkpt>
      <trkpt lat="44.503" lon="6.68231">
        <ele>2537.06</ele>
        <time>2011-03-21T10:23:02Z</time>
      </trkpt>
      <trkpt lat="44.50295" lon="6.68234">
        <ele>2538.98</ele>
        <time>2011-03-21T10:23:13Z</time>
      </trkpt>
      <trkpt lat="44.5029" lon="6.68237">
        <ele>2540.42</ele>
        <time>2011-03-21T10:23:24Z</time>
      </trkpt>
      <trkpt lat="44.50284" lon="6.6824">
        <ele>2542.82</ele>
        <time>2011-03-21T10:23:37Z</time>
      </trkpt>
      <trkpt lat="44.50278" lon="6.68241">
        <ele>2544.27</ele>
        <time>2011-03-21T10:23:49Z</time>
      </trkpt>
      <trkpt lat="44.50272" lon="6.6824">
        <ele>2546.19</ele>
        <time>2011-03-21T10:24:00Z</time>
      </trkpt>
      <trkpt lat="44.50268" lon="6.68238">
        <ele>2548.11</ele>
        <time>2011-03-21T10:24:13Z</time>
      </trkpt>
      <trkpt lat="44.50262" lon="6.6823">
        <ele>2550.51</ele>
        <time>2011-03-21T10:24:26Z</time>
      </trkpt>
      <trkpt lat="44.50257" lon="6.68229">
        <ele>2552.44</ele>
        <time>2011-03-21T10:24:39Z</time>
      </trkpt>
      <trkpt lat="44.50255" lon="6.68228">
        <ele>2554.36</ele>
        <time>2011-03-21T10:24:54Z</time>
      </trkpt>
      <trkpt lat="44.50255" lon="6.68228">
        <ele>2555.8</ele>
        <time>2011-03-21T10:25:05Z</time>
      </trkpt>
      <trkpt lat="44.50246" lon="6.68226">
        <ele>2558.69</ele>
        <time>2011-03-21T10:25:19Z</time>
      </trkpt>
      <trkpt lat="44.50242" lon="6.68227">
        <ele>2560.13</ele>
        <time>2011-03-21T10:25:31Z</time>
      </trkpt>
      <trkpt lat="44.50237" lon="6.68229">
        <ele>2562.05</ele>
        <time>2011-03-21T10:25:42Z</time>
      </trkpt>
      <trkpt lat="44.50233" lon="6.68232">
        <ele>2563.49</ele>
        <time>2011-03-21T10:25:53Z</time>
      </trkpt>
      <trkpt lat="44.50228" lon="6.68235">
        <ele>2564.93</ele>
        <time>2011-03-21T10:26:04Z</time>
      </trkpt>
      <trkpt lat="44.50222" lon="6.68237">
        <ele>2567.34</ele>
        <time>2011-03-21T10:26:16Z</time>
      </trkpt>
      <trkpt lat="44.50215" lon="6.6823">
        <ele>2569.74</ele>
        <time>2011-03-21T10:26:29Z</time>
      </trkpt>
      <trkpt lat="44.5021" lon="6.68225">
        <ele>2570.7</ele>
        <time>2011-03-21T10:26:39Z</time>
      </trkpt>
      <trkpt lat="44.50204" lon="6.6822">
        <ele>2572.14</ele>
        <time>2011-03-21T10:26:51Z</time>
      </trkpt>
      <trkpt lat="44.50196" lon="6.68217">
        <ele>2574.55</ele>
        <time>2011-03-21T10:27:06Z</time>
      </trkpt>
      <trkpt lat="44.50191" lon="6.6822">
        <ele>2575.99</ele>
        <time>2011-03-21T10:27:19Z</time>
      </trkpt>
      <trkpt lat="44.50187" lon="6.68227">
        <ele>2577.91</ele>
        <time>2011-03-21T10:27:32Z</time>
      </trkpt>
      <trkpt lat="44.50185" lon="6.68232">
        <ele>2579.35</ele>
        <time>2011-03-21T10:27:43Z</time>
      </trkpt>
      <trkpt lat="44.5018" lon="6.6824">
        <ele>2581.28</ele>
        <time>2011-03-21T10:27:55Z</time>
      </trkpt>
      <trkpt lat="44.50176" lon="6.6824">
        <ele>2583.2</ele>
        <time>2011-03-21T10:28:05Z</time>
      </trkpt>
      <trkpt lat="44.5017" lon="6.68236">
        <ele>2585.12</ele>
        <time>2011-03-21T10:28:18Z</time>
      </trkpt>
      <trkpt lat="44.50165" lon="6.68232">
        <ele>2586.56</ele>
        <time>2011-03-21T10:28:31Z</time>
      </trkpt>
      <trkpt lat="44.50158" lon="6.68231">
        <ele>2588.01</ele>
        <time>2011-03-21T10:28:43Z</time>
      </trkpt>
      <trkpt lat="44.50155" lon="6.68233">
        <ele>2588.97</ele>
        <time>2011-03-21T10:28:50Z</time>
      </trkpt>
      <trkpt lat="44.50154" lon="6.68237">
        <ele>2589.93</ele>
        <time>2011-03-21T10:29:03Z</time>
      </trkpt>
      <trkpt lat="44.50149" lon="6.68233">
        <ele>2591.37</ele>
        <time>2011-03-21T10:29:13Z</time>
      </trkpt>
      <trkpt lat="44.50141" lon="6.68231">
        <ele>2594.25</ele>
        <time>2011-03-21T10:29:29Z</time>
      </trkpt>
      <trkpt lat="44.50138" lon="6.6823">
        <ele>2595.7</ele>
        <time>2011-03-21T10:29:40Z</time>
      </trkpt>
      <trkpt lat="44.50133" lon="6.6823">
        <ele>2597.14</ele>
        <time>2011-03-21T10:29:52Z</time>
      </trkpt>
      <trkpt lat="44.50125" lon="6.68228">
        <ele>2599.06</ele>
        <time>2011-03-21T10:30:07Z</time>
      </trkpt>
      <trkpt lat="44.50119" lon="6.68227">
        <ele>2601.46</ele>
        <time>2011-03-21T10:30:20Z</time>
      </trkpt>
      <trkpt lat="44.50115" lon="6.68223">
        <ele>2603.39</ele>
        <time>2011-03-21T10:30:35Z</time>
      </trkpt>
      <trkpt lat="44.50109" lon="6.68219">
        <ele>2605.79</ele>
        <time>2011-03-21T10:30:47Z</time>
      </trkpt>
      <trkpt lat="44.50105" lon="6.68216">
        <ele>2607.71</ele>
        <time>2011-03-21T10:30:58Z</time>
      </trkpt>
      <trkpt lat="44.50101" lon="6.68214">
        <ele>2609.64</ele>
        <time>2011-03-21T10:31:11Z</time>
      </trkpt>
      <trkpt lat="44.50097" lon="6.68213">
        <ele>2611.08</ele>
        <time>2011-03-21T10:31:21Z</time>
      </trkpt>
      <trkpt lat="44.50098" lon="6.68208">
        <ele>2612.04</ele>
        <time>2011-03-21T10:31:31Z</time>
      </trkpt>
      <trkpt lat="44.50099" lon="6.68203">
        <ele>2614.44</ele>
        <time>2011-03-21T10:31:45Z</time>
      </trkpt>
      <trkpt lat="44.50099" lon="6.68203">
        <ele>2615.88</ele>
        <time>2011-03-21T10:31:58Z</time>
      </trkpt>
      <trkpt lat="44.50098" lon="6.682">
        <ele>2616.37</ele>
        <time>2011-03-21T10:32:14Z</time>
      </trkpt>
      <trkpt lat="44.50095" lon="6.68192">
        <ele>2617.81</ele>
        <time>2011-03-21T10:32:26Z</time>
      </trkpt>
      <trkpt lat="44.5009" lon="6.68185">
        <ele>2620.21</ele>
        <time>2011-03-21T10:32:39Z</time>
      </trkpt>
      <trkpt lat="44.50085" lon="6.68174">
        <ele>2622.61</ele>
        <time>2011-03-21T10:32:55Z</time>
      </trkpt>
      <trkpt lat="44.50081" lon="6.68165">
        <ele>2624.54</ele>
        <time>2011-03-21T10:33:09Z</time>
      </trkpt>
      <trkpt lat="44.50079" lon="6.68158">
        <ele>2625.5</ele>
        <time>2011-03-21T10:33:23Z</time>
      </trkpt>
      <trkpt lat="44.50076" lon="6.68151">
        <ele>2628.38</ele>
        <time>2011-03-21T10:33:35Z</time>
      </trkpt>
      <trkpt lat="44.50075" lon="6.68149">
        <ele>2630.3</ele>
        <time>2011-03-21T10:33:47Z</time>
      </trkpt>
      <trkpt lat="44.50072" lon="6.68137">
        <ele>2631.75</ele>
        <time>2011-03-21T10:34:02Z</time>
      </trkpt>
      <trkpt lat="44.50069" lon="6.6813">
        <ele>2633.19</ele>
        <time>2011-03-21T10:34:12Z</time>
      </trkpt>
      <trkpt lat="44.50067" lon="6.68124">
        <ele>2635.11</ele>
        <time>2011-03-21T10:34:22Z</time>
      </trkpt>
      <trkpt lat="44.50064" lon="6.68119">
        <ele>2636.55</ele>
        <time>2011-03-21T10:34:34Z</time>
      </trkpt>
      <trkpt lat="44.50061" lon="6.68113">
        <ele>2638.48</ele>
        <time>2011-03-21T10:34:47Z</time>
      </trkpt>
      <trkpt lat="44.5006" lon="6.6811">
        <ele>2640.4</ele>
        <time>2011-03-21T10:35:01Z</time>
      </trkpt>
      <trkpt lat="44.50058" lon="6.68105">
        <ele>2642.32</ele>
        <time>2011-03-21T10:35:11Z</time>
      </trkpt>
      <trkpt lat="44.50056" lon="6.68098">
        <ele>2643.76</ele>
        <time>2011-03-21T10:35:22Z</time>
      </trkpt>
      <trkpt lat="44.50052" lon="6.68088">
        <ele>2645.21</ele>
        <time>2011-03-21T10:35:34Z</time>
      </trkpt>
      <trkpt lat="44.5005" lon="6.68083">
        <ele>2647.61</ele>
        <time>2011-03-21T10:35:46Z</time>
      </trkpt>
      <trkpt lat="44.50048" lon="6.68078">
        <ele>2649.53</ele>
        <time>2011-03-21T10:36:01Z</time>
      </trkpt>
      <trkpt lat="44.50045" lon="6.68071">
        <ele>2651.45</ele>
        <time>2011-03-21T10:36:15Z</time>
      </trkpt>
      <trkpt lat="44.50044" lon="6.68064">
        <ele>2653.38</ele>
        <time>2011-03-21T10:36:28Z</time>
      </trkpt>
      <trkpt lat="44.50043" lon="6.6806">
        <ele>2655.78</ele>
        <time>2011-03-21T10:36:42Z</time>
      </trkpt>
      <trkpt lat="44.5004" lon="6.68054">
        <ele>2657.7</ele>
        <time>2011-03-21T10:36:55Z</time>
      </trkpt>
      <trkpt lat="44.50039" lon="6.68048">
        <ele>2659.62</ele>
        <time>2011-03-21T10:37:07Z</time>
      </trkpt>
      <trkpt lat="44.50037" lon="6.68041">
        <ele>2661.07</ele>
        <time>2011-03-21T10:37:18Z</time>
      </trkpt>
      <trkpt lat="44.50035" lon="6.68036">
        <ele>2662.99</ele>
        <time>2011-03-21T10:37:31Z</time>
      </trkpt>
      <trkpt lat="44.50034" lon="6.68031">
        <ele>2663.47</ele>
        <time>2011-03-21T10:37:43Z</time>
      </trkpt>
      <trkpt lat="44.50031" lon="6.68025">
        <ele>2664.91</ele>
        <time>2011-03-21T10:38:01Z</time>
      </trkpt>
      <trkpt lat="44.50029" lon="6.68025">
        <ele>2666.83</ele>
        <time>2011-03-21T10:38:12Z</time>
      </trkpt>
      <trkpt lat="44.50024" lon="6.68031">
        <ele>2668.28</ele>
        <time>2011-03-21T10:38:25Z</time>
      </trkpt>
      <trkpt lat="44.50021" lon="6.68035">
        <ele>2669.72</ele>
        <time>2011-03-21T10:38:35Z</time>
      </trkpt>
      <trkpt lat="44.50015" lon="6.6804">
        <ele>2671.16</ele>
        <time>2011-03-21T10:38:45Z</time>
      </trkpt>
      <trkpt lat="44.50013" lon="6.68039">
        <ele>2672.12</ele>
        <time>2011-03-21T10:38:55Z</time>
      </trkpt>
      <trkpt lat="44.50012" lon="6.68031">
        <ele>2673.56</ele>
        <time>2011-03-21T10:39:05Z</time>
      </trkpt>
      <trkpt lat="44.5001" lon="6.68024">
        <ele>2675.49</ele>
        <time>2011-03-21T10:39:16Z</time>
      </trkpt>
      <trkpt lat="44.5001" lon="6.68021">
        <ele>2676.45</ele>
        <time>2011-03-21T10:39:26Z</time>
      </trkpt>
      <trkpt lat="44.50008" lon="6.68014">
        <ele>2677.89</ele>
        <time>2011-03-21T10:39:39Z</time>
      </trkpt>
      <trkpt lat="44.50006" lon="6.68007">
        <ele>2679.81</ele>
        <time>2011-03-21T10:39:56Z</time>
      </trkpt>
      <trkpt lat="44.50003" lon="6.68009">
        <ele>2681.25</ele>
        <time>2011-03-21T10:40:07Z</time>
      </trkpt>
      <trkpt lat="44.5" lon="6.68012">
        <ele>2682.7</ele>
        <time>2011-03-21T10:40:16Z</time>
      </trkpt>
      <trkpt lat="44.49998" lon="6.68008">
        <ele>2684.14</ele>
        <time>2011-03-21T10:40:26Z</time>
      </trkpt>
      <trkpt lat="44.49996" lon="6.68004">
        <ele>2685.58</ele>
        <time>2011-03-21T10:40:37Z</time>
      </trkpt>
      <trkpt lat="44.49993" lon="6.68002">
        <ele>2687.02</ele>
        <time>2011-03-21T10:40:49Z</time>
      </trkpt>
      <trkpt lat="44.49991" lon="6.68002">
        <ele>2688.46</ele>
        <time>2011-03-21T10:41:00Z</time>
      </trkpt>
      <trkpt lat="44.49987" lon="6.68004">
        <ele>2690.39</ele>
        <time>2011-03-21T10:41:14Z</time>
      </trkpt>
      <trkpt lat="44.49982" lon="6.68004">
        <ele>2692.79</ele>
        <time>2011-03-21T10:41:28Z</time>
      </trkpt>
      <trkpt lat="44.49978" lon="6.68006">
        <ele>2694.71</ele>
        <time>2011-03-21T10:41:40Z</time>
      </trkpt>
      <trkpt lat="44.49973" lon="6.68007">
        <ele>2696.15</ele>
        <time>2011-03-21T10:41:50Z</time>
      </trkpt>
      <trkpt lat="44.49966" lon="6.68009">
        <ele>2697.6</ele>
        <time>2011-03-21T10:42:02Z</time>
      </trkpt>
      <trkpt lat="44.49961" lon="6.6801">
        <ele>2699.04</ele>
        <time>2011-03-21T10:42:14Z</time>
      </trkpt>
      <trkpt lat="44.49957" lon="6.68002">
        <ele>2701.44</ele>
        <time>2011-03-21T10:42:32Z</time>
      </trkpt>
      <trkpt lat="44.49956" lon="6.67994">
        <ele>2702.88</ele>
        <time>2011-03-21T10:42:43Z</time>
      </trkpt>
      <trkpt lat="44.49954" lon="6.67984">
        <ele>2704.33</ele>
        <time>2011-03-21T10:42:59Z</time>
      </trkpt>
      <trkpt lat="44.49955" lon="6.67979">
        <ele>2705.77</ele>
        <time>2011-03-21T10:43:17Z</time>
      </trkpt>
      <trkpt lat="44.49956" lon="6.67974">
        <ele>2707.69</ele>
        <time>2011-03-21T10:43:27Z</time>
      </trkpt>
      <trkpt lat="44.49956" lon="6.67968">
        <ele>2709.61</ele>
        <time>2011-03-21T10:43:40Z</time>
      </trkpt>
      <trkpt lat="44.49955" lon="6.67961">
        <ele>2711.06</ele>
        <time>2011-03-21T10:43:54Z</time>
      </trkpt>
      <trkpt lat="44.49956" lon="6.67952">
        <ele>2712.98</ele>
        <time>2011-03-21T10:44:05Z</time>
      </trkpt>
      <trkpt lat="44.49955" lon="6.67949">
        <ele>2714.9</ele>
        <time>2011-03-21T10:44:19Z</time>
      </trkpt>
      <trkpt lat="44.49953" lon="6.67948">
        <ele>2715.86</ele>
        <time>2011-03-21T10:44:31Z</time>
      </trkpt>
      <trkpt lat="44.49952" lon="6.67948">
        <ele>2715.38</ele>
        <time>2011-03-21T10:44:51Z</time>
      </trkpt>
      <trkpt lat="44.49948" lon="6.67946">
        <ele>2717.78</ele>
        <time>2011-03-21T10:45:03Z</time>
      </trkpt>
      <trkpt lat="44.49946" lon="6.67944">
        <ele>2719.71</ele>
        <time>2011-03-21T10:45:15Z</time>
      </trkpt>
      <trkpt lat="44.49946" lon="6.67936">
        <ele>2721.15</ele>
        <time>2011-03-21T10:45:28Z</time>
      </trkpt>
      <trkpt lat="44.49944" lon="6.6793">
        <ele>2723.07</ele>
        <time>2011-03-21T10:45:38Z</time>
      </trkpt>
      <trkpt lat="44.49941" lon="6.67919">
        <ele>2724.51</ele>
        <time>2011-03-21T10:45:53Z</time>
      </trkpt>
      <trkpt lat="44.4994" lon="6.67914">
        <ele>2725.96</ele>
        <time>2011-03-21T10:46:03Z</time>
      </trkpt>
      <trkpt lat="44.49936" lon="6.67917">
        <ele>2727.4</ele>
        <time>2011-03-21T10:46:13Z</time>
      </trkpt>
      <trkpt lat="44.49932" lon="6.67919">
        <ele>2728.84</ele>
        <time>2011-03-21T10:46:24Z</time>
      </trkpt>
      <trkpt lat="44.4993" lon="6.67919">
        <ele>2730.28</ele>
        <time>2011-03-21T10:46:35Z</time>
      </trkpt>
      <trkpt lat="44.49923" lon="6.67918">
        <ele>2732.2</ele>
        <time>2011-03-21T10:46:50Z</time>
      </trkpt>
      <trkpt lat="44.49918" lon="6.67917">
        <ele>2733.65</ele>
        <time>2011-03-21T10:47:00Z</time>
      </trkpt>
      <trkpt lat="44.49913" lon="6.67915">
        <ele>2735.57</ele>
        <time>2011-03-21T10:47:11Z</time>
      </trkpt>
      <trkpt lat="44.4991" lon="6.67912">
        <ele>2736.53</ele>
        <time>2011-03-21T10:47:21Z</time>
      </trkpt>
      <trkpt lat="44.49907" lon="6.67911">
        <ele>2737.97</ele>
        <time>2011-03-21T10:47:32Z</time>
      </trkpt>
      <trkpt lat="44.49907" lon="6.67907">
        <ele>2739.41</ele>
        <time>2011-03-21T10:47:45Z</time>
      </trkpt>
      <trkpt lat="44.49907" lon="6.67896">
        <ele>2741.34</ele>
        <time>2011-03-21T10:47:58Z</time>
      </trkpt>
      <trkpt lat="44.49908" lon="6.67891">
        <ele>2742.78</ele>
        <time>2011-03-21T10:48:08Z</time>
      </trkpt>
      <trkpt lat="44.49908" lon="6.67889">
        <ele>2744.7</ele>
        <time>2011-03-21T10:48:18Z</time>
      </trkpt>
      <trkpt lat="44.49908" lon="6.67884">
        <ele>2745.66</ele>
        <time>2011-03-21T10:48:30Z</time>
      </trkpt>
      <trkpt lat="44.49909" lon="6.67878">
        <ele>2746.62</ele>
        <time>2011-03-21T10:48:41Z</time>
      </trkpt>
      <trkpt lat="44.4991" lon="6.67876">
        <ele>2748.07</ele>
        <time>2011-03-21T10:48:44Z</time>
      </trkpt>
      <trkpt lat="44.4991" lon="6.67873">
        <ele>2749.03</ele>
        <time>2011-03-21T10:48:55Z</time>
      </trkpt>
      <trkpt lat="44.49909" lon="6.67863">
        <ele>2750.47</ele>
        <time>2011-03-21T10:49:05Z</time>
      </trkpt>
      <trkpt lat="44.49908" lon="6.67855">
        <ele>2752.39</ele>
        <time>2011-03-21T10:49:16Z</time>
      </trkpt>
      <trkpt lat="44.49907" lon="6.67851">
        <ele>2754.8</ele>
        <time>2011-03-21T10:49:31Z</time>
      </trkpt>
      <trkpt lat="44.49905" lon="6.67853">
        <ele>2756.72</ele>
        <time>2011-03-21T10:49:45Z</time>
      </trkpt>
      <trkpt lat="44.49895" lon="6.67855">
        <ele>2758.64</ele>
        <time>2011-03-21T10:50:01Z</time>
      </trkpt>
      <trkpt lat="44.49888" lon="6.67856">
        <ele>2759.6</ele>
        <time>2011-03-21T10:50:12Z</time>
      </trkpt>
      <trkpt lat="44.49886" lon="6.67857">
        <ele>2761.04</ele>
        <time>2011-03-21T10:50:22Z</time>
      </trkpt>
      <trkpt lat="44.49883" lon="6.67858">
        <ele>2762.49</ele>
        <time>2011-03-21T10:50:33Z</time>
      </trkpt>
      <trkpt lat="44.49881" lon="6.67858">
        <ele>2763.93</ele>
        <time>2011-03-21T10:50:45Z</time>
      </trkpt>
      <trkpt lat="44.49875" lon="6.67858">
        <ele>2765.37</ele>
        <time>2011-03-21T10:50:56Z</time>
      </trkpt>
      <trkpt lat="44.49867" lon="6.67858">
        <ele>2766.81</ele>
        <time>2011-03-21T10:51:06Z</time>
      </trkpt>
      <trkpt lat="44.49863" lon="6.67857">
        <ele>2768.73</ele>
        <time>2011-03-21T10:51:16Z</time>
      </trkpt>
      <trkpt lat="44.49862" lon="6.67857">
        <ele>2770.18</ele>
        <time>2011-03-21T10:51:27Z</time>
      </trkpt>
      <trkpt lat="44.49856" lon="6.6785">
        <ele>2772.58</ele>
        <time>2011-03-21T10:51:44Z</time>
      </trkpt>
      <trkpt lat="44.49855" lon="6.67849">
        <ele>2772.58</ele>
        <time>2011-03-21T10:52:00Z</time>
      </trkpt>
      <trkpt lat="44.49854" lon="6.67844">
        <ele>2774.5</ele>
        <time>2011-03-21T10:52:17Z</time>
      </trkpt>
      <trkpt lat="44.49854" lon="6.67836">
        <ele>2775.46</ele>
        <time>2011-03-21T10:52:29Z</time>
      </trkpt>
      <trkpt lat="44.49854" lon="6.67825">
        <ele>2776.91</ele>
        <time>2011-03-21T10:52:41Z</time>
      </trkpt>
      <trkpt lat="44.49853" lon="6.67817">
        <ele>2778.35</ele>
        <time>2011-03-21T10:52:52Z</time>
      </trkpt>
      <trkpt lat="44.49852" lon="6.67807">
        <ele>2779.31</ele>
        <time>2011-03-21T10:53:04Z</time>
      </trkpt>
      <trkpt lat="44.4985" lon="6.67798">
        <ele>2780.27</ele>
        <time>2011-03-21T10:53:16Z</time>
      </trkpt>
      <trkpt lat="44.49849" lon="6.6779">
        <ele>2782.19</ele>
        <time>2011-03-21T10:53:27Z</time>
      </trkpt>
      <trkpt lat="44.49849" lon="6.67781">
        <ele>2784.12</ele>
        <time>2011-03-21T10:53:40Z</time>
      </trkpt>
      <trkpt lat="44.49849" lon="6.67772">
        <ele>2785.56</ele>
        <time>2011-03-21T10:53:52Z</time>
      </trkpt>
      <trkpt lat="44.49851" lon="6.67763">
        <ele>2787.48</ele>
        <time>2011-03-21T10:54:05Z</time>
      </trkpt>
      <trkpt lat="44.49851" lon="6.67754">
        <ele>2788.44</ele>
        <time>2011-03-21T10:54:19Z</time>
      </trkpt>
      <trkpt lat="44.49851" lon="6.67751">
        <ele>2789.88</ele>
        <time>2011-03-21T10:54:26Z</time>
      </trkpt>
      <trkpt lat="44.49852" lon="6.67741">
        <ele>2790.84</ele>
        <time>2011-03-21T10:54:39Z</time>
      </trkpt>
      <trkpt lat="44.49853" lon="6.67732">
        <ele>2792.77</ele>
        <time>2011-03-21T10:54:52Z</time>
      </trkpt>
      <trkpt lat="44.49853" lon="6.67725">
        <ele>2794.21</ele>
        <time>2011-03-21T10:55:06Z</time>
      </trkpt>
      <trkpt lat="44.49852" lon="6.67718">
        <ele>2796.13</ele>
        <time>2011-03-21T10:55:17Z</time>
      </trkpt>
      <trkpt lat="44.49852" lon="6.67709">
        <ele>2798.05</ele>
        <time>2011-03-21T10:55:30Z</time>
      </trkpt>
      <trkpt lat="44.49854" lon="6.677">
        <ele>2799.5</ele>
        <time>2011-03-21T10:55:46Z</time>
      </trkpt>
      <trkpt lat="44.49853" lon="6.67692">
        <ele>2801.9</ele>
        <time>2011-03-21T10:55:59Z</time>
      </trkpt>
      <trkpt lat="44.49852" lon="6.67688">
        <ele>2802.86</ele>
        <time>2011-03-21T10:56:11Z</time>
      </trkpt>
      <trkpt lat="44.49851" lon="6.6768">
        <ele>2804.78</ele>
        <time>2011-03-21T10:56:24Z</time>
      </trkpt>
      <trkpt lat="44.49849" lon="6.67671">
        <ele>2806.71</ele>
        <time>2011-03-21T10:56:42Z</time>
      </trkpt>
      <trkpt lat="44.49848" lon="6.67666">
        <ele>2808.15</ele>
        <time>2011-03-21T10:56:55Z</time>
      </trkpt>
      <trkpt lat="44.49847" lon="6.67661">
        <ele>2809.59</ele>
        <time>2011-03-21T10:57:08Z</time>
      </trkpt>
      <trkpt lat="44.49847" lon="6.67654">
        <ele>2810.07</ele>
        <time>2011-03-21T10:57:18Z</time>
      </trkpt>
      <trkpt lat="44.49847" lon="6.67647">
        <ele>2811.51</ele>
        <time>2011-03-21T10:57:27Z</time>
      </trkpt>
      <trkpt lat="44.49845" lon="6.67638">
        <ele>2813.44</ele>
        <time>2011-03-21T10:57:46Z</time>
      </trkpt>
      <trkpt lat="44.49845" lon="6.6763">
        <ele>2814.4</ele>
        <time>2011-03-21T10:57:58Z</time>
      </trkpt>
      <trkpt lat="44.49846" lon="6.67622">
        <ele>2815.84</ele>
        <time>2011-03-21T10:58:12Z</time>
      </trkpt>
      <trkpt lat="44.49847" lon="6.67614">
        <ele>2816.8</ele>
        <time>2011-03-21T10:58:24Z</time>
      </trkpt>
      <trkpt lat="44.49849" lon="6.67606">
        <ele>2817.76</ele>
        <time>2011-03-21T10:58:35Z</time>
      </trkpt>
      <trkpt lat="44.49851" lon="6.67599">
        <ele>2819.2</ele>
        <time>2011-03-21T10:58:47Z</time>
      </trkpt>
      <trkpt lat="44.49851" lon="6.67593">
        <ele>2820.65</ele>
        <time>2011-03-21T10:58:59Z</time>
      </trkpt>
      <trkpt lat="44.49853" lon="6.67587">
        <ele>2821.61</ele>
        <time>2011-03-21T10:59:12Z</time>
      </trkpt>
      <trkpt lat="44.49853" lon="6.6758">
        <ele>2823.05</ele>
        <time>2011-03-21T10:59:22Z</time>
      </trkpt>
      <trkpt lat="44.49854" lon="6.67576">
        <ele>2824.01</ele>
        <time>2011-03-21T10:59:33Z</time>
      </trkpt>
      <trkpt lat="44.49855" lon="6.67564">
        <ele>2824.49</ele>
        <time>2011-03-21T10:59:47Z</time>
      </trkpt>
      <trkpt lat="44.49857" lon="6.67557">
        <ele>2826.41</ele>
        <time>2011-03-21T10:59:59Z</time>
      </trkpt>
      <trkpt lat="44.49857" lon="6.6755">
        <ele>2827.37</ele>
        <time>2011-03-21T11:00:09Z</time>
      </trkpt>
      <trkpt lat="44.49857" lon="6.67545">
        <ele>2827.85</ele>
        <time>2011-03-21T11:00:20Z</time>
      </trkpt>
      <trkpt lat="44.49858" lon="6.67539">
        <ele>2829.3</ele>
        <time>2011-03-21T11:00:31Z</time>
      </trkpt>
      <trkpt lat="44.49858" lon="6.67532">
        <ele>2831.22</ele>
        <time>2011-03-21T11:00:48Z</time>
      </trkpt>
      <trkpt lat="44.49859" lon="6.67524">
        <ele>2832.66</ele>
        <time>2011-03-21T11:00:59Z</time>
      </trkpt>
      <trkpt lat="44.49861" lon="6.67514">
        <ele>2834.1</ele>
        <time>2011-03-21T11:01:17Z</time>
      </trkpt>
      <trkpt lat="44.49861" lon="6.67508">
        <ele>2836.03</ele>
        <time>2011-03-21T11:01:32Z</time>
      </trkpt>
      <trkpt lat="44.49861" lon="6.67499">
        <ele>2837.47</ele>
        <time>2011-03-21T11:01:42Z</time>
      </trkpt>
      <trkpt lat="44.4986" lon="6.67492">
        <ele>2838.43</ele>
        <time>2011-03-21T11:01:52Z</time>
      </trkpt>
      <trkpt lat="44.4986" lon="6.67486">
        <ele>2839.39</ele>
        <time>2011-03-21T11:02:02Z</time>
      </trkpt>
      <trkpt lat="44.4986" lon="6.67482">
        <ele>2840.35</ele>
        <time>2011-03-21T11:02:14Z</time>
      </trkpt>
      <trkpt lat="44.4986" lon="6.67477">
        <ele>2841.79</ele>
        <time>2011-03-21T11:02:26Z</time>
      </trkpt>
      <trkpt lat="44.4986" lon="6.67471">
        <ele>2843.24</ele>
        <time>2011-03-21T11:02:38Z</time>
      </trkpt>
      <trkpt lat="44.49859" lon="6.67465">
        <ele>2844.68</ele>
        <time>2011-03-21T11:02:52Z</time>
      </trkpt>
      <trkpt lat="44.49858" lon="6.67456">
        <ele>2845.64</ele>
        <time>2011-03-21T11:03:02Z</time>
      </trkpt>
      <trkpt lat="44.49858" lon="6.67447">
        <ele>2847.56</ele>
        <time>2011-03-21T11:03:14Z</time>
      </trkpt>
      <trkpt lat="44.49859" lon="6.6744">
        <ele>2848.52</ele>
        <time>2011-03-21T11:03:28Z</time>
      </trkpt>
      <trkpt lat="44.4986" lon="6.67431">
        <ele>2849.97</ele>
        <time>2011-03-21T11:03:41Z</time>
      </trkpt>
      <trkpt lat="44.49861" lon="6.67425">
        <ele>2850.93</ele>
        <time>2011-03-21T11:03:53Z</time>
      </trkpt>
      <trkpt lat="44.49862" lon="6.67419">
        <ele>2853.33</ele>
        <time>2011-03-21T11:04:06Z</time>
      </trkpt>
      <trkpt lat="44.49864" lon="6.67408">
        <ele>2855.25</ele>
        <time>2011-03-21T11:04:23Z</time>
      </trkpt>
      <trkpt lat="44.49865" lon="6.674">
        <ele>2856.21</ele>
        <time>2011-03-21T11:04:35Z</time>
      </trkpt>
      <trkpt lat="44.49865" lon="6.67395">
        <ele>2857.66</ele>
        <time>2011-03-21T11:04:45Z</time>
      </trkpt>
      <trkpt lat="44.49863" lon="6.67392">
        <ele>2858.62</ele>
        <time>2011-03-21T11:04:54Z</time>
      </trkpt>
      <trkpt lat="44.49862" lon="6.67388">
        <ele>2859.58</ele>
        <time>2011-03-21T11:05:05Z</time>
      </trkpt>
      <trkpt lat="44.4986" lon="6.6739">
        <ele>2861.5</ele>
        <time>2011-03-21T11:05:17Z</time>
      </trkpt>
      <trkpt lat="44.49856" lon="6.67392">
        <ele>2862.46</ele>
        <time>2011-03-21T11:05:29Z</time>
      </trkpt>
      <trkpt lat="44.49854" lon="6.67387">
        <ele>2863.9</ele>
        <time>2011-03-21T11:05:38Z</time>
      </trkpt>
      <trkpt lat="44.49852" lon="6.67381">
        <ele>2865.35</ele>
        <time>2011-03-21T11:05:56Z</time>
      </trkpt>
      <trkpt lat="44.49852" lon="6.67381">
        <ele>2866.31</ele>
        <time>2011-03-21T11:06:15Z</time>
      </trkpt>
      <trkpt lat="44.49852" lon="6.6738">
        <ele>2866.31</ele>
        <time>2011-03-21T11:06:40Z</time>
      </trkpt>
      <trkpt lat="44.49851" lon="6.67374">
        <ele>2867.27</ele>
        <time>2011-03-21T11:07:04Z</time>
      </trkpt>
      <trkpt lat="44.49848" lon="6.67364">
        <ele>2867.75</ele>
        <time>2011-03-21T11:07:15Z</time>
      </trkpt>
      <trkpt lat="44.49846" lon="6.67353">
        <ele>2869.67</ele>
        <time>2011-03-21T11:07:29Z</time>
      </trkpt>
      <trkpt lat="44.49844" lon="6.67341">
        <ele>2871.11</ele>
        <time>2011-03-21T11:07:43Z</time>
      </trkpt>
      <trkpt lat="44.49844" lon="6.67331">
        <ele>2872.56</ele>
        <time>2011-03-21T11:07:56Z</time>
      </trkpt>
      <trkpt lat="44.49844" lon="6.67322">
        <ele>2874</ele>
        <time>2011-03-21T11:08:09Z</time>
      </trkpt>
      <trkpt lat="44.49844" lon="6.67312">
        <ele>2874.96</ele>
        <time>2011-03-21T11:08:23Z</time>
      </trkpt>
      <trkpt lat="44.49844" lon="6.67306">
        <ele>2874.96</ele>
        <time>2011-03-21T11:08:33Z</time>
      </trkpt>
      <trkpt lat="44.49847" lon="6.67296">
        <ele>2876.4</ele>
        <time>2011-03-21T11:08:49Z</time>
      </trkpt>
      <trkpt lat="44.49848" lon="6.67287">
        <ele>2877.36</ele>
        <time>2011-03-21T11:09:02Z</time>
      </trkpt>
      <trkpt lat="44.49849" lon="6.67279">
        <ele>2878.81</ele>
        <time>2011-03-21T11:09:14Z</time>
      </trkpt>
      <trkpt lat="44.49849" lon="6.67274">
        <ele>2880.25</ele>
        <time>2011-03-21T11:09:26Z</time>
      </trkpt>
      <trkpt lat="44.49848" lon="6.67266">
        <ele>2880.73</ele>
        <time>2011-03-21T11:09:36Z</time>
      </trkpt>
      <trkpt lat="44.49849" lon="6.67258">
        <ele>2882.17</ele>
        <time>2011-03-21T11:09:49Z</time>
      </trkpt>
      <trkpt lat="44.49849" lon="6.67252">
        <ele>2883.13</ele>
        <time>2011-03-21T11:09:59Z</time>
      </trkpt>
      <trkpt lat="44.49848" lon="6.67246">
        <ele>2884.57</ele>
        <time>2011-03-21T11:10:09Z</time>
      </trkpt>
      <trkpt lat="44.49848" lon="6.6724">
        <ele>2885.53</ele>
        <time>2011-03-21T11:10:19Z</time>
      </trkpt>
      <trkpt lat="44.49849" lon="6.67235">
        <ele>2886.98</ele>
        <time>2011-03-21T11:10:30Z</time>
      </trkpt>
      <trkpt lat="44.49849" lon="6.6723">
        <ele>2888.42</ele>
        <time>2011-03-21T11:10:46Z</time>
      </trkpt>
      <trkpt lat="44.49851" lon="6.67218">
        <ele>2890.34</ele>
        <time>2011-03-21T11:10:59Z</time>
      </trkpt>
      <trkpt lat="44.49851" lon="6.6721">
        <ele>2891.78</ele>
        <time>2011-03-21T11:11:12Z</time>
      </trkpt>
      <trkpt lat="44.49851" lon="6.67206">
        <ele>2893.23</ele>
        <time>2011-03-21T11:11:23Z</time>
      </trkpt>
      <trkpt lat="44.49853" lon="6.67194">
        <ele>2894.19</ele>
        <time>2011-03-21T11:11:38Z</time>
      </trkpt>
      <trkpt lat="44.49854" lon="6.67187">
        <ele>2895.63</ele>
        <time>2011-03-21T11:11:52Z</time>
      </trkpt>
      <trkpt lat="44.49854" lon="6.67177">
        <ele>2897.07</ele>
        <time>2011-03-21T11:12:04Z</time>
      </trkpt>
      <trkpt lat="44.49853" lon="6.67171">
        <ele>2898.99</ele>
        <time>2011-03-21T11:12:14Z</time>
      </trkpt>
      <trkpt lat="44.49852" lon="6.67165">
        <ele>2898.99</ele>
        <time>2011-03-21T11:12:23Z</time>
      </trkpt>
      <trkpt lat="44.49852" lon="6.67162">
        <ele>2900.44</ele>
        <time>2011-03-21T11:12:37Z</time>
      </trkpt>
      <trkpt lat="44.49853" lon="6.67157">
        <ele>2901.4</ele>
        <time>2011-03-21T11:12:48Z</time>
      </trkpt>
      <trkpt lat="44.49853" lon="6.67151">
        <ele>2902.36</ele>
        <time>2011-03-21T11:12:58Z</time>
      </trkpt>
      <trkpt lat="44.49853" lon="6.67144">
        <ele>2903.8</ele>
        <time>2011-03-21T11:13:11Z</time>
      </trkpt>
      <trkpt lat="44.49855" lon="6.67133">
        <ele>2905.72</ele>
        <time>2011-03-21T11:13:25Z</time>
      </trkpt>
      <trkpt lat="44.49856" lon="6.67126">
        <ele>2907.16</ele>
        <time>2011-03-21T11:13:41Z</time>
      </trkpt>
      <trkpt lat="44.49857" lon="6.67118">
        <ele>2908.61</ele>
        <time>2011-03-21T11:13:57Z</time>
      </trkpt>
      <trkpt lat="44.49858" lon="6.67112">
        <ele>2909.09</ele>
        <time>2011-03-21T11:14:12Z</time>
      </trkpt>
      <trkpt lat="44.49859" lon="6.67104">
        <ele>2911.01</ele>
        <time>2011-03-21T11:14:23Z</time>
      </trkpt>
      <trkpt lat="44.49859" lon="6.67101">
        <ele>2911.49</ele>
        <time>2011-03-21T11:14:35Z</time>
      </trkpt>
      <trkpt lat="44.49859" lon="6.67101">
        <ele>2911.49</ele>
        <time>2011-03-21T11:14:53Z</time>
      </trkpt>
      <trkpt lat="44.49859" lon="6.67101">
        <ele>2911.97</ele>
        <time>2011-03-21T11:15:17Z</time>
      </trkpt>
      <trkpt lat="44.49859" lon="6.67103">
        <ele>2911.49</ele>
        <time>2011-03-21T11:15:47Z</time>
      </trkpt>
      <trkpt lat="44.49855" lon="6.67109">
        <ele>2911.97</ele>
        <time>2011-03-21T11:16:01Z</time>
      </trkpt>
      <trkpt lat="44.49852" lon="6.67114">
        <ele>2912.45</ele>
        <time>2011-03-21T11:16:12Z</time>
      </trkpt>
      <trkpt lat="44.49851" lon="6.67118">
        <ele>2913.41</ele>
        <time>2011-03-21T11:16:22Z</time>
      </trkpt>
      <trkpt lat="44.49851" lon="6.67118">
        <ele>2912.93</ele>
        <time>2011-03-21T11:16:57Z</time>
      </trkpt>
      <trkpt lat="44.49849" lon="6.6712">
        <ele>2913.41</ele>
        <time>2011-03-21T11:17:27Z</time>
      </trkpt>
      <trkpt lat="44.49845" lon="6.67125">
        <ele>2914.85</ele>
        <time>2011-03-21T11:17:37Z</time>
      </trkpt>
      <trkpt lat="44.49841" lon="6.6713">
        <ele>2916.78</ele>
        <time>2011-03-21T11:17:48Z</time>
      </trkpt>
      <trkpt lat="44.49836" lon="6.67135">
        <ele>2918.7</ele>
        <time>2011-03-21T11:18:03Z</time>
      </trkpt>
      <trkpt lat="44.49832" lon="6.6714">
        <ele>2919.66</ele>
        <time>2011-03-21T11:18:13Z</time>
      </trkpt>
      <trkpt lat="44.49828" lon="6.67144">
        <ele>2920.14</ele>
        <time>2011-03-21T11:18:23Z</time>
      </trkpt>
      <trkpt lat="44.49825" lon="6.67148">
        <ele>2922.54</ele>
        <time>2011-03-21T11:18:34Z</time>
      </trkpt>
      <trkpt lat="44.49825" lon="6.67148">
        <ele>2924.47</ele>
        <time>2011-03-21T11:18:45Z</time>
      </trkpt>
      <trkpt lat="44.49818" lon="6.67156">
        <ele>2925.43</ele>
        <time>2011-03-21T11:18:55Z</time>
      </trkpt>
      <trkpt lat="44.49812" lon="6.67166">
        <ele>2925.91</ele>
        <time>2011-03-21T11:19:08Z</time>
      </trkpt>
      <trkpt lat="44.49808" lon="6.67174">
        <ele>2925.91</ele>
        <time>2011-03-21T11:19:20Z</time>
      </trkpt>
      <trkpt lat="44.49804" lon="6.67185">
        <ele>2925.43</ele>
        <time>2011-03-21T11:19:32Z</time>
      </trkpt>
      <trkpt lat="44.49803" lon="6.67188">
        <ele>2925.91</ele>
        <time>2011-03-21T11:19:43Z</time>
      </trkpt>
      <trkpt lat="44.49799" lon="6.67197">
        <ele>2925.91</ele>
        <time>2011-03-21T11:19:56Z</time>
      </trkpt>
      <trkpt lat="44.49799" lon="6.67197">
        <ele>2926.39</ele>
        <time>2011-03-21T11:20:14Z</time>
      </trkpt>
      <trkpt lat="44.49799" lon="6.67198">
        <ele>2926.39</ele>
        <time>2011-03-21T11:20:40Z</time>
      </trkpt>
      <trkpt lat="44.49799" lon="6.67198">
        <ele>2926.39</ele>
        <time>2011-03-21T11:21:04Z</time>
      </trkpt>
      <trkpt lat="44.49799" lon="6.67199">
        <ele>2925.91</ele>
        <time>2011-03-21T11:21:27Z</time>
      </trkpt>
      <trkpt lat="44.49799" lon="6.67199">
        <ele>2925.91</ele>
        <time>2011-03-21T11:21:48Z</time>
      </trkpt>
      <trkpt lat="44.49798" lon="6.67199">
        <ele>2925.43</ele>
        <time>2011-03-21T11:22:07Z</time>
      </trkpt>
      <trkpt lat="44.49798" lon="6.67199">
        <ele>2926.39</ele>
        <time>2011-03-21T11:22:27Z</time>
      </trkpt>
      <trkpt lat="44.49798" lon="6.67199">
        <ele>2925.91</ele>
        <time>2011-03-21T11:22:53Z</time>
      </trkpt>
      <trkpt lat="44.49798" lon="6.67199">
        <ele>2925.91</ele>
        <time>2011-03-21T11:23:08Z</time>
      </trkpt>
      <trkpt lat="44.49797" lon="6.672">
        <ele>2925.43</ele>
        <time>2011-03-21T11:23:40Z</time>
      </trkpt>
      <trkpt lat="44.49797" lon="6.672">
        <ele>2925.91</ele>
        <time>2011-03-21T11:23:52Z</time>
      </trkpt>
      <trkpt lat="44.49796" lon="6.67201">
        <ele>2925.43</ele>
        <time>2011-03-21T11:24:14Z</time>
      </trkpt>
      <trkpt lat="44.49796" lon="6.67201">
        <ele>2925.43</ele>
        <time>2011-03-21T11:24:38Z</time>
      </trkpt>
      <trkpt lat="44.49796" lon="6.67201">
        <ele>2924.95</ele>
        <time>2011-03-21T11:25:02Z</time>
      </trkpt>
      <trkpt lat="44.49796" lon="6.67201">
        <ele>2924.47</ele>
        <time>2011-03-21T11:25:18Z</time>
      </trkpt>
      <trkpt lat="44.49796" lon="6.67201">
        <ele>2924.47</ele>
        <time>2011-03-21T11:25:58Z</time>
      </trkpt>
      <trkpt lat="44.49796" lon="6.67201">
        <ele>2923.51</ele>
        <time>2011-03-21T11:26:27Z</time>
      </trkpt>
      <trkpt lat="44.49796" lon="6.67202">
        <ele>2923.51</ele>
        <time>2011-03-21T11:26:59Z</time>
      </trkpt>
      <trkpt lat="44.49796" lon="6.67202">
        <ele>2923.51</ele>
        <time>2011-03-21T11:27:32Z</time>
      </trkpt>
      <trkpt lat="44.49796" lon="6.67202">
        <ele>2923.51</ele>
        <time>2011-03-21T11:28:16Z</time>
      </trkpt>
      <trkpt lat="44.49796" lon="6.67201">
        <ele>2923.99</ele>
        <time>2011-03-21T11:28:55Z</time>
      </trkpt>
      <trkpt lat="44.49795" lon="6.67201">
        <ele>2923.99</ele>
        <time>2011-03-21T11:29:32Z</time>
      </trkpt>
      <trkpt lat="44.49795" lon="6.67202">
        <ele>2923.99</ele>
        <time>2011-03-21T11:30:07Z</time>
      </trkpt>
      <trkpt lat="44.49794" lon="6.67203">
        <ele>2923.99</ele>
        <time>2011-03-21T11:30:35Z</time>
      </trkpt>
      <trkpt lat="44.49794" lon="6.67202">
        <ele>2923.99</ele>
        <time>2011-03-21T11:30:59Z</time>
      </trkpt>
      <trkpt lat="44.49794" lon="6.67202">
        <ele>2924.47</ele>
        <time>2011-03-21T11:31:35Z</time>
      </trkpt>
      <trkpt lat="44.49794" lon="6.67202">
        <ele>2923.51</ele>
        <time>2011-03-21T11:32:01Z</time>
      </trkpt>
      <trkpt lat="44.49794" lon="6.67202">
        <ele>2923.99</ele>
        <time>2011-03-21T11:32:33Z</time>
      </trkpt>
      <trkpt lat="44.49794" lon="6.67202">
        <ele>2923.99</ele>
        <time>2011-03-21T11:32:55Z</time>
      </trkpt>
      <trkpt lat="44.49794" lon="6.67202">
        <ele>2923.51</ele>
        <time>2011-03-21T11:33:32Z</time>
      </trkpt>
      <trkpt lat="44.49794" lon="6.67202">
        <ele>2923.99</ele>
        <time>2011-03-21T11:34:10Z</time>
      </trkpt>
      <trkpt lat="44.49794" lon="6.67202">
        <ele>2924.47</ele>
        <time>2011-03-21T11:34:48Z</time>
      </trkpt>
      <trkpt lat="44.49794" lon="6.67202">
        <ele>2923.99</ele>
        <time>2011-03-21T11:35:26Z</time>
      </trkpt>
      <trkpt lat="44.49794" lon="6.67202">
        <ele>2923.99</ele>
        <time>2011-03-21T11:36:02Z</time>
      </trkpt>
      <trkpt lat="44.49794" lon="6.67202">
        <ele>2924.47</ele>
        <time>2011-03-21T11:36:40Z</time>
      </trkpt>
      <trkpt lat="44.49794" lon="6.67202">
        <ele>2923.99</ele>
        <time>2011-03-21T11:37:13Z</time>
      </trkpt>
      <trkpt lat="44.49794" lon="6.67202">
        <ele>2923.99</ele>
        <time>2011-03-21T11:37:39Z</time>
      </trkpt>
      <trkpt lat="44.49794" lon="6.67202">
        <ele>2923.99</ele>
        <time>2011-03-21T11:38:14Z</time>
      </trkpt>
      <trkpt lat="44.49794" lon="6.67203">
        <ele>2924.47</ele>
        <time>2011-03-21T11:38:45Z</time>
      </trkpt>
      <trkpt lat="44.49794" lon="6.67203">
        <ele>2923.99</ele>
        <time>2011-03-21T11:39:15Z</time>
      </trkpt>
      <trkpt lat="44.49794" lon="6.67203">
        <ele>2923.51</ele>
        <time>2011-03-21T11:39:50Z</time>
      </trkpt>
      <trkpt lat="44.49794" lon="6.67202">
        <ele>2923.99</ele>
        <time>2011-03-21T11:40:28Z</time>
      </trkpt>
      <trkpt lat="44.49794" lon="6.67202">
        <ele>2923.51</ele>
        <time>2011-03-21T11:40:29Z</time>
      </trkpt>
      <trkpt lat="44.49794" lon="6.67202">
        <ele>2924.47</ele>
        <time>2011-03-21T11:41:06Z</time>
      </trkpt>
      <trkpt lat="44.49794" lon="6.67202">
        <ele>2924.95</ele>
        <time>2011-03-21T11:41:35Z</time>
      </trkpt>
      <trkpt lat="44.49794" lon="6.67202">
        <ele>2924.47</ele>
        <time>2011-03-21T11:42:05Z</time>
      </trkpt>
      <trkpt lat="44.49794" lon="6.67202">
        <ele>2923.99</ele>
        <time>2011-03-21T11:42:37Z</time>
      </trkpt>
      <trkpt lat="44.49794" lon="6.67202">
        <ele>2923.51</ele>
        <time>2011-03-21T11:43:19Z</time>
      </trkpt>
      <trkpt lat="44.49794" lon="6.67202">
        <ele>2923.51</ele>
        <time>2011-03-21T11:43:53Z</time>
      </trkpt>
      <trkpt lat="44.49794" lon="6.67202">
        <ele>2923.51</ele>
        <time>2011-03-21T11:44:25Z</time>
      </trkpt>
      <trkpt lat="44.49794" lon="6.67202">
        <ele>2923.51</ele>
        <time>2011-03-21T11:45:03Z</time>
      </trkpt>
      <trkpt lat="44.49794" lon="6.67202">
        <ele>2923.51</ele>
        <time>2011-03-21T11:45:38Z</time>
      </trkpt>
      <trkpt lat="44.49795" lon="6.67201">
        <ele>2923.51</ele>
        <time>2011-03-21T11:46:20Z</time>
      </trkpt>
      <trkpt lat="44.49795" lon="6.67201">
        <ele>2923.51</ele>
        <time>2011-03-21T11:47:03Z</time>
      </trkpt>
      <trkpt lat="44.49795" lon="6.67201">
        <ele>2923.51</ele>
        <time>2011-03-21T11:47:35Z</time>
      </trkpt>
      <trkpt lat="44.49795" lon="6.67201">
        <ele>2924.47</ele>
        <time>2011-03-21T11:48:00Z</time>
      </trkpt>
      <trkpt lat="44.49795" lon="6.67202">
        <ele>2923.51</ele>
        <time>2011-03-21T11:48:35Z</time>
      </trkpt>
      <trkpt lat="44.49795" lon="6.67202">
        <ele>2923.03</ele>
        <time>2011-03-21T11:49:03Z</time>
      </trkpt>
      <trkpt lat="44.49795" lon="6.67202">
        <ele>2923.99</ele>
        <time>2011-03-21T11:49:40Z</time>
      </trkpt>
      <trkpt lat="44.49795" lon="6.67202">
        <ele>2923.51</ele>
        <time>2011-03-21T11:50:18Z</time>
      </trkpt>
      <trkpt lat="44.49795" lon="6.67202">
        <ele>2923.99</ele>
        <time>2011-03-21T11:51:00Z</time>
      </trkpt>
      <trkpt lat="44.49795" lon="6.67202">
        <ele>2924.95</ele>
        <time>2011-03-21T11:51:44Z</time>
      </trkpt>
      <trkpt lat="44.49795" lon="6.67202">
        <ele>2925.91</ele>
        <time>2011-03-21T11:52:04Z</time>
      </trkpt>
      <trkpt lat="44.49795" lon="6.67202">
        <ele>2925.43</ele>
        <time>2011-03-21T11:52:21Z</time>
      </trkpt>
      <trkpt lat="44.49795" lon="6.67202">
        <ele>2924.47</ele>
        <time>2011-03-21T11:52:32Z</time>
      </trkpt>
      <trkpt lat="44.49795" lon="6.67202">
        <ele>2925.91</ele>
        <time>2011-03-21T11:52:51Z</time>
      </trkpt>
      <trkpt lat="44.49795" lon="6.67202">
        <ele>2925.43</ele>
        <time>2011-03-21T11:53:05Z</time>
      </trkpt>
      <trkpt lat="44.49795" lon="6.67203">
        <ele>2925.91</ele>
        <time>2011-03-21T11:53:22Z</time>
      </trkpt>
      <trkpt lat="44.49795" lon="6.67203">
        <ele>2924.95</ele>
        <time>2011-03-21T11:53:39Z</time>
      </trkpt>
      <trkpt lat="44.49795" lon="6.67202">
        <ele>2926.87</ele>
        <time>2011-03-21T11:53:52Z</time>
      </trkpt>
      <trkpt lat="44.49795" lon="6.67202">
        <ele>2926.39</ele>
        <time>2011-03-21T11:54:02Z</time>
      </trkpt>
      <trkpt lat="44.49797" lon="6.67204">
        <ele>2924.47</ele>
        <time>2011-03-21T11:54:09Z</time>
      </trkpt>
      <trkpt lat="44.49799" lon="6.67212">
        <ele>2922.54</ele>
        <time>2011-03-21T11:54:13Z</time>
      </trkpt>
      <trkpt lat="44.49802" lon="6.67226">
        <ele>2920.14</ele>
        <time>2011-03-21T11:54:24Z</time>
      </trkpt>
      <trkpt lat="44.49803" lon="6.67232">
        <ele>2918.22</ele>
        <time>2011-03-21T11:54:28Z</time>
      </trkpt>
      <trkpt lat="44.49806" lon="6.67241">
        <ele>2914.37</ele>
        <time>2011-03-21T11:54:33Z</time>
      </trkpt>
      <trkpt lat="44.49807" lon="6.67244">
        <ele>2913.41</ele>
        <time>2011-03-21T11:54:35Z</time>
      </trkpt>
      <trkpt lat="44.49808" lon="6.67247">
        <ele>2912.45</ele>
        <time>2011-03-21T11:54:37Z</time>
      </trkpt>
      <trkpt lat="44.49809" lon="6.67251">
        <ele>2911.01</ele>
        <time>2011-03-21T11:54:40Z</time>
      </trkpt>
      <trkpt lat="44.4981" lon="6.67258">
        <ele>2908.13</ele>
        <time>2011-03-21T11:54:45Z</time>
      </trkpt>
      <trkpt lat="44.4981" lon="6.67259">
        <ele>2907.65</ele>
        <time>2011-03-21T11:54:46Z</time>
      </trkpt>
      <trkpt lat="44.49812" lon="6.67264">
        <ele>2905.72</ele>
        <time>2011-03-21T11:54:49Z</time>
      </trkpt>
      <trkpt lat="44.49816" lon="6.67271">
        <ele>2902.84</ele>
        <time>2011-03-21T11:54:55Z</time>
      </trkpt>
      <trkpt lat="44.49818" lon="6.67278">
        <ele>2899.95</ele>
        <time>2011-03-21T11:55:00Z</time>
      </trkpt>
      <trkpt lat="44.4982" lon="6.6729">
        <ele>2895.15</ele>
        <time>2011-03-21T11:55:04Z</time>
      </trkpt>
      <trkpt lat="44.49822" lon="6.673">
        <ele>2892.26</ele>
        <time>2011-03-21T11:55:07Z</time>
      </trkpt>
      <trkpt lat="44.49823" lon="6.67311">
        <ele>2891.3</ele>
        <time>2011-03-21T11:55:09Z</time>
      </trkpt>
      <trkpt lat="44.49826" lon="6.67328">
        <ele>2884.57</ele>
        <time>2011-03-21T11:55:13Z</time>
      </trkpt>
      <trkpt lat="44.49829" lon="6.67338">
        <ele>2880.73</ele>
        <time>2011-03-21T11:55:15Z</time>
      </trkpt>
      <trkpt lat="44.4983" lon="6.67343">
        <ele>2880.25</ele>
        <time>2011-03-21T11:55:16Z</time>
      </trkpt>
      <trkpt lat="44.49833" lon="6.67361">
        <ele>2873.52</ele>
        <time>2011-03-21T11:55:19Z</time>
      </trkpt>
      <trkpt lat="44.49834" lon="6.67373">
        <ele>2869.67</ele>
        <time>2011-03-21T11:55:21Z</time>
      </trkpt>
      <trkpt lat="44.49838" lon="6.67378">
        <ele>2869.67</ele>
        <time>2011-03-21T11:55:22Z</time>
      </trkpt>
      <trkpt lat="44.4984" lon="6.67388">
        <ele>2867.75</ele>
        <time>2011-03-21T11:55:24Z</time>
      </trkpt>
      <trkpt lat="44.49841" lon="6.67411">
        <ele>2862.46</ele>
        <time>2011-03-21T11:55:29Z</time>
      </trkpt>
      <trkpt lat="44.49838" lon="6.67411">
        <ele>2861.5</ele>
        <time>2011-03-21T11:55:40Z</time>
      </trkpt>
      <trkpt lat="44.49838" lon="6.67411">
        <ele>2861.98</ele>
        <time>2011-03-21T11:56:07Z</time>
      </trkpt>
      <trkpt lat="44.49838" lon="6.6741">
        <ele>2862.46</ele>
        <time>2011-03-21T11:56:29Z</time>
      </trkpt>
      <trkpt lat="44.49838" lon="6.6741">
        <ele>2861.5</ele>
        <time>2011-03-21T11:56:56Z</time>
      </trkpt>
      <trkpt lat="44.49838" lon="6.67409">
        <ele>2861.5</ele>
        <time>2011-03-21T11:57:26Z</time>
      </trkpt>
      <trkpt lat="44.49838" lon="6.67409">
        <ele>2861.02</ele>
        <time>2011-03-21T11:57:55Z</time>
      </trkpt>
      <trkpt lat="44.49838" lon="6.67409">
        <ele>2861.02</ele>
        <time>2011-03-21T11:58:26Z</time>
      </trkpt>
      <trkpt lat="44.49838" lon="6.67408">
        <ele>2861.5</ele>
        <time>2011-03-21T11:58:57Z</time>
      </trkpt>
      <trkpt lat="44.49838" lon="6.67408">
        <ele>2861.5</ele>
        <time>2011-03-21T11:59:28Z</time>
      </trkpt>
      <trkpt lat="44.49837" lon="6.67408">
        <ele>2861.98</ele>
        <time>2011-03-21T12:00:00Z</time>
      </trkpt>
      <trkpt lat="44.49837" lon="6.67408">
        <ele>2861.98</ele>
        <time>2011-03-21T12:00:37Z</time>
      </trkpt>
      <trkpt lat="44.49837" lon="6.67408">
        <ele>2861.5</ele>
        <time>2011-03-21T12:01:00Z</time>
      </trkpt>
      <trkpt lat="44.49837" lon="6.67408">
        <ele>2861.02</ele>
        <time>2011-03-21T12:01:02Z</time>
      </trkpt>
      <trkpt lat="44.49841" lon="6.67428">
        <ele>2857.18</ele>
        <time>2011-03-21T12:01:07Z</time>
      </trkpt>
      <trkpt lat="44.49845" lon="6.67457">
        <ele>2853.33</ele>
        <time>2011-03-21T12:01:12Z</time>
      </trkpt>
      <trkpt lat="44.49847" lon="6.67463">
        <ele>2852.37</ele>
        <time>2011-03-21T12:01:15Z</time>
      </trkpt>
      <trkpt lat="44.49845" lon="6.67462">
        <ele>2852.37</ele>
        <time>2011-03-21T12:01:42Z</time>
      </trkpt>
      <trkpt lat="44.49845" lon="6.67461">
        <ele>2853.33</ele>
        <time>2011-03-21T12:02:06Z</time>
      </trkpt>
      <trkpt lat="44.49848" lon="6.67468">
        <ele>2852.85</ele>
        <time>2011-03-21T12:02:09Z</time>
      </trkpt>
      <trkpt lat="44.49849" lon="6.67482">
        <ele>2850.45</ele>
        <time>2011-03-21T12:02:12Z</time>
      </trkpt>
      <trkpt lat="44.49845" lon="6.67507">
        <ele>2846.6</ele>
        <time>2011-03-21T12:02:16Z</time>
      </trkpt>
      <trkpt lat="44.49843" lon="6.67516">
        <ele>2843.24</ele>
        <time>2011-03-21T12:02:18Z</time>
      </trkpt>
      <trkpt lat="44.49843" lon="6.6752">
        <ele>2841.79</ele>
        <time>2011-03-21T12:02:19Z</time>
      </trkpt>
      <trkpt lat="44.49845" lon="6.67545">
        <ele>2836.99</ele>
        <time>2011-03-21T12:02:23Z</time>
      </trkpt>
      <trkpt lat="44.49845" lon="6.67551">
        <ele>2835.06</ele>
        <time>2011-03-21T12:02:24Z</time>
      </trkpt>
      <trkpt lat="44.49845" lon="6.67563">
        <ele>2832.66</ele>
        <time>2011-03-21T12:02:26Z</time>
      </trkpt>
      <trkpt lat="44.49843" lon="6.67586">
        <ele>2827.37</ele>
        <time>2011-03-21T12:02:30Z</time>
      </trkpt>
      <trkpt lat="44.49838" lon="6.67615">
        <ele>2823.53</ele>
        <time>2011-03-21T12:02:34Z</time>
      </trkpt>
      <trkpt lat="44.49834" lon="6.67637">
        <ele>2818.72</ele>
        <time>2011-03-21T12:02:37Z</time>
      </trkpt>
      <trkpt lat="44.49834" lon="6.67642">
        <ele>2817.76</ele>
        <time>2011-03-21T12:02:39Z</time>
      </trkpt>
      <trkpt lat="44.49834" lon="6.67643">
        <ele>2817.28</ele>
        <time>2011-03-21T12:02:55Z</time>
      </trkpt>
      <trkpt lat="44.49834" lon="6.67643">
        <ele>2816.32</ele>
        <time>2011-03-21T12:03:15Z</time>
      </trkpt>
      <trkpt lat="44.49838" lon="6.67652">
        <ele>2813.92</ele>
        <time>2011-03-21T12:03:19Z</time>
      </trkpt>
      <trkpt lat="44.49841" lon="6.67656">
        <ele>2811.99</ele>
        <time>2011-03-21T12:03:30Z</time>
      </trkpt>
      <trkpt lat="44.49841" lon="6.67656">
        <ele>2811.99</ele>
        <time>2011-03-21T12:03:37Z</time>
      </trkpt>
      <trkpt lat="44.49843" lon="6.67652">
        <ele>2810.55</ele>
        <time>2011-03-21T12:03:40Z</time>
      </trkpt>
      <trkpt lat="44.49848" lon="6.67645">
        <ele>2808.63</ele>
        <time>2011-03-21T12:03:43Z</time>
      </trkpt>
      <trkpt lat="44.49857" lon="6.67647">
        <ele>2803.34</ele>
        <time>2011-03-21T12:03:47Z</time>
      </trkpt>
      <trkpt lat="44.49862" lon="6.67647">
        <ele>2800.46</ele>
        <time>2011-03-21T12:03:49Z</time>
      </trkpt>
      <trkpt lat="44.49868" lon="6.67655">
        <ele>2795.17</ele>
        <time>2011-03-21T12:03:51Z</time>
      </trkpt>
      <trkpt lat="44.49874" lon="6.67665">
        <ele>2791.33</ele>
        <time>2011-03-21T12:03:53Z</time>
      </trkpt>
      <trkpt lat="44.49876" lon="6.67671">
        <ele>2787.96</ele>
        <time>2011-03-21T12:03:54Z</time>
      </trkpt>
      <trkpt lat="44.49882" lon="6.67685">
        <ele>2784.12</ele>
        <time>2011-03-21T12:03:58Z</time>
      </trkpt>
      <trkpt lat="44.49884" lon="6.67697">
        <ele>2781.23</ele>
        <time>2011-03-21T12:04:00Z</time>
      </trkpt>
      <trkpt lat="44.49882" lon="6.67724">
        <ele>2777.87</ele>
        <time>2011-03-21T12:04:05Z</time>
      </trkpt>
      <trkpt lat="44.49881" lon="6.67728">
        <ele>2777.39</ele>
        <time>2011-03-21T12:04:06Z</time>
      </trkpt>
      <trkpt lat="44.4988" lon="6.67742">
        <ele>2774.98</ele>
        <time>2011-03-21T12:04:11Z</time>
      </trkpt>
      <trkpt lat="44.49878" lon="6.67752">
        <ele>2774.02</ele>
        <time>2011-03-21T12:04:14Z</time>
      </trkpt>
      <trkpt lat="44.49878" lon="6.67761">
        <ele>2772.1</ele>
        <time>2011-03-21T12:04:19Z</time>
      </trkpt>
      <trkpt lat="44.49878" lon="6.67761">
        <ele>2771.62</ele>
        <time>2011-03-21T12:04:36Z</time>
      </trkpt>
      <trkpt lat="44.49885" lon="6.6777">
        <ele>2767.77</ele>
        <time>2011-03-21T12:04:39Z</time>
      </trkpt>
      <trkpt lat="44.49892" lon="6.67785">
        <ele>2762.49</ele>
        <time>2011-03-21T12:04:42Z</time>
      </trkpt>
      <trkpt lat="44.49894" lon="6.67792">
        <ele>2762.97</ele>
        <time>2011-03-21T12:04:43Z</time>
      </trkpt>
      <trkpt lat="44.49898" lon="6.67816">
        <ele>2759.12</ele>
        <time>2011-03-21T12:04:46Z</time>
      </trkpt>
      <trkpt lat="44.49901" lon="6.67849">
        <ele>2754.8</ele>
        <time>2011-03-21T12:04:51Z</time>
      </trkpt>
      <trkpt lat="44.499" lon="6.67855">
        <ele>2752.87</ele>
        <time>2011-03-21T12:04:58Z</time>
      </trkpt>
      <trkpt lat="44.499" lon="6.67855">
        <ele>2753.35</ele>
        <time>2011-03-21T12:05:15Z</time>
      </trkpt>
      <trkpt lat="44.49898" lon="6.67865">
        <ele>2751.43</ele>
        <time>2011-03-21T12:05:20Z</time>
      </trkpt>
      <trkpt lat="44.49894" lon="6.67875">
        <ele>2750.47</ele>
        <time>2011-03-21T12:05:24Z</time>
      </trkpt>
      <trkpt lat="44.49895" lon="6.67886">
        <ele>2746.62</ele>
        <time>2011-03-21T12:05:27Z</time>
      </trkpt>
      <trkpt lat="44.49895" lon="6.67892">
        <ele>2745.66</ele>
        <time>2011-03-21T12:05:28Z</time>
      </trkpt>
      <trkpt lat="44.49903" lon="6.67911">
        <ele>2737.97</ele>
        <time>2011-03-21T12:05:32Z</time>
      </trkpt>
      <trkpt lat="44.49908" lon="6.67924">
        <ele>2733.65</ele>
        <time>2011-03-21T12:05:34Z</time>
      </trkpt>
      <trkpt lat="44.49906" lon="6.67931">
        <ele>2729.32</ele>
        <time>2011-03-21T12:05:37Z</time>
      </trkpt>
      <trkpt lat="44.49905" lon="6.6793">
        <ele>2729.32</ele>
        <time>2011-03-21T12:05:50Z</time>
      </trkpt>
      <trkpt lat="44.49906" lon="6.6793">
        <ele>2729.32</ele>
        <time>2011-03-21T12:05:59Z</time>
      </trkpt>
      <trkpt lat="44.49904" lon="6.67938">
        <ele>2728.84</ele>
        <time>2011-03-21T12:06:03Z</time>
      </trkpt>
      <trkpt lat="44.499" lon="6.67976">
        <ele>2724.99</ele>
        <time>2011-03-21T12:06:15Z</time>
      </trkpt>
      <trkpt lat="44.49896" lon="6.67994">
        <ele>2723.07</ele>
        <time>2011-03-21T12:06:20Z</time>
      </trkpt>
      <trkpt lat="44.49895" lon="6.68004">
        <ele>2722.11</ele>
        <time>2011-03-21T12:06:23Z</time>
      </trkpt>
      <trkpt lat="44.49902" lon="6.68016">
        <ele>2718.75</ele>
        <time>2011-03-21T12:06:26Z</time>
      </trkpt>
      <trkpt lat="44.49906" lon="6.6802">
        <ele>2714.9</ele>
        <time>2011-03-21T12:06:27Z</time>
      </trkpt>
      <trkpt lat="44.49918" lon="6.6803">
        <ele>2709.61</ele>
        <time>2011-03-21T12:06:29Z</time>
      </trkpt>
      <trkpt lat="44.49929" lon="6.68041">
        <ele>2706.25</ele>
        <time>2011-03-21T12:06:31Z</time>
      </trkpt>
      <trkpt lat="44.49935" lon="6.68045">
        <ele>2704.33</ele>
        <time>2011-03-21T12:06:32Z</time>
      </trkpt>
      <trkpt lat="44.49955" lon="6.6804">
        <ele>2695.67</ele>
        <time>2011-03-21T12:06:36Z</time>
      </trkpt>
      <trkpt lat="44.49959" lon="6.68037">
        <ele>2694.71</ele>
        <time>2011-03-21T12:06:38Z</time>
      </trkpt>
      <trkpt lat="44.49962" lon="6.68044">
        <ele>2694.71</ele>
        <time>2011-03-21T12:06:48Z</time>
      </trkpt>
      <trkpt lat="44.49962" lon="6.68044">
        <ele>2694.71</ele>
        <time>2011-03-21T12:07:20Z</time>
      </trkpt>
      <trkpt lat="44.49962" lon="6.68043">
        <ele>2694.23</ele>
        <time>2011-03-21T12:07:43Z</time>
      </trkpt>
      <trkpt lat="44.49963" lon="6.68044">
        <ele>2694.23</ele>
        <time>2011-03-21T12:07:53Z</time>
      </trkpt>
      <trkpt lat="44.49966" lon="6.6805">
        <ele>2693.75</ele>
        <time>2011-03-21T12:07:57Z</time>
      </trkpt>
      <trkpt lat="44.49968" lon="6.68061">
        <ele>2693.27</ele>
        <time>2011-03-21T12:08:09Z</time>
      </trkpt>
      <trkpt lat="44.49968" lon="6.68064">
        <ele>2692.79</ele>
        <time>2011-03-21T12:08:15Z</time>
      </trkpt>
      <trkpt lat="44.49967" lon="6.68081">
        <ele>2692.31</ele>
        <time>2011-03-21T12:08:29Z</time>
      </trkpt>
      <trkpt lat="44.49967" lon="6.68082">
        <ele>2691.83</ele>
        <time>2011-03-21T12:08:45Z</time>
      </trkpt>
      <trkpt lat="44.49966" lon="6.68097">
        <ele>2690.39</ele>
        <time>2011-03-21T12:08:55Z</time>
      </trkpt>
      <trkpt lat="44.4998" lon="6.68099">
        <ele>2684.62</ele>
        <time>2011-03-21T12:08:59Z</time>
      </trkpt>
      <trkpt lat="44.49986" lon="6.68099">
        <ele>2682.22</ele>
        <time>2011-03-21T12:09:00Z</time>
      </trkpt>
      <trkpt lat="44.50003" lon="6.68098">
        <ele>2672.6</ele>
        <time>2011-03-21T12:09:03Z</time>
      </trkpt>
      <trkpt lat="44.50008" lon="6.68097">
        <ele>2667.31</ele>
        <time>2011-03-21T12:09:04Z</time>
      </trkpt>
      <trkpt lat="44.50011" lon="6.68096">
        <ele>2662.03</ele>
        <time>2011-03-21T12:09:05Z</time>
      </trkpt>
      <trkpt lat="44.50013" lon="6.68096">
        <ele>2663.95</ele>
        <time>2011-03-21T12:09:06Z</time>
      </trkpt>
      <trkpt lat="44.50011" lon="6.68094">
        <ele>2663.47</ele>
        <time>2011-03-21T12:09:16Z</time>
      </trkpt>
      <trkpt lat="44.50013" lon="6.68095">
        <ele>2662.99</ele>
        <time>2011-03-21T12:09:21Z</time>
      </trkpt>
      <trkpt lat="44.50024" lon="6.68098">
        <ele>2659.14</ele>
        <time>2011-03-21T12:09:25Z</time>
      </trkpt>
      <trkpt lat="44.50033" lon="6.68101">
        <ele>2654.34</ele>
        <time>2011-03-21T12:09:27Z</time>
      </trkpt>
      <trkpt lat="44.50042" lon="6.68104">
        <ele>2649.05</ele>
        <time>2011-03-21T12:09:29Z</time>
      </trkpt>
      <trkpt lat="44.50043" lon="6.68105">
        <ele>2646.65</ele>
        <time>2011-03-21T12:09:32Z</time>
      </trkpt>
      <trkpt lat="44.50043" lon="6.68105">
        <ele>2646.65</ele>
        <time>2011-03-21T12:09:56Z</time>
      </trkpt>
      <trkpt lat="44.50042" lon="6.68104">
        <ele>2645.69</ele>
        <time>2011-03-21T12:10:06Z</time>
      </trkpt>
      <trkpt lat="44.5004" lon="6.68103">
        <ele>2647.13</ele>
        <time>2011-03-21T12:10:15Z</time>
      </trkpt>
      <trkpt lat="44.5004" lon="6.68103">
        <ele>2647.13</ele>
        <time>2011-03-21T12:10:39Z</time>
      </trkpt>
      <trkpt lat="44.5004" lon="6.68103">
        <ele>2647.13</ele>
        <time>2011-03-21T12:10:43Z</time>
      </trkpt>
      <trkpt lat="44.5004" lon="6.68106">
        <ele>2647.13</ele>
        <time>2011-03-21T12:11:00Z</time>
      </trkpt>
      <trkpt lat="44.50043" lon="6.68118">
        <ele>2645.21</ele>
        <time>2011-03-21T12:11:05Z</time>
      </trkpt>
      <trkpt lat="44.50053" lon="6.68125">
        <ele>2640.4</ele>
        <time>2011-03-21T12:11:08Z</time>
      </trkpt>
      <trkpt lat="44.50061" lon="6.68134">
        <ele>2637.03</ele>
        <time>2011-03-21T12:11:10Z</time>
      </trkpt>
      <trkpt lat="44.5007" lon="6.68142">
        <ele>2632.23</ele>
        <time>2011-03-21T12:11:12Z</time>
      </trkpt>
      <trkpt lat="44.50073" lon="6.68146">
        <ele>2630.79</ele>
        <time>2011-03-21T12:11:13Z</time>
      </trkpt>
      <trkpt lat="44.50087" lon="6.68158">
        <ele>2621.65</ele>
        <time>2011-03-21T12:11:16Z</time>
      </trkpt>
      <trkpt lat="44.50097" lon="6.68169">
        <ele>2617.81</ele>
        <time>2011-03-21T12:11:18Z</time>
      </trkpt>
      <trkpt lat="44.50106" lon="6.68181">
        <ele>2613.48</ele>
        <time>2011-03-21T12:11:20Z</time>
      </trkpt>
      <trkpt lat="44.50111" lon="6.68204">
        <ele>2608.67</ele>
        <time>2011-03-21T12:11:25Z</time>
      </trkpt>
      <trkpt lat="44.50111" lon="6.68204">
        <ele>2608.67</ele>
        <time>2011-03-21T12:11:26Z</time>
      </trkpt>
      <trkpt lat="44.5011" lon="6.68204">
        <ele>2609.16</ele>
        <time>2011-03-21T12:11:43Z</time>
      </trkpt>
      <trkpt lat="44.5011" lon="6.68204">
        <ele>2609.16</ele>
        <time>2011-03-21T12:12:10Z</time>
      </trkpt>
      <trkpt lat="44.50111" lon="6.68204">
        <ele>2609.16</ele>
        <time>2011-03-21T12:12:30Z</time>
      </trkpt>
      <trkpt lat="44.50111" lon="6.68204">
        <ele>2609.16</ele>
        <time>2011-03-21T12:12:54Z</time>
      </trkpt>
      <trkpt lat="44.50112" lon="6.68201">
        <ele>2608.19</ele>
        <time>2011-03-21T12:13:06Z</time>
      </trkpt>
      <trkpt lat="44.5012" lon="6.68197">
        <ele>2607.23</ele>
        <time>2011-03-21T12:13:11Z</time>
      </trkpt>
      <trkpt lat="44.50125" lon="6.68194">
        <ele>2605.79</ele>
        <time>2011-03-21T12:13:14Z</time>
      </trkpt>
      <trkpt lat="44.50135" lon="6.68196">
        <ele>2601.46</ele>
        <time>2011-03-21T12:13:17Z</time>
      </trkpt>
      <trkpt lat="44.50141" lon="6.68197">
        <ele>2597.62</ele>
        <time>2011-03-21T12:13:19Z</time>
      </trkpt>
      <trkpt lat="44.5015" lon="6.68199">
        <ele>2593.29</ele>
        <time>2011-03-21T12:13:21Z</time>
      </trkpt>
      <trkpt lat="44.5016" lon="6.68201">
        <ele>2588.97</ele>
        <time>2011-03-21T12:13:23Z</time>
      </trkpt>
      <trkpt lat="44.50166" lon="6.68202">
        <ele>2585.12</ele>
        <time>2011-03-21T12:13:24Z</time>
      </trkpt>
      <trkpt lat="44.5018" lon="6.68204">
        <ele>2578.39</ele>
        <time>2011-03-21T12:13:26Z</time>
      </trkpt>
      <trkpt lat="44.50195" lon="6.6821">
        <ele>2574.07</ele>
        <time>2011-03-21T12:13:28Z</time>
      </trkpt>
      <trkpt lat="44.50202" lon="6.68211">
        <ele>2570.22</ele>
        <time>2011-03-21T12:13:29Z</time>
      </trkpt>
      <trkpt lat="44.50217" lon="6.68216">
        <ele>2567.34</ele>
        <time>2011-03-21T12:13:32Z</time>
      </trkpt>
      <trkpt lat="44.50221" lon="6.68224">
        <ele>2564.93</ele>
        <time>2011-03-21T12:13:36Z</time>
      </trkpt>
      <trkpt lat="44.50219" lon="6.68225">
        <ele>2565.9</ele>
        <time>2011-03-21T12:13:52Z</time>
      </trkpt>
      <trkpt lat="44.50219" lon="6.68225">
        <ele>2565.42</ele>
        <time>2011-03-21T12:14:15Z</time>
      </trkpt>
      <trkpt lat="44.5022" lon="6.68224">
        <ele>2564.93</ele>
        <time>2011-03-21T12:14:21Z</time>
      </trkpt>
      <trkpt lat="44.50236" lon="6.68229">
        <ele>2561.09</ele>
        <time>2011-03-21T12:14:27Z</time>
      </trkpt>
      <trkpt lat="44.50244" lon="6.68237">
        <ele>2557.24</ele>
        <time>2011-03-21T12:14:29Z</time>
      </trkpt>
      <trkpt lat="44.50244" lon="6.6824">
        <ele>2555.8</ele>
        <time>2011-03-21T12:14:31Z</time>
      </trkpt>
      <trkpt lat="44.50243" lon="6.6824">
        <ele>2556.28</ele>
        <time>2011-03-21T12:14:54Z</time>
      </trkpt>
      <trkpt lat="44.50244" lon="6.6824">
        <ele>2556.28</ele>
        <time>2011-03-21T12:15:18Z</time>
      </trkpt>
      <trkpt lat="44.50251" lon="6.68256">
        <ele>2552.44</ele>
        <time>2011-03-21T12:15:22Z</time>
      </trkpt>
      <trkpt lat="44.50259" lon="6.68261">
        <ele>2548.11</ele>
        <time>2011-03-21T12:15:24Z</time>
      </trkpt>
      <trkpt lat="44.50263" lon="6.68263">
        <ele>2544.75</ele>
        <time>2011-03-21T12:15:25Z</time>
      </trkpt>
      <trkpt lat="44.50272" lon="6.6827">
        <ele>2540.42</ele>
        <time>2011-03-21T12:15:27Z</time>
      </trkpt>
      <trkpt lat="44.50275" lon="6.68274">
        <ele>2535.61</ele>
        <time>2011-03-21T12:15:28Z</time>
      </trkpt>
      <trkpt lat="44.50279" lon="6.68278">
        <ele>2532.73</ele>
        <time>2011-03-21T12:15:29Z</time>
      </trkpt>
      <trkpt lat="44.50296" lon="6.68304">
        <ele>2521.68</ele>
        <time>2011-03-21T12:15:33Z</time>
      </trkpt>
      <trkpt lat="44.50307" lon="6.68316">
        <ele>2516.39</ele>
        <time>2011-03-21T12:15:35Z</time>
      </trkpt>
      <trkpt lat="44.50321" lon="6.68327">
        <ele>2509.66</ele>
        <time>2011-03-21T12:15:37Z</time>
      </trkpt>
      <trkpt lat="44.50333" lon="6.68337">
        <ele>2505.81</ele>
        <time>2011-03-21T12:15:39Z</time>
      </trkpt>
      <trkpt lat="44.50341" lon="6.68345">
        <ele>2501.49</ele>
        <time>2011-03-21T12:15:41Z</time>
      </trkpt>
      <trkpt lat="44.50351" lon="6.68347">
        <ele>2497.64</ele>
        <time>2011-03-21T12:15:43Z</time>
      </trkpt>
      <trkpt lat="44.50351" lon="6.68346">
        <ele>2498.12</ele>
        <time>2011-03-21T12:15:49Z</time>
      </trkpt>
      <trkpt lat="44.50351" lon="6.68345">
        <ele>2497.64</ele>
        <time>2011-03-21T12:16:08Z</time>
      </trkpt>
      <trkpt lat="44.50357" lon="6.68343">
        <ele>2497.16</ele>
        <time>2011-03-21T12:16:27Z</time>
      </trkpt>
      <trkpt lat="44.50371" lon="6.68339">
        <ele>2494.28</ele>
        <time>2011-03-21T12:16:31Z</time>
      </trkpt>
      <trkpt lat="44.50396" lon="6.68331">
        <ele>2489.95</ele>
        <time>2011-03-21T12:16:38Z</time>
      </trkpt>
      <trkpt lat="44.50407" lon="6.68327">
        <ele>2488.51</ele>
        <time>2011-03-21T12:16:41Z</time>
      </trkpt>
      <trkpt lat="44.5041" lon="6.68322">
        <ele>2488.51</ele>
        <time>2011-03-21T12:16:51Z</time>
      </trkpt>
      <trkpt lat="44.5041" lon="6.68322">
        <ele>2488.51</ele>
        <time>2011-03-21T12:17:01Z</time>
      </trkpt>
      <trkpt lat="44.50424" lon="6.68306">
        <ele>2483.7</ele>
        <time>2011-03-21T12:17:08Z</time>
      </trkpt>
      <trkpt lat="44.50428" lon="6.683">
        <ele>2481.78</ele>
        <time>2011-03-21T12:17:09Z</time>
      </trkpt>
      <trkpt lat="44.50439" lon="6.68294">
        <ele>2480.34</ele>
        <time>2011-03-21T12:17:11Z</time>
      </trkpt>
      <trkpt lat="44.50449" lon="6.683">
        <ele>2480.34</ele>
        <time>2011-03-21T12:17:13Z</time>
      </trkpt>
      <trkpt lat="44.50464" lon="6.68309">
        <ele>2477.94</ele>
        <time>2011-03-21T12:17:20Z</time>
      </trkpt>
      <trkpt lat="44.50465" lon="6.68308">
        <ele>2478.42</ele>
        <time>2011-03-21T12:17:35Z</time>
      </trkpt>
      <trkpt lat="44.50465" lon="6.68308">
        <ele>2477.94</ele>
        <time>2011-03-21T12:17:56Z</time>
      </trkpt>
      <trkpt lat="44.50465" lon="6.68308">
        <ele>2477.94</ele>
        <time>2011-03-21T12:17:57Z</time>
      </trkpt>
      <trkpt lat="44.50466" lon="6.68308">
        <ele>2476.97</ele>
        <time>2011-03-21T12:17:59Z</time>
      </trkpt>
      <trkpt lat="44.50479" lon="6.6831">
        <ele>2473.61</ele>
        <time>2011-03-21T12:18:02Z</time>
      </trkpt>
      <trkpt lat="44.5051" lon="6.68318">
        <ele>2467.84</ele>
        <time>2011-03-21T12:18:06Z</time>
      </trkpt>
      <trkpt lat="44.50536" lon="6.68327">
        <ele>2463.04</ele>
        <time>2011-03-21T12:18:09Z</time>
      </trkpt>
      <trkpt lat="44.50551" lon="6.68334">
        <ele>2461.59</ele>
        <time>2011-03-21T12:18:11Z</time>
      </trkpt>
      <trkpt lat="44.50589" lon="6.68349">
        <ele>2458.71</ele>
        <time>2011-03-21T12:18:18Z</time>
      </trkpt>
      <trkpt lat="44.50602" lon="6.68352">
        <ele>2455.82</ele>
        <time>2011-03-21T12:18:21Z</time>
      </trkpt>
      <trkpt lat="44.50629" lon="6.68358">
        <ele>2451.5</ele>
        <time>2011-03-21T12:18:26Z</time>
      </trkpt>
      <trkpt lat="44.50642" lon="6.6836">
        <ele>2448.13</ele>
        <time>2011-03-21T12:18:28Z</time>
      </trkpt>
      <trkpt lat="44.50668" lon="6.68367">
        <ele>2444.77</ele>
        <time>2011-03-21T12:18:33Z</time>
      </trkpt>
      <trkpt lat="44.50672" lon="6.68369">
        <ele>2444.77</ele>
        <time>2011-03-21T12:18:34Z</time>
      </trkpt>
      <trkpt lat="44.50682" lon="6.68373">
        <ele>2443.81</ele>
        <time>2011-03-21T12:18:36Z</time>
      </trkpt>
      <trkpt lat="44.507" lon="6.68381">
        <ele>2441.89</ele>
        <time>2011-03-21T12:18:40Z</time>
      </trkpt>
      <trkpt lat="44.50709" lon="6.68384">
        <ele>2440.92</ele>
        <time>2011-03-21T12:18:42Z</time>
      </trkpt>
      <trkpt lat="44.50723" lon="6.6839">
        <ele>2439</ele>
        <time>2011-03-21T12:18:45Z</time>
      </trkpt>
      <trkpt lat="44.50746" lon="6.68409">
        <ele>2436.6</ele>
        <time>2011-03-21T12:18:50Z</time>
      </trkpt>
      <trkpt lat="44.50754" lon="6.68419">
        <ele>2436.6</ele>
        <time>2011-03-21T12:18:59Z</time>
      </trkpt>
      <trkpt lat="44.50754" lon="6.6842">
        <ele>2436.12</ele>
        <time>2011-03-21T12:19:15Z</time>
      </trkpt>
      <trkpt lat="44.50766" lon="6.6845">
        <ele>2433.23</ele>
        <time>2011-03-21T12:19:25Z</time>
      </trkpt>
      <trkpt lat="44.50771" lon="6.68459">
        <ele>2431.31</ele>
        <time>2011-03-21T12:19:27Z</time>
      </trkpt>
      <trkpt lat="44.5077" lon="6.68474">
        <ele>2427.47</ele>
        <time>2011-03-21T12:19:30Z</time>
      </trkpt>
      <trkpt lat="44.50768" lon="6.68486">
        <ele>2423.62</ele>
        <time>2011-03-21T12:19:32Z</time>
      </trkpt>
      <trkpt lat="44.50765" lon="6.68502">
        <ele>2417.37</ele>
        <time>2011-03-21T12:19:35Z</time>
      </trkpt>
      <trkpt lat="44.50766" lon="6.68516">
        <ele>2413.05</ele>
        <time>2011-03-21T12:19:37Z</time>
      </trkpt>
      <trkpt lat="44.50768" lon="6.68535">
        <ele>2409.2</ele>
        <time>2011-03-21T12:19:40Z</time>
      </trkpt>
      <trkpt lat="44.50769" lon="6.68542">
        <ele>2409.2</ele>
        <time>2011-03-21T12:19:41Z</time>
      </trkpt>
      <trkpt lat="44.50772" lon="6.68556">
        <ele>2405.36</ele>
        <time>2011-03-21T12:19:43Z</time>
      </trkpt>
      <trkpt lat="44.5078" lon="6.68581">
        <ele>2401.99</ele>
        <time>2011-03-21T12:19:48Z</time>
      </trkpt>
      <trkpt lat="44.50782" lon="6.68588">
        <ele>2400.55</ele>
        <time>2011-03-21T12:19:50Z</time>
      </trkpt>
      <trkpt lat="44.50779" lon="6.686">
        <ele>2395.26</ele>
        <time>2011-03-21T12:19:53Z</time>
      </trkpt>
      <trkpt lat="44.50783" lon="6.68612">
        <ele>2391.42</ele>
        <time>2011-03-21T12:19:55Z</time>
      </trkpt>
      <trkpt lat="44.5079" lon="6.6862">
        <ele>2389.97</ele>
        <time>2011-03-21T12:19:57Z</time>
      </trkpt>
      <trkpt lat="44.50823" lon="6.68647">
        <ele>2385.65</ele>
        <time>2011-03-21T12:20:06Z</time>
      </trkpt>
      <trkpt lat="44.50827" lon="6.68651">
        <ele>2385.65</ele>
        <time>2011-03-21T12:20:07Z</time>
      </trkpt>
      <trkpt lat="44.5084" lon="6.68663">
        <ele>2383.25</ele>
        <time>2011-03-21T12:20:10Z</time>
      </trkpt>
      <trkpt lat="44.50852" lon="6.68676">
        <ele>2381.8</ele>
        <time>2011-03-21T12:20:13Z</time>
      </trkpt>
      <trkpt lat="44.50863" lon="6.68698">
        <ele>2377.96</ele>
        <time>2011-03-21T12:20:18Z</time>
      </trkpt>
      <trkpt lat="44.50863" lon="6.68709">
        <ele>2375.07</ele>
        <time>2011-03-21T12:20:20Z</time>
      </trkpt>
      <trkpt lat="44.50861" lon="6.68728">
        <ele>2368.35</ele>
        <time>2011-03-21T12:20:23Z</time>
      </trkpt>
      <trkpt lat="44.50861" lon="6.68741">
        <ele>2364.5</ele>
        <time>2011-03-21T12:20:25Z</time>
      </trkpt>
      <trkpt lat="44.50863" lon="6.68753">
        <ele>2359.21</ele>
        <time>2011-03-21T12:20:27Z</time>
      </trkpt>
      <trkpt lat="44.50881" lon="6.6878">
        <ele>2355.85</ele>
        <time>2011-03-21T12:20:32Z</time>
      </trkpt>
      <trkpt lat="44.50888" lon="6.68789">
        <ele>2354.89</ele>
        <time>2011-03-21T12:20:34Z</time>
      </trkpt>
      <trkpt lat="44.50895" lon="6.688">
        <ele>2353.93</ele>
        <time>2011-03-21T12:20:36Z</time>
      </trkpt>
      <trkpt lat="44.50901" lon="6.6882">
        <ele>2350.56</ele>
        <time>2011-03-21T12:20:39Z</time>
      </trkpt>
      <trkpt lat="44.50899" lon="6.68843">
        <ele>2343.35</ele>
        <time>2011-03-21T12:20:42Z</time>
      </trkpt>
      <trkpt lat="44.50896" lon="6.68867">
        <ele>2337.58</ele>
        <time>2011-03-21T12:20:45Z</time>
      </trkpt>
      <trkpt lat="44.50896" lon="6.68877">
        <ele>2338.06</ele>
        <time>2011-03-21T12:20:46Z</time>
      </trkpt>
      <trkpt lat="44.50896" lon="6.68886">
        <ele>2335.18</ele>
        <time>2011-03-21T12:20:47Z</time>
      </trkpt>
      <trkpt lat="44.50898" lon="6.68895">
        <ele>2332.3</ele>
        <time>2011-03-21T12:20:49Z</time>
      </trkpt>
      <trkpt lat="44.50898" lon="6.68899">
        <ele>2332.3</ele>
        <time>2011-03-21T12:20:57Z</time>
      </trkpt>
      <trkpt lat="44.50899" lon="6.68898">
        <ele>2332.3</ele>
        <time>2011-03-21T12:21:12Z</time>
      </trkpt>
      <trkpt lat="44.50901" lon="6.68896">
        <ele>2332.3</ele>
        <time>2011-03-21T12:21:26Z</time>
      </trkpt>
      <trkpt lat="44.50914" lon="6.68894">
        <ele>2330.37</ele>
        <time>2011-03-21T12:21:31Z</time>
      </trkpt>
      <trkpt lat="44.50925" lon="6.68898">
        <ele>2329.41</ele>
        <time>2011-03-21T12:21:34Z</time>
      </trkpt>
      <trkpt lat="44.50956" lon="6.68917">
        <ele>2326.05</ele>
        <time>2011-03-21T12:21:41Z</time>
      </trkpt>
      <trkpt lat="44.50994" lon="6.68944">
        <ele>2322.2</ele>
        <time>2011-03-21T12:21:50Z</time>
      </trkpt>
      <trkpt lat="44.51014" lon="6.68957">
        <ele>2319.32</ele>
        <time>2011-03-21T12:21:54Z</time>
      </trkpt>
      <trkpt lat="44.51033" lon="6.68971">
        <ele>2317.4</ele>
        <time>2011-03-21T12:21:59Z</time>
      </trkpt>
      <trkpt lat="44.51056" lon="6.68989">
        <ele>2315.47</ele>
        <time>2011-03-21T12:22:10Z</time>
      </trkpt>
      <trkpt lat="44.51076" lon="6.69016">
        <ele>2312.11</ele>
        <time>2011-03-21T12:22:20Z</time>
      </trkpt>
      <trkpt lat="44.5108" lon="6.6902">
        <ele>2312.59</ele>
        <time>2011-03-21T12:22:29Z</time>
      </trkpt>
      <trkpt lat="44.5108" lon="6.6902">
        <ele>2312.59</ele>
        <time>2011-03-21T12:22:52Z</time>
      </trkpt>
      <trkpt lat="44.51082" lon="6.69025">
        <ele>2310.67</ele>
        <time>2011-03-21T12:22:54Z</time>
      </trkpt>
      <trkpt lat="44.51087" lon="6.69044">
        <ele>2306.34</ele>
        <time>2011-03-21T12:22:58Z</time>
      </trkpt>
      <trkpt lat="44.51086" lon="6.69057">
        <ele>2302.01</ele>
        <time>2011-03-21T12:23:00Z</time>
      </trkpt>
      <trkpt lat="44.51092" lon="6.69074">
        <ele>2295.28</ele>
        <time>2011-03-21T12:23:03Z</time>
      </trkpt>
      <trkpt lat="44.51096" lon="6.69077">
        <ele>2294.32</ele>
        <time>2011-03-21T12:23:04Z</time>
      </trkpt>
      <trkpt lat="44.51106" lon="6.69096">
        <ele>2288.56</ele>
        <time>2011-03-21T12:23:08Z</time>
      </trkpt>
      <trkpt lat="44.5111" lon="6.69108">
        <ele>2283.75</ele>
        <time>2011-03-21T12:23:10Z</time>
      </trkpt>
      <trkpt lat="44.51116" lon="6.69118">
        <ele>2279.9</ele>
        <time>2011-03-21T12:23:12Z</time>
      </trkpt>
      <trkpt lat="44.5112" lon="6.6913">
        <ele>2274.62</ele>
        <time>2011-03-21T12:23:14Z</time>
      </trkpt>
      <trkpt lat="44.51121" lon="6.69139">
        <ele>2273.66</ele>
        <time>2011-03-21T12:23:15Z</time>
      </trkpt>
      <trkpt lat="44.51118" lon="6.69162">
        <ele>2270.29</ele>
        <time>2011-03-21T12:23:18Z</time>
      </trkpt>
      <trkpt lat="44.51115" lon="6.69166">
        <ele>2268.85</ele>
        <time>2011-03-21T12:23:22Z</time>
      </trkpt>
      <trkpt lat="44.51117" lon="6.69166">
        <ele>2269.33</ele>
        <time>2011-03-21T12:23:37Z</time>
      </trkpt>
      <trkpt lat="44.51117" lon="6.69166">
        <ele>2268.37</ele>
        <time>2011-03-21T12:23:59Z</time>
      </trkpt>
      <trkpt lat="44.51116" lon="6.69166">
        <ele>2268.85</ele>
        <time>2011-03-21T12:24:33Z</time>
      </trkpt>
      <trkpt lat="44.51116" lon="6.69166">
        <ele>2269.33</ele>
        <time>2011-03-21T12:24:58Z</time>
      </trkpt>
      <trkpt lat="44.51115" lon="6.69166">
        <ele>2269.33</ele>
        <time>2011-03-21T12:25:34Z</time>
      </trkpt>
      <trkpt lat="44.51115" lon="6.69166">
        <ele>2269.33</ele>
        <time>2011-03-21T12:25:47Z</time>
      </trkpt>
      <trkpt lat="44.51118" lon="6.69191">
        <ele>2266.93</ele>
        <time>2011-03-21T12:25:53Z</time>
      </trkpt>
      <trkpt lat="44.51118" lon="6.69197">
        <ele>2266.45</ele>
        <time>2011-03-21T12:26:04Z</time>
      </trkpt>
      <trkpt lat="44.51117" lon="6.69197">
        <ele>2266.93</ele>
        <time>2011-03-21T12:26:06Z</time>
      </trkpt>
      <trkpt lat="44.51108" lon="6.69228">
        <ele>2262.6</ele>
        <time>2011-03-21T12:26:12Z</time>
      </trkpt>
      <trkpt lat="44.51105" lon="6.69236">
        <ele>2261.64</ele>
        <time>2011-03-21T12:26:13Z</time>
      </trkpt>
      <trkpt lat="44.51088" lon="6.69271">
        <ele>2255.39</ele>
        <time>2011-03-21T12:26:18Z</time>
      </trkpt>
      <trkpt lat="44.51077" lon="6.69289">
        <ele>2251.06</ele>
        <time>2011-03-21T12:26:21Z</time>
      </trkpt>
      <trkpt lat="44.51087" lon="6.6929">
        <ele>2247.7</ele>
        <time>2011-03-21T12:26:25Z</time>
      </trkpt>
      <trkpt lat="44.51101" lon="6.69295">
        <ele>2243.85</ele>
        <time>2011-03-21T12:26:28Z</time>
      </trkpt>
      <trkpt lat="44.51111" lon="6.693">
        <ele>2240.01</ele>
        <time>2011-03-21T12:26:30Z</time>
      </trkpt>
      <trkpt lat="44.51118" lon="6.69304">
        <ele>2236.64</ele>
        <time>2011-03-21T12:26:32Z</time>
      </trkpt>
      <trkpt lat="44.5113" lon="6.69318">
        <ele>2229.43</ele>
        <time>2011-03-21T12:26:36Z</time>
      </trkpt>
      <trkpt lat="44.51135" lon="6.69328">
        <ele>2225.11</ele>
        <time>2011-03-21T12:26:38Z</time>
      </trkpt>
      <trkpt lat="44.51138" lon="6.69332">
        <ele>2221.26</ele>
        <time>2011-03-21T12:26:39Z</time>
      </trkpt>
      <trkpt lat="44.51144" lon="6.69343">
        <ele>2218.86</ele>
        <time>2011-03-21T12:26:41Z</time>
      </trkpt>
      <trkpt lat="44.51152" lon="6.6937">
        <ele>2210.21</ele>
        <time>2011-03-21T12:26:46Z</time>
      </trkpt>
      <trkpt lat="44.51153" lon="6.69373">
        <ele>2210.21</ele>
        <time>2011-03-21T12:26:56Z</time>
      </trkpt>
      <trkpt lat="44.51153" lon="6.69373">
        <ele>2210.21</ele>
        <time>2011-03-21T12:27:10Z</time>
      </trkpt>
      <trkpt lat="44.51152" lon="6.69383">
        <ele>2208.77</ele>
        <time>2011-03-21T12:27:14Z</time>
      </trkpt>
      <trkpt lat="44.51149" lon="6.69394">
        <ele>2206.36</ele>
        <time>2011-03-21T12:27:20Z</time>
      </trkpt>
      <trkpt lat="44.51156" lon="6.69409">
        <ele>2203.48</ele>
        <time>2011-03-21T12:27:24Z</time>
      </trkpt>
      <trkpt lat="44.51164" lon="6.69417">
        <ele>2200.11</ele>
        <time>2011-03-21T12:27:26Z</time>
      </trkpt>
      <trkpt lat="44.51172" lon="6.69427">
        <ele>2195.31</ele>
        <time>2011-03-21T12:27:28Z</time>
      </trkpt>
      <trkpt lat="44.51181" lon="6.69432">
        <ele>2191.46</ele>
        <time>2011-03-21T12:27:30Z</time>
      </trkpt>
      <trkpt lat="44.51189" lon="6.69446">
        <ele>2186.66</ele>
        <time>2011-03-21T12:27:36Z</time>
      </trkpt>
      <trkpt lat="44.51189" lon="6.69446">
        <ele>2186.18</ele>
        <time>2011-03-21T12:27:46Z</time>
      </trkpt>
      <trkpt lat="44.51189" lon="6.69446">
        <ele>2186.66</ele>
        <time>2011-03-21T12:28:12Z</time>
      </trkpt>
      <trkpt lat="44.51189" lon="6.69447">
        <ele>2186.66</ele>
        <time>2011-03-21T12:28:19Z</time>
      </trkpt>
      <trkpt lat="44.51204" lon="6.69456">
        <ele>2181.37</ele>
        <time>2011-03-21T12:28:25Z</time>
      </trkpt>
      <trkpt lat="44.51205" lon="6.69456">
        <ele>2181.37</ele>
        <time>2011-03-21T12:28:28Z</time>
      </trkpt>
      <trkpt lat="44.51208" lon="6.69458">
        <ele>2180.89</ele>
        <time>2011-03-21T12:28:30Z</time>
      </trkpt>
      <trkpt lat="44.51221" lon="6.69477">
        <ele>2174.64</ele>
        <time>2011-03-21T12:28:34Z</time>
      </trkpt>
      <trkpt lat="44.5123" lon="6.69486">
        <ele>2170.79</ele>
        <time>2011-03-21T12:28:36Z</time>
      </trkpt>
      <trkpt lat="44.51238" lon="6.69494">
        <ele>2166.95</ele>
        <time>2011-03-21T12:28:38Z</time>
      </trkpt>
      <trkpt lat="44.51242" lon="6.69498">
        <ele>2165.03</ele>
        <time>2011-03-21T12:28:39Z</time>
      </trkpt>
      <trkpt lat="44.51253" lon="6.69516">
        <ele>2161.18</ele>
        <time>2011-03-21T12:28:43Z</time>
      </trkpt>
      <trkpt lat="44.51259" lon="6.69521">
        <ele>2156.86</ele>
        <time>2011-03-21T12:28:46Z</time>
      </trkpt>
      <trkpt lat="44.51259" lon="6.69521">
        <ele>2157.82</ele>
        <time>2011-03-21T12:28:58Z</time>
      </trkpt>
      <trkpt lat="44.51259" lon="6.69521">
        <ele>2157.34</ele>
        <time>2011-03-21T12:29:21Z</time>
      </trkpt>
      <trkpt lat="44.51261" lon="6.69521">
        <ele>2156.37</ele>
        <time>2011-03-21T12:29:39Z</time>
      </trkpt>
      <trkpt lat="44.51262" lon="6.69522">
        <ele>2155.89</ele>
        <time>2011-03-21T12:29:54Z</time>
      </trkpt>
      <trkpt lat="44.51255" lon="6.69536">
        <ele>2154.45</ele>
        <time>2011-03-21T12:29:58Z</time>
      </trkpt>
      <trkpt lat="44.51249" lon="6.69543">
        <ele>2153.01</ele>
        <time>2011-03-21T12:30:00Z</time>
      </trkpt>
      <trkpt lat="44.51239" lon="6.69551">
        <ele>2151.57</ele>
        <time>2011-03-21T12:30:02Z</time>
      </trkpt>
      <trkpt lat="44.51226" lon="6.69579">
        <ele>2145.8</ele>
        <time>2011-03-21T12:30:06Z</time>
      </trkpt>
      <trkpt lat="44.51229" lon="6.69585">
        <ele>2145.32</ele>
        <time>2011-03-21T12:30:12Z</time>
      </trkpt>
      <trkpt lat="44.51229" lon="6.69585">
        <ele>2145.8</ele>
        <time>2011-03-21T12:30:15Z</time>
      </trkpt>
      <trkpt lat="44.51241" lon="6.69572">
        <ele>2141.47</ele>
        <time>2011-03-21T12:30:19Z</time>
      </trkpt>
      <trkpt lat="44.51258" lon="6.69561">
        <ele>2140.51</ele>
        <time>2011-03-21T12:30:24Z</time>
      </trkpt>
      <trkpt lat="44.51272" lon="6.69558">
        <ele>2137.63</ele>
        <time>2011-03-21T12:30:28Z</time>
      </trkpt>
      <trkpt lat="44.51272" lon="6.69558">
        <ele>2137.63</ele>
        <time>2011-03-21T12:30:30Z</time>
      </trkpt>
      <trkpt lat="44.51285" lon="6.69575">
        <ele>2130.9</ele>
        <time>2011-03-21T12:30:34Z</time>
      </trkpt>
      <trkpt lat="44.51292" lon="6.69578">
        <ele>2128.5</ele>
        <time>2011-03-21T12:30:35Z</time>
      </trkpt>
      <trkpt lat="44.51307" lon="6.69581">
        <ele>2127.53</ele>
        <time>2011-03-21T12:30:37Z</time>
      </trkpt>
      <trkpt lat="44.51318" lon="6.6958">
        <ele>2126.09</ele>
        <time>2011-03-21T12:30:39Z</time>
      </trkpt>
      <trkpt lat="44.51325" lon="6.69578">
        <ele>2125.61</ele>
        <time>2011-03-21T12:30:46Z</time>
      </trkpt>
      <trkpt lat="44.51325" lon="6.69578">
        <ele>2125.13</ele>
        <time>2011-03-21T12:30:49Z</time>
      </trkpt>
      <trkpt lat="44.51324" lon="6.6958">
        <ele>2124.65</ele>
        <time>2011-03-21T12:30:51Z</time>
      </trkpt>
      <trkpt lat="44.51331" lon="6.69594">
        <ele>2120.32</ele>
        <time>2011-03-21T12:30:56Z</time>
      </trkpt>
      <trkpt lat="44.51331" lon="6.69594">
        <ele>2120.32</ele>
        <time>2011-03-21T12:30:57Z</time>
      </trkpt>
      <trkpt lat="44.51331" lon="6.69595">
        <ele>2119.84</ele>
        <time>2011-03-21T12:31:00Z</time>
      </trkpt>
      <trkpt lat="44.51332" lon="6.69596">
        <ele>2119.84</ele>
        <time>2011-03-21T12:31:09Z</time>
      </trkpt>
      <trkpt lat="44.51344" lon="6.69595">
        <ele>2115.04</ele>
        <time>2011-03-21T12:31:15Z</time>
      </trkpt>
      <trkpt lat="44.5135" lon="6.6959">
        <ele>2114.08</ele>
        <time>2011-03-21T12:31:17Z</time>
      </trkpt>
      <trkpt lat="44.51353" lon="6.69591">
        <ele>2114.08</ele>
        <time>2011-03-21T12:31:18Z</time>
      </trkpt>
      <trkpt lat="44.51383" lon="6.6961">
        <ele>2111.19</ele>
        <time>2011-03-21T12:31:32Z</time>
      </trkpt>
      <trkpt lat="44.51387" lon="6.69612">
        <ele>2109.75</ele>
        <time>2011-03-21T12:31:33Z</time>
      </trkpt>
      <trkpt lat="44.51391" lon="6.69633">
        <ele>2105.42</ele>
        <time>2011-03-21T12:31:38Z</time>
      </trkpt>
      <trkpt lat="44.5139" lon="6.69645">
        <ele>2099.66</ele>
        <time>2011-03-21T12:31:40Z</time>
      </trkpt>
      <trkpt lat="44.51392" lon="6.69658">
        <ele>2095.81</ele>
        <time>2011-03-21T12:31:42Z</time>
      </trkpt>
      <trkpt lat="44.51394" lon="6.69663">
        <ele>2091.97</ele>
        <time>2011-03-21T12:31:45Z</time>
      </trkpt>
      <trkpt lat="44.51393" lon="6.69663">
        <ele>2092.93</ele>
        <time>2011-03-21T12:32:07Z</time>
      </trkpt>
      <trkpt lat="44.51393" lon="6.69663">
        <ele>2092.45</ele>
        <time>2011-03-21T12:32:25Z</time>
      </trkpt>
      <trkpt lat="44.51395" lon="6.69663">
        <ele>2092.45</ele>
        <time>2011-03-21T12:32:42Z</time>
      </trkpt>
      <trkpt lat="44.51407" lon="6.69671">
        <ele>2090.04</ele>
        <time>2011-03-21T12:32:47Z</time>
      </trkpt>
      <trkpt lat="44.51415" lon="6.6969">
        <ele>2083.79</ele>
        <time>2011-03-21T12:32:52Z</time>
      </trkpt>
      <trkpt lat="44.51423" lon="6.69706">
        <ele>2075.14</ele>
        <time>2011-03-21T12:32:56Z</time>
      </trkpt>
      <trkpt lat="44.51422" lon="6.69716">
        <ele>2071.3</ele>
        <time>2011-03-21T12:33:01Z</time>
      </trkpt>
      <trkpt lat="44.51425" lon="6.69722">
        <ele>2066.97</ele>
        <time>2011-03-21T12:33:03Z</time>
      </trkpt>
      <trkpt lat="44.51432" lon="6.69732">
        <ele>2066.01</ele>
        <time>2011-03-21T12:33:07Z</time>
      </trkpt>
      <trkpt lat="44.51434" lon="6.69737">
        <ele>2064.57</ele>
        <time>2011-03-21T12:33:09Z</time>
      </trkpt>
      <trkpt lat="44.5143" lon="6.69751">
        <ele>2061.2</ele>
        <time>2011-03-21T12:33:12Z</time>
      </trkpt>
      <trkpt lat="44.5142" lon="6.69777">
        <ele>2058.8</ele>
        <time>2011-03-21T12:33:16Z</time>
      </trkpt>
      <trkpt lat="44.51411" lon="6.69799">
        <ele>2054.96</ele>
        <time>2011-03-21T12:33:20Z</time>
      </trkpt>
      <trkpt lat="44.51397" lon="6.6981">
        <ele>2052.55</ele>
        <time>2011-03-21T12:33:24Z</time>
      </trkpt>
      <trkpt lat="44.51395" lon="6.69811">
        <ele>2052.55</ele>
        <time>2011-03-21T12:33:27Z</time>
      </trkpt>
      <trkpt lat="44.51395" lon="6.69812">
        <ele>2051.59</ele>
        <time>2011-03-21T12:33:41Z</time>
      </trkpt>
      <trkpt lat="44.51398" lon="6.69813">
        <ele>2051.11</ele>
        <time>2011-03-21T12:33:42Z</time>
      </trkpt>
      <trkpt lat="44.51411" lon="6.69815">
        <ele>2046.3</ele>
        <time>2011-03-21T12:33:45Z</time>
      </trkpt>
      <trkpt lat="44.51422" lon="6.69812">
        <ele>2045.34</ele>
        <time>2011-03-21T12:33:50Z</time>
      </trkpt>
      <trkpt lat="44.51422" lon="6.69813">
        <ele>2044.38</ele>
        <time>2011-03-21T12:33:58Z</time>
      </trkpt>
      <trkpt lat="44.51426" lon="6.69817">
        <ele>2043.42</ele>
        <time>2011-03-21T12:34:00Z</time>
      </trkpt>
      <trkpt lat="44.51439" lon="6.69833">
        <ele>2040.54</ele>
        <time>2011-03-21T12:34:03Z</time>
      </trkpt>
      <trkpt lat="44.51451" lon="6.69846">
        <ele>2037.17</ele>
        <time>2011-03-21T12:34:06Z</time>
      </trkpt>
      <trkpt lat="44.51453" lon="6.69849">
        <ele>2037.17</ele>
        <time>2011-03-21T12:34:11Z</time>
      </trkpt>
      <trkpt lat="44.51461" lon="6.69852">
        <ele>2034.29</ele>
        <time>2011-03-21T12:34:14Z</time>
      </trkpt>
      <trkpt lat="44.51464" lon="6.69857">
        <ele>2033.33</ele>
        <time>2011-03-21T12:34:16Z</time>
      </trkpt>
      <trkpt lat="44.51476" lon="6.6985">
        <ele>2028.04</ele>
        <time>2011-03-21T12:34:20Z</time>
      </trkpt>
      <trkpt lat="44.5148" lon="6.69848">
        <ele>2028.52</ele>
        <time>2011-03-21T12:34:21Z</time>
      </trkpt>
      <trkpt lat="44.51487" lon="6.69846">
        <ele>2029</ele>
        <time>2011-03-21T12:34:29Z</time>
      </trkpt>
      <trkpt lat="44.51487" lon="6.69846">
        <ele>2029.48</ele>
        <time>2011-03-21T12:34:38Z</time>
      </trkpt>
      <trkpt lat="44.5149" lon="6.69852">
        <ele>2028.52</ele>
        <time>2011-03-21T12:34:41Z</time>
      </trkpt>
      <trkpt lat="44.51507" lon="6.69872">
        <ele>2024.67</ele>
        <time>2011-03-21T12:34:45Z</time>
      </trkpt>
      <trkpt lat="44.51511" lon="6.69895">
        <ele>2019.39</ele>
        <time>2011-03-21T12:34:48Z</time>
      </trkpt>
      <trkpt lat="44.51516" lon="6.6991">
        <ele>2017.46</ele>
        <time>2011-03-21T12:34:50Z</time>
      </trkpt>
      <trkpt lat="44.51531" lon="6.69937">
        <ele>2013.62</ele>
        <time>2011-03-21T12:34:54Z</time>
      </trkpt>
      <trkpt lat="44.51537" lon="6.69959">
        <ele>2009.77</ele>
        <time>2011-03-21T12:34:57Z</time>
      </trkpt>
      <trkpt lat="44.51545" lon="6.69969">
        <ele>2007.85</ele>
        <time>2011-03-21T12:34:59Z</time>
      </trkpt>
      <trkpt lat="44.51559" lon="6.69975">
        <ele>2007.37</ele>
        <time>2011-03-21T12:35:06Z</time>
      </trkpt>
      <trkpt lat="44.51559" lon="6.69975">
        <ele>2007.37</ele>
        <time>2011-03-21T12:35:34Z</time>
      </trkpt>
      <trkpt lat="44.51559" lon="6.69975">
        <ele>2007.37</ele>
        <time>2011-03-21T12:35:57Z</time>
      </trkpt>
      <trkpt lat="44.51559" lon="6.69975">
        <ele>2007.37</ele>
        <time>2011-03-21T12:36:22Z</time>
      </trkpt>
      <trkpt lat="44.51558" lon="6.69974">
        <ele>2007.37</ele>
        <time>2011-03-21T12:36:34Z</time>
      </trkpt>
      <trkpt lat="44.51558" lon="6.69973">
        <ele>2007.85</ele>
        <time>2011-03-21T12:37:01Z</time>
      </trkpt>
      <trkpt lat="44.51559" lon="6.69974">
        <ele>2007.85</ele>
        <time>2011-03-21T12:37:03Z</time>
      </trkpt>
      <trkpt lat="44.51584" lon="6.69995">
        <ele>2004.49</ele>
        <time>2011-03-21T12:37:13Z</time>
      </trkpt>
      <trkpt lat="44.51594" lon="6.70006">
        <ele>2003.04</ele>
        <time>2011-03-21T12:37:16Z</time>
      </trkpt>
      <trkpt lat="44.51601" lon="6.70032">
        <ele>1997.28</ele>
        <time>2011-03-21T12:37:20Z</time>
      </trkpt>
      <trkpt lat="44.51613" lon="6.70048">
        <ele>1993.43</ele>
        <time>2011-03-21T12:37:23Z</time>
      </trkpt>
      <trkpt lat="44.51626" lon="6.7006">
        <ele>1991.03</ele>
        <time>2011-03-21T12:37:26Z</time>
      </trkpt>
      <trkpt lat="44.51643" lon="6.70078">
        <ele>1987.18</ele>
        <time>2011-03-21T12:37:30Z</time>
      </trkpt>
      <trkpt lat="44.51648" lon="6.70084">
        <ele>1985.74</ele>
        <time>2011-03-21T12:37:31Z</time>
      </trkpt>
      <trkpt lat="44.51659" lon="6.70099">
        <ele>1980.93</ele>
        <time>2011-03-21T12:37:33Z</time>
      </trkpt>
      <trkpt lat="44.51666" lon="6.70107">
        <ele>1979.01</ele>
        <time>2011-03-21T12:37:34Z</time>
      </trkpt>
      <trkpt lat="44.51673" lon="6.70112">
        <ele>1977.57</ele>
        <time>2011-03-21T12:37:35Z</time>
      </trkpt>
      <trkpt lat="44.51682" lon="6.70123">
        <ele>1976.13</ele>
        <time>2011-03-21T12:37:38Z</time>
      </trkpt>
      <trkpt lat="44.51686" lon="6.70125">
        <ele>1975.17</ele>
        <time>2011-03-21T12:37:39Z</time>
      </trkpt>
      <trkpt lat="44.51703" lon="6.70144">
        <ele>1971.32</ele>
        <time>2011-03-21T12:37:43Z</time>
      </trkpt>
      <trkpt lat="44.51708" lon="6.70151">
        <ele>1970.36</ele>
        <time>2011-03-21T12:37:44Z</time>
      </trkpt>
      <trkpt lat="44.51718" lon="6.7016">
        <ele>1968.44</ele>
        <time>2011-03-21T12:37:46Z</time>
      </trkpt>
      <trkpt lat="44.51722" lon="6.70166">
        <ele>1966.99</ele>
        <time>2011-03-21T12:37:49Z</time>
      </trkpt>
      <trkpt lat="44.51719" lon="6.70165">
        <ele>1966.99</ele>
        <time>2011-03-21T12:37:59Z</time>
      </trkpt>
      <trkpt lat="44.51719" lon="6.70165">
        <ele>1967.48</ele>
        <time>2011-03-21T12:38:23Z</time>
      </trkpt>
      <trkpt lat="44.51719" lon="6.70165">
        <ele>1967.48</ele>
        <time>2011-03-21T12:38:42Z</time>
      </trkpt>
      <trkpt lat="44.51728" lon="6.7018">
        <ele>1963.63</ele>
        <time>2011-03-21T12:38:47Z</time>
      </trkpt>
      <trkpt lat="44.51731" lon="6.70182">
        <ele>1963.15</ele>
        <time>2011-03-21T12:38:48Z</time>
      </trkpt>
      <trkpt lat="44.5174" lon="6.70204">
        <ele>1958.34</ele>
        <time>2011-03-21T12:38:54Z</time>
      </trkpt>
      <trkpt lat="44.51745" lon="6.70209">
        <ele>1957.38</ele>
        <time>2011-03-21T12:38:55Z</time>
      </trkpt>
      <trkpt lat="44.51754" lon="6.70218">
        <ele>1954.02</ele>
        <time>2011-03-21T12:38:57Z</time>
      </trkpt>
      <trkpt lat="44.51781" lon="6.70252">
        <ele>1949.21</ele>
        <time>2011-03-21T12:39:02Z</time>
      </trkpt>
      <trkpt lat="44.51797" lon="6.70271">
        <ele>1947.29</ele>
        <time>2011-03-21T12:39:05Z</time>
      </trkpt>
      <trkpt lat="44.51808" lon="6.70284">
        <ele>1946.81</ele>
        <time>2011-03-21T12:39:09Z</time>
      </trkpt>
      <trkpt lat="44.51827" lon="6.70308">
        <ele>1944.88</ele>
        <time>2011-03-21T12:39:17Z</time>
      </trkpt>
      <trkpt lat="44.51827" lon="6.70308">
        <ele>1944.88</ele>
        <time>2011-03-21T12:39:42Z</time>
      </trkpt>
      <trkpt lat="44.51827" lon="6.70308">
        <ele>1944.4</ele>
        <time>2011-03-21T12:39:52Z</time>
      </trkpt>
      <trkpt lat="44.51837" lon="6.70312">
        <ele>1941.04</ele>
        <time>2011-03-21T12:39:57Z</time>
      </trkpt>
      <trkpt lat="44.51843" lon="6.70318">
        <ele>1938.16</ele>
        <time>2011-03-21T12:40:01Z</time>
      </trkpt>
      <trkpt lat="44.51852" lon="6.70328">
        <ele>1933.35</ele>
        <time>2011-03-21T12:40:04Z</time>
      </trkpt>
      <trkpt lat="44.51856" lon="6.7033">
        <ele>1932.87</ele>
        <time>2011-03-21T12:40:06Z</time>
      </trkpt>
      <trkpt lat="44.51864" lon="6.70344">
        <ele>1926.62</ele>
        <time>2011-03-21T12:40:10Z</time>
      </trkpt>
      <trkpt lat="44.51873" lon="6.70353">
        <ele>1923.74</ele>
        <time>2011-03-21T12:40:13Z</time>
      </trkpt>
      <trkpt lat="44.51878" lon="6.70352">
        <ele>1923.74</ele>
        <time>2011-03-21T12:40:24Z</time>
      </trkpt>
      <trkpt lat="44.51878" lon="6.70354">
        <ele>1922.77</ele>
        <time>2011-03-21T12:40:38Z</time>
      </trkpt>
      <trkpt lat="44.51878" lon="6.70354">
        <ele>1923.25</ele>
        <time>2011-03-21T12:40:51Z</time>
      </trkpt>
      <trkpt lat="44.5188" lon="6.7036">
        <ele>1921.33</ele>
        <time>2011-03-21T12:40:54Z</time>
      </trkpt>
      <trkpt lat="44.51886" lon="6.70367">
        <ele>1917.97</ele>
        <time>2011-03-21T12:40:58Z</time>
      </trkpt>
      <trkpt lat="44.51887" lon="6.70367">
        <ele>1917.97</ele>
        <time>2011-03-21T12:41:12Z</time>
      </trkpt>
      <trkpt lat="44.51887" lon="6.70368">
        <ele>1917.97</ele>
        <time>2011-03-21T12:41:23Z</time>
      </trkpt>
      <trkpt lat="44.51887" lon="6.70368">
        <ele>1917.97</ele>
        <time>2011-03-21T12:41:39Z</time>
      </trkpt>
      <trkpt lat="44.51888" lon="6.70367">
        <ele>1916.04</ele>
        <time>2011-03-21T12:41:46Z</time>
      </trkpt>
      <trkpt lat="44.51888" lon="6.70367">
        <ele>1917.97</ele>
        <time>2011-03-21T12:41:48Z</time>
      </trkpt>
      <trkpt lat="44.51888" lon="6.70367">
        <ele>1917.97</ele>
        <time>2011-03-21T12:42:08Z</time>
      </trkpt>
      <trkpt lat="44.51888" lon="6.70368">
        <ele>1917.97</ele>
        <time>2011-03-21T12:42:28Z</time>
      </trkpt>
      <trkpt lat="44.51888" lon="6.70367">
        <ele>1917.49</ele>
        <time>2011-03-21T12:42:46Z</time>
      </trkpt>
      <trkpt lat="44.51888" lon="6.70367">
        <ele>1917.97</ele>
        <time>2011-03-21T12:42:55Z</time>
      </trkpt>
      <trkpt lat="44.51887" lon="6.70368">
        <ele>1917.97</ele>
        <time>2011-03-21T12:43:14Z</time>
      </trkpt>
      <trkpt lat="44.51885" lon="6.70367">
        <ele>1917.49</ele>
        <time>2011-03-21T12:43:29Z</time>
      </trkpt>
      <trkpt lat="44.51885" lon="6.70367">
        <ele>1917.49</ele>
        <time>2011-03-21T12:43:50Z</time>
      </trkpt>
      <trkpt lat="44.51887" lon="6.70367">
        <ele>1917.97</ele>
        <time>2011-03-21T12:44:04Z</time>
      </trkpt>
      <trkpt lat="44.51887" lon="6.7037">
        <ele>1917.49</ele>
        <time>2011-03-21T12:44:16Z</time>
      </trkpt>
      <trkpt lat="44.51888" lon="6.70373">
        <ele>1916.53</ele>
        <time>2011-03-21T12:44:18Z</time>
      </trkpt>
      <trkpt lat="44.51893" lon="6.70383">
        <ele>1914.12</ele>
        <time>2011-03-21T12:44:22Z</time>
      </trkpt>
      <trkpt lat="44.51899" lon="6.70399">
        <ele>1910.28</ele>
        <time>2011-03-21T12:44:30Z</time>
      </trkpt>
      <trkpt lat="44.51904" lon="6.7041">
        <ele>1906.91</ele>
        <time>2011-03-21T12:44:33Z</time>
      </trkpt>
      <trkpt lat="44.51911" lon="6.70423">
        <ele>1905.47</ele>
        <time>2011-03-21T12:44:36Z</time>
      </trkpt>
      <trkpt lat="44.51924" lon="6.70439">
        <ele>1904.99</ele>
        <time>2011-03-21T12:44:49Z</time>
      </trkpt>
      <trkpt lat="44.51924" lon="6.70438">
        <ele>1904.51</ele>
        <time>2011-03-21T12:44:53Z</time>
      </trkpt>
      <trkpt lat="44.51928" lon="6.70441">
        <ele>1903.55</ele>
        <time>2011-03-21T12:44:57Z</time>
      </trkpt>
      <trkpt lat="44.51933" lon="6.70443">
        <ele>1902.59</ele>
        <time>2011-03-21T12:44:59Z</time>
      </trkpt>
      <trkpt lat="44.51941" lon="6.70448">
        <ele>1900.66</ele>
        <time>2011-03-21T12:45:03Z</time>
      </trkpt>
      <trkpt lat="44.51964" lon="6.70469">
        <ele>1897.78</ele>
        <time>2011-03-21T12:45:11Z</time>
      </trkpt>
      <trkpt lat="44.5197" lon="6.70474">
        <ele>1896.34</ele>
        <time>2011-03-21T12:45:19Z</time>
      </trkpt>
      <trkpt lat="44.51977" lon="6.70485">
        <ele>1892.01</ele>
        <time>2011-03-21T12:45:24Z</time>
      </trkpt>
      <trkpt lat="44.51994" lon="6.70507">
        <ele>1888.17</ele>
        <time>2011-03-21T12:45:29Z</time>
      </trkpt>
      <trkpt lat="44.52001" lon="6.70514">
        <ele>1887.69</ele>
        <time>2011-03-21T12:45:31Z</time>
      </trkpt>
      <trkpt lat="44.52012" lon="6.70522">
        <ele>1885.76</ele>
        <time>2011-03-21T12:45:34Z</time>
      </trkpt>
      <trkpt lat="44.52029" lon="6.70539">
        <ele>1882.4</ele>
        <time>2011-03-21T12:45:40Z</time>
      </trkpt>
      <trkpt lat="44.52036" lon="6.7054">
        <ele>1883.36</ele>
        <time>2011-03-21T12:45:44Z</time>
      </trkpt>
      <trkpt lat="44.52035" lon="6.70539">
        <ele>1882.88</ele>
        <time>2011-03-21T12:45:45Z</time>
      </trkpt>
      <trkpt lat="44.52032" lon="6.70538">
        <ele>1883.36</ele>
        <time>2011-03-21T12:45:56Z</time>
      </trkpt>
      <trkpt lat="44.52032" lon="6.70537">
        <ele>1883.84</ele>
        <time>2011-03-21T12:46:08Z</time>
      </trkpt>
      <trkpt lat="44.52032" lon="6.70537">
        <ele>1884.8</ele>
        <time>2011-03-21T12:46:28Z</time>
      </trkpt>
      <trkpt lat="44.52032" lon="6.70537">
        <ele>1883.84</ele>
        <time>2011-03-21T12:46:56Z</time>
      </trkpt>
      <trkpt lat="44.52032" lon="6.70537">
        <ele>1884.8</ele>
        <time>2011-03-21T12:47:18Z</time>
      </trkpt>
      <trkpt lat="44.52032" lon="6.70536">
        <ele>1885.28</ele>
        <time>2011-03-21T12:47:52Z</time>
      </trkpt>
      <trkpt lat="44.52032" lon="6.70537">
        <ele>1884.32</ele>
        <time>2011-03-21T12:48:23Z</time>
      </trkpt>
      <trkpt lat="44.52032" lon="6.70536">
        <ele>1884.8</ele>
        <time>2011-03-21T12:48:32Z</time>
      </trkpt>
      <trkpt lat="44.52032" lon="6.70536">
        <ele>1883.36</ele>
        <time>2011-03-21T12:49:02Z</time>
      </trkpt>
      <trkpt lat="44.52032" lon="6.70536">
        <ele>1881.44</ele>
        <time>2011-03-21T12:49:36Z</time>
      </trkpt>
      <trkpt lat="44.52032" lon="6.70536">
        <ele>1883.36</ele>
        <time>2011-03-21T12:50:06Z</time>
      </trkpt>
      <trkpt lat="44.52032" lon="6.70535">
        <ele>1883.36</ele>
        <time>2011-03-21T12:50:42Z</time>
      </trkpt>
      <trkpt lat="44.52032" lon="6.70535">
        <ele>1882.88</ele>
        <time>2011-03-21T12:51:11Z</time>
      </trkpt>
      <trkpt lat="44.52032" lon="6.70535">
        <ele>1883.36</ele>
        <time>2011-03-21T12:51:43Z</time>
      </trkpt>
      <trkpt lat="44.52032" lon="6.70535">
        <ele>1882.4</ele>
        <time>2011-03-21T12:52:22Z</time>
      </trkpt>
      <trkpt lat="44.52032" lon="6.70535">
        <ele>1882.88</ele>
        <time>2011-03-21T12:52:58Z</time>
      </trkpt>
      <trkpt lat="44.52034" lon="6.70536">
        <ele>1883.36</ele>
        <time>2011-03-21T12:53:18Z</time>
      </trkpt>
      <trkpt lat="44.52033" lon="6.70536">
        <ele>1883.84</ele>
        <time>2011-03-21T12:53:48Z</time>
      </trkpt>
      <trkpt lat="44.52034" lon="6.70536">
        <ele>1883.84</ele>
        <time>2011-03-21T12:54:29Z</time>
      </trkpt>
      <trkpt lat="44.52034" lon="6.70536">
        <ele>1883.84</ele>
        <time>2011-03-21T12:54:41Z</time>
      </trkpt>
      <trkpt lat="44.52034" lon="6.70536">
        <ele>1884.8</ele>
        <time>2011-03-21T12:55:01Z</time>
      </trkpt>
      <trkpt lat="44.52034" lon="6.70537">
        <ele>1884.8</ele>
        <time>2011-03-21T12:55:17Z</time>
      </trkpt>
      <trkpt lat="44.52036" lon="6.70538">
        <ele>1884.8</ele>
        <time>2011-03-21T12:55:28Z</time>
      </trkpt>
      <trkpt lat="44.52042" lon="6.7054">
        <ele>1885.28</ele>
        <time>2011-03-21T12:55:34Z</time>
      </trkpt>
      <trkpt lat="44.52048" lon="6.70542">
        <ele>1886.24</ele>
        <time>2011-03-21T12:55:41Z</time>
      </trkpt>
      <trkpt lat="44.52054" lon="6.70548">
        <ele>1886.72</ele>
        <time>2011-03-21T12:55:54Z</time>
      </trkpt>
      <trkpt lat="44.52057" lon="6.7055">
        <ele>1887.21</ele>
        <time>2011-03-21T12:55:58Z</time>
      </trkpt>
      <trkpt lat="44.52067" lon="6.70562">
        <ele>1888.17</ele>
        <time>2011-03-21T12:56:11Z</time>
      </trkpt>
      <trkpt lat="44.52073" lon="6.7057">
        <ele>1888.65</ele>
        <time>2011-03-21T12:56:21Z</time>
      </trkpt>
      <trkpt lat="44.52085" lon="6.70578">
        <ele>1888.65</ele>
        <time>2011-03-21T12:56:35Z</time>
      </trkpt>
      <trkpt lat="44.52096" lon="6.70578">
        <ele>1890.57</ele>
        <time>2011-03-21T12:56:48Z</time>
      </trkpt>
      <trkpt lat="44.52104" lon="6.7058">
        <ele>1891.53</ele>
        <time>2011-03-21T12:57:01Z</time>
      </trkpt>
      <trkpt lat="44.5211" lon="6.70581">
        <ele>1892.97</ele>
        <time>2011-03-21T12:57:08Z</time>
      </trkpt>
      <trkpt lat="44.5212" lon="6.70585">
        <ele>1893.93</ele>
        <time>2011-03-21T12:57:20Z</time>
      </trkpt>
      <trkpt lat="44.5212" lon="6.70585">
        <ele>1893.45</ele>
        <time>2011-03-21T12:57:21Z</time>
      </trkpt>
      <trkpt lat="44.52121" lon="6.70586">
        <ele>1893.93</ele>
        <time>2011-03-21T12:57:22Z</time>
      </trkpt>
      <trkpt lat="44.52131" lon="6.7059">
        <ele>1895.38</ele>
        <time>2011-03-21T12:57:34Z</time>
      </trkpt>
      <trkpt lat="44.52143" lon="6.70596">
        <ele>1896.82</ele>
        <time>2011-03-21T12:57:48Z</time>
      </trkpt>
      <trkpt lat="44.52153" lon="6.706">
        <ele>1898.74</ele>
        <time>2011-03-21T12:58:01Z</time>
      </trkpt>
      <trkpt lat="44.52162" lon="6.70603">
        <ele>1900.18</ele>
        <time>2011-03-21T12:58:13Z</time>
      </trkpt>
      <trkpt lat="44.52168" lon="6.70609">
        <ele>1902.59</ele>
        <time>2011-03-21T12:58:25Z</time>
      </trkpt>
      <trkpt lat="44.52171" lon="6.70612">
        <ele>1902.59</ele>
        <time>2011-03-21T12:58:29Z</time>
      </trkpt>
      <trkpt lat="44.52171" lon="6.70613">
        <ele>1902.11</ele>
        <time>2011-03-21T12:58:30Z</time>
      </trkpt>
      <trkpt lat="44.5218" lon="6.70616">
        <ele>1904.03</ele>
        <time>2011-03-21T12:58:43Z</time>
      </trkpt>
      <trkpt lat="44.52187" lon="6.70619">
        <ele>1904.99</ele>
        <time>2011-03-21T12:58:52Z</time>
      </trkpt>
      <trkpt lat="44.5219" lon="6.70621">
        <ele>1904.51</ele>
        <time>2011-03-21T12:58:55Z</time>
      </trkpt>
      <trkpt lat="44.52195" lon="6.70623">
        <ele>1905.95</ele>
        <time>2011-03-21T12:59:02Z</time>
      </trkpt>
      <trkpt lat="44.52196" lon="6.70624">
        <ele>1905.95</ele>
        <time>2011-03-21T12:59:04Z</time>
      </trkpt>
      <trkpt lat="44.52197" lon="6.70625">
        <ele>1906.43</ele>
        <time>2011-03-21T12:59:05Z</time>
      </trkpt>
      <trkpt lat="44.52206" lon="6.70633">
        <ele>1906.91</ele>
        <time>2011-03-21T12:59:17Z</time>
      </trkpt>
      <trkpt lat="44.52215" lon="6.70641">
        <ele>1907.87</ele>
        <time>2011-03-21T12:59:29Z</time>
      </trkpt>
      <trkpt lat="44.52216" lon="6.70641">
        <ele>1908.35</ele>
        <time>2011-03-21T12:59:30Z</time>
      </trkpt>
      <trkpt lat="44.52221" lon="6.70647">
        <ele>1908.83</ele>
        <time>2011-03-21T12:59:38Z</time>
      </trkpt>
      <trkpt lat="44.52223" lon="6.70649">
        <ele>1909.32</ele>
        <time>2011-03-21T12:59:43Z</time>
      </trkpt>
      <trkpt lat="44.52229" lon="6.70656">
        <ele>1910.76</ele>
        <time>2011-03-21T12:59:52Z</time>
      </trkpt>
      <trkpt lat="44.52233" lon="6.70659">
        <ele>1910.76</ele>
        <time>2011-03-21T12:59:57Z</time>
      </trkpt>
      <trkpt lat="44.52238" lon="6.70665">
        <ele>1911.72</ele>
        <time>2011-03-21T13:00:10Z</time>
      </trkpt>
      <trkpt lat="44.52243" lon="6.7067">
        <ele>1912.2</ele>
        <time>2011-03-21T13:00:34Z</time>
      </trkpt>
      <trkpt lat="44.52247" lon="6.70676">
        <ele>1913.16</ele>
        <time>2011-03-21T13:00:41Z</time>
      </trkpt>
      <trkpt lat="44.52257" lon="6.70686">
        <ele>1913.64</ele>
        <time>2011-03-21T13:00:53Z</time>
      </trkpt>
      <trkpt lat="44.52259" lon="6.70687">
        <ele>1913.64</ele>
        <time>2011-03-21T13:00:55Z</time>
      </trkpt>
      <trkpt lat="44.52264" lon="6.7069">
        <ele>1914.6</ele>
        <time>2011-03-21T13:01:01Z</time>
      </trkpt>
      <trkpt lat="44.52266" lon="6.7069">
        <ele>1914.6</ele>
        <time>2011-03-21T13:01:03Z</time>
      </trkpt>
      <trkpt lat="44.52268" lon="6.7069">
        <ele>1914.6</ele>
        <time>2011-03-21T13:01:04Z</time>
      </trkpt>
      <trkpt lat="44.52269" lon="6.7069">
        <ele>1915.08</ele>
        <time>2011-03-21T13:01:05Z</time>
      </trkpt>
      <trkpt lat="44.52271" lon="6.70691">
        <ele>1915.08</ele>
        <time>2011-03-21T13:01:07Z</time>
      </trkpt>
      <trkpt lat="44.52277" lon="6.70692">
        <ele>1914.6</ele>
        <time>2011-03-21T13:01:12Z</time>
      </trkpt>
      <trkpt lat="44.52278" lon="6.70692">
        <ele>1915.08</ele>
        <time>2011-03-21T13:01:13Z</time>
      </trkpt>
      <trkpt lat="44.52288" lon="6.70693">
        <ele>1917.01</ele>
        <time>2011-03-21T13:01:27Z</time>
      </trkpt>
      <trkpt lat="44.5229" lon="6.70692">
        <ele>1916.53</ele>
        <time>2011-03-21T13:01:29Z</time>
      </trkpt>
      <trkpt lat="44.52298" lon="6.70693">
        <ele>1917.49</ele>
        <time>2011-03-21T13:01:41Z</time>
      </trkpt>
      <trkpt lat="44.52305" lon="6.7069">
        <ele>1918.93</ele>
        <time>2011-03-21T13:01:50Z</time>
      </trkpt>
      <trkpt lat="44.52309" lon="6.70686">
        <ele>1919.89</ele>
        <time>2011-03-21T13:01:56Z</time>
      </trkpt>
      <trkpt lat="44.52312" lon="6.70683">
        <ele>1919.89</ele>
        <time>2011-03-21T13:01:59Z</time>
      </trkpt>
      <trkpt lat="44.5232" lon="6.70677">
        <ele>1920.85</ele>
        <time>2011-03-21T13:02:08Z</time>
      </trkpt>
      <trkpt lat="44.52328" lon="6.70672">
        <ele>1921.81</ele>
        <time>2011-03-21T13:02:22Z</time>
      </trkpt>
      <trkpt lat="44.52331" lon="6.70667">
        <ele>1922.29</ele>
        <time>2011-03-21T13:02:32Z</time>
      </trkpt>
      <trkpt lat="44.52336" lon="6.70661">
        <ele>1922.77</ele>
        <time>2011-03-21T13:02:39Z</time>
      </trkpt>
      <trkpt lat="44.52348" lon="6.70652">
        <ele>1924.7</ele>
        <time>2011-03-21T13:02:53Z</time>
      </trkpt>
      <trkpt lat="44.52358" lon="6.7065">
        <ele>1926.14</ele>
        <time>2011-03-21T13:03:09Z</time>
      </trkpt>
      <trkpt lat="44.5236" lon="6.70651">
        <ele>1926.14</ele>
        <time>2011-03-21T13:03:11Z</time>
      </trkpt>
      <trkpt lat="44.52374" lon="6.70651">
        <ele>1928.06</ele>
        <time>2011-03-21T13:03:25Z</time>
      </trkpt>
      <trkpt lat="44.52385" lon="6.70652">
        <ele>1929.02</ele>
        <time>2011-03-21T13:03:36Z</time>
      </trkpt>
      <trkpt lat="44.52389" lon="6.70651">
        <ele>1929.5</ele>
        <time>2011-03-21T13:03:43Z</time>
      </trkpt>
      <trkpt lat="44.52393" lon="6.7065">
        <ele>1929.98</ele>
        <time>2011-03-21T13:03:48Z</time>
      </trkpt>
      <trkpt lat="44.52396" lon="6.70649">
        <ele>1929.98</ele>
        <time>2011-03-21T13:03:52Z</time>
      </trkpt>
      <trkpt lat="44.52406" lon="6.70644">
        <ele>1930.95</ele>
        <time>2011-03-21T13:04:03Z</time>
      </trkpt>
      <trkpt lat="44.52409" lon="6.70643">
        <ele>1931.43</ele>
        <time>2011-03-21T13:04:08Z</time>
      </trkpt>
      <trkpt lat="44.5242" lon="6.70642">
        <ele>1933.35</ele>
        <time>2011-03-21T13:04:21Z</time>
      </trkpt>
      <trkpt lat="44.5242" lon="6.70642">
        <ele>1932.87</ele>
        <time>2011-03-21T13:04:22Z</time>
      </trkpt>
      <trkpt lat="44.52432" lon="6.70647">
        <ele>1933.83</ele>
        <time>2011-03-21T13:04:35Z</time>
      </trkpt>
      <trkpt lat="44.52442" lon="6.70657">
        <ele>1934.79</ele>
        <time>2011-03-21T13:04:48Z</time>
      </trkpt>
      <trkpt lat="44.52449" lon="6.70659">
        <ele>1935.75</ele>
        <time>2011-03-21T13:04:56Z</time>
      </trkpt>
      <trkpt lat="44.52456" lon="6.70659">
        <ele>1935.75</ele>
        <time>2011-03-21T13:05:03Z</time>
      </trkpt>
      <trkpt lat="44.5246" lon="6.70658">
        <ele>1936.23</ele>
        <time>2011-03-21T13:05:07Z</time>
      </trkpt>
      <trkpt lat="44.52461" lon="6.70656">
        <ele>1936.71</ele>
        <time>2011-03-21T13:05:09Z</time>
      </trkpt>
      <trkpt lat="44.52472" lon="6.70651">
        <ele>1937.19</ele>
        <time>2011-03-21T13:05:19Z</time>
      </trkpt>
      <trkpt lat="44.52475" lon="6.70647">
        <ele>1938.16</ele>
        <time>2011-03-21T13:05:24Z</time>
      </trkpt>
      <trkpt lat="44.52478" lon="6.70645">
        <ele>1939.12</ele>
        <time>2011-03-21T13:05:28Z</time>
      </trkpt>
      <trkpt lat="44.52488" lon="6.70635">
        <ele>1940.56</ele>
        <time>2011-03-21T13:05:42Z</time>
      </trkpt>
      <trkpt lat="44.52494" lon="6.70631">
        <ele>1941.04</ele>
        <time>2011-03-21T13:05:49Z</time>
      </trkpt>
      <trkpt lat="44.52498" lon="6.70629">
        <ele>1941.52</ele>
        <time>2011-03-21T13:05:52Z</time>
      </trkpt>
      <trkpt lat="44.52506" lon="6.7062">
        <ele>1942.48</ele>
        <time>2011-03-21T13:06:06Z</time>
      </trkpt>
      <trkpt lat="44.52509" lon="6.70617">
        <ele>1942.96</ele>
        <time>2011-03-21T13:06:11Z</time>
      </trkpt>
      <trkpt lat="44.52517" lon="6.70613">
        <ele>1944.4</ele>
        <time>2011-03-21T13:06:20Z</time>
      </trkpt>
      <trkpt lat="44.5253" lon="6.70611">
        <ele>1945.36</ele>
        <time>2011-03-21T13:06:34Z</time>
      </trkpt>
      <trkpt lat="44.52532" lon="6.70612">
        <ele>1945.85</ele>
        <time>2011-03-21T13:06:35Z</time>
      </trkpt>
      <trkpt lat="44.52544" lon="6.70616">
        <ele>1947.29</ele>
        <time>2011-03-21T13:06:49Z</time>
      </trkpt>
      <trkpt lat="44.52548" lon="6.70616">
        <ele>1947.29</ele>
        <time>2011-03-21T13:06:55Z</time>
      </trkpt>
      <trkpt lat="44.52556" lon="6.70619">
        <ele>1949.21</ele>
        <time>2011-03-21T13:07:04Z</time>
      </trkpt>
      <trkpt lat="44.52557" lon="6.7062">
        <ele>1949.21</ele>
        <time>2011-03-21T13:07:06Z</time>
      </trkpt>
      <trkpt lat="44.52563" lon="6.70622">
        <ele>1949.21</ele>
        <time>2011-03-21T13:07:11Z</time>
      </trkpt>
      <trkpt lat="44.52574" lon="6.70618">
        <ele>1950.65</ele>
        <time>2011-03-21T13:07:24Z</time>
      </trkpt>
      <trkpt lat="44.52576" lon="6.70617">
        <ele>1950.65</ele>
        <time>2011-03-21T13:07:26Z</time>
      </trkpt>
      <trkpt lat="44.52578" lon="6.70616">
        <ele>1951.13</ele>
        <time>2011-03-21T13:07:28Z</time>
      </trkpt>
      <trkpt lat="44.52591" lon="6.70608">
        <ele>1952.57</ele>
        <time>2011-03-21T13:07:42Z</time>
      </trkpt>
      <trkpt lat="44.52602" lon="6.706">
        <ele>1953.06</ele>
        <time>2011-03-21T13:07:55Z</time>
      </trkpt>
      <trkpt lat="44.52607" lon="6.70598">
        <ele>1954.02</ele>
        <time>2011-03-21T13:08:01Z</time>
      </trkpt>
      <trkpt lat="44.52622" lon="6.70594">
        <ele>1955.94</ele>
        <time>2011-03-21T13:08:16Z</time>
      </trkpt>
      <trkpt lat="44.52634" lon="6.70591">
        <ele>1957.86</ele>
        <time>2011-03-21T13:08:32Z</time>
      </trkpt>
      <trkpt lat="44.52648" lon="6.70582">
        <ele>1959.3</ele>
        <time>2011-03-21T13:08:47Z</time>
      </trkpt>
      <trkpt lat="44.52651" lon="6.70581">
        <ele>1959.78</ele>
        <time>2011-03-21T13:08:52Z</time>
      </trkpt>
      <trkpt lat="44.52666" lon="6.70572">
        <ele>1961.23</ele>
        <time>2011-03-21T13:09:06Z</time>
      </trkpt>
      <trkpt lat="44.52676" lon="6.70564">
        <ele>1962.19</ele>
        <time>2011-03-21T13:09:19Z</time>
      </trkpt>
      <trkpt lat="44.52685" lon="6.70554">
        <ele>1963.63</ele>
        <time>2011-03-21T13:09:32Z</time>
      </trkpt>
      <trkpt lat="44.52692" lon="6.70542">
        <ele>1964.11</ele>
        <time>2011-03-21T13:09:45Z</time>
      </trkpt>
      <trkpt lat="44.52697" lon="6.70529">
        <ele>1965.55</ele>
        <time>2011-03-21T13:09:58Z</time>
      </trkpt>
      <trkpt lat="44.52699" lon="6.70523">
        <ele>1965.55</ele>
        <time>2011-03-21T13:10:02Z</time>
      </trkpt>
      <trkpt lat="44.52701" lon="6.7052">
        <ele>1966.51</ele>
        <time>2011-03-21T13:10:05Z</time>
      </trkpt>
      <trkpt lat="44.52704" lon="6.70512">
        <ele>1966.99</ele>
        <time>2011-03-21T13:10:12Z</time>
      </trkpt>
      <trkpt lat="44.52705" lon="6.70508">
        <ele>1967.48</ele>
        <time>2011-03-21T13:10:15Z</time>
      </trkpt>
      <trkpt lat="44.52708" lon="6.70498">
        <ele>1968.44</ele>
        <time>2011-03-21T13:10:23Z</time>
      </trkpt>
      <trkpt lat="44.52711" lon="6.70493">
        <ele>1968.44</ele>
        <time>2011-03-21T13:10:28Z</time>
      </trkpt>
      <trkpt lat="44.52713" lon="6.70485">
        <ele>1968.92</ele>
        <time>2011-03-21T13:10:36Z</time>
      </trkpt>
      <trkpt lat="44.52714" lon="6.70482">
        <ele>1969.4</ele>
        <time>2011-03-21T13:10:38Z</time>
      </trkpt>
      <trkpt lat="44.52715" lon="6.70476">
        <ele>1969.88</ele>
        <time>2011-03-21T13:10:44Z</time>
      </trkpt>
      <trkpt lat="44.52721" lon="6.70463">
        <ele>1971.8</ele>
        <time>2011-03-21T13:10:58Z</time>
      </trkpt>
      <trkpt lat="44.52724" lon="6.70452">
        <ele>1972.28</ele>
        <time>2011-03-21T13:11:09Z</time>
      </trkpt>
      <trkpt lat="44.5273" lon="6.70448">
        <ele>1973.24</ele>
        <time>2011-03-21T13:11:17Z</time>
      </trkpt>
      <trkpt lat="44.52736" lon="6.70445">
        <ele>1974.2</ele>
        <time>2011-03-21T13:11:24Z</time>
      </trkpt>
      <trkpt lat="44.52753" lon="6.7044">
        <ele>1975.17</ele>
        <time>2011-03-21T13:11:40Z</time>
      </trkpt>
      <trkpt lat="44.52754" lon="6.70439">
        <ele>1975.65</ele>
        <time>2011-03-21T13:11:41Z</time>
      </trkpt>
      <trkpt lat="44.5276" lon="6.70442">
        <ele>1976.13</ele>
        <time>2011-03-21T13:11:48Z</time>
      </trkpt>
      <trkpt lat="44.52771" lon="6.70445">
        <ele>1978.05</ele>
        <time>2011-03-21T13:12:03Z</time>
      </trkpt>
      <trkpt lat="44.52772" lon="6.70445">
        <ele>1978.05</ele>
        <time>2011-03-21T13:12:04Z</time>
      </trkpt>
      <trkpt lat="44.52776" lon="6.70444">
        <ele>1978.53</ele>
        <time>2011-03-21T13:12:08Z</time>
      </trkpt>
      <trkpt lat="44.52785" lon="6.70441">
        <ele>1979.49</ele>
        <time>2011-03-21T13:12:21Z</time>
      </trkpt>
      <trkpt lat="44.52793" lon="6.70438">
        <ele>1979.97</ele>
        <time>2011-03-21T13:12:30Z</time>
      </trkpt>
      <trkpt lat="44.52799" lon="6.70435">
        <ele>1980.93</ele>
        <time>2011-03-21T13:12:36Z</time>
      </trkpt>
      <trkpt lat="44.52801" lon="6.70432">
        <ele>1980.93</ele>
        <time>2011-03-21T13:12:40Z</time>
      </trkpt>
      <trkpt lat="44.52815" lon="6.70422">
        <ele>1983.34</ele>
        <time>2011-03-21T13:12:55Z</time>
      </trkpt>
      <trkpt lat="44.52825" lon="6.70413">
        <ele>1983.82</ele>
        <time>2011-03-21T13:13:08Z</time>
      </trkpt>
      <trkpt lat="44.52833" lon="6.70405">
        <ele>1985.74</ele>
        <time>2011-03-21T13:13:19Z</time>
      </trkpt>
      <trkpt lat="44.52838" lon="6.70401">
        <ele>1986.22</ele>
        <time>2011-03-21T13:13:27Z</time>
      </trkpt>
      <trkpt lat="44.52845" lon="6.70397">
        <ele>1986.7</ele>
        <time>2011-03-21T13:13:36Z</time>
      </trkpt>
      <trkpt lat="44.52847" lon="6.70397">
        <ele>1986.7</ele>
        <time>2011-03-21T13:13:38Z</time>
      </trkpt>
      <trkpt lat="44.52859" lon="6.70385">
        <ele>1988.62</ele>
        <time>2011-03-21T13:13:53Z</time>
      </trkpt>
      <trkpt lat="44.52866" lon="6.70378">
        <ele>1989.59</ele>
        <time>2011-03-21T13:14:02Z</time>
      </trkpt>
      <trkpt lat="44.52876" lon="6.70363">
        <ele>1991.51</ele>
        <time>2011-03-21T13:14:17Z</time>
      </trkpt>
      <trkpt lat="44.5288" lon="6.70359">
        <ele>1991.99</ele>
        <time>2011-03-21T13:14:23Z</time>
      </trkpt>
      <trkpt lat="44.52884" lon="6.70356">
        <ele>1992.95</ele>
        <time>2011-03-21T13:14:27Z</time>
      </trkpt>
      <trkpt lat="44.52891" lon="6.70347">
        <ele>1993.91</ele>
        <time>2011-03-21T13:14:39Z</time>
      </trkpt>
      <trkpt lat="44.52903" lon="6.70338">
        <ele>1995.35</ele>
        <time>2011-03-21T13:14:53Z</time>
      </trkpt>
      <trkpt lat="44.52906" lon="6.70337">
        <ele>1995.83</ele>
        <time>2011-03-21T13:14:56Z</time>
      </trkpt>
      <trkpt lat="44.52917" lon="6.70328">
        <ele>1997.28</ele>
        <time>2011-03-21T13:15:11Z</time>
      </trkpt>
      <trkpt lat="44.52921" lon="6.70325">
        <ele>1997.28</ele>
        <time>2011-03-21T13:15:15Z</time>
      </trkpt>
      <trkpt lat="44.52931" lon="6.70311">
        <ele>1999.2</ele>
        <time>2011-03-21T13:15:31Z</time>
      </trkpt>
      <trkpt lat="44.52936" lon="6.70305">
        <ele>2000.16</ele>
        <time>2011-03-21T13:15:39Z</time>
      </trkpt>
      <trkpt lat="44.52946" lon="6.70291">
        <ele>2001.6</ele>
        <time>2011-03-21T13:15:54Z</time>
      </trkpt>
      <trkpt lat="44.52956" lon="6.70273">
        <ele>2002.56</ele>
        <time>2011-03-21T13:16:10Z</time>
      </trkpt>
      <trkpt lat="44.52967" lon="6.70264">
        <ele>2004.49</ele>
        <time>2011-03-21T13:16:23Z</time>
      </trkpt>
      <trkpt lat="44.52975" lon="6.70251">
        <ele>2006.41</ele>
        <time>2011-03-21T13:16:37Z</time>
      </trkpt>
      <trkpt lat="44.52982" lon="6.70243">
        <ele>2006.89</ele>
        <time>2011-03-21T13:16:47Z</time>
      </trkpt>
      <trkpt lat="44.52994" lon="6.70232">
        <ele>2008.33</ele>
        <time>2011-03-21T13:17:01Z</time>
      </trkpt>
      <trkpt lat="44.52997" lon="6.70229">
        <ele>2009.29</ele>
        <time>2011-03-21T13:17:05Z</time>
      </trkpt>
      <trkpt lat="44.53002" lon="6.70227">
        <ele>2009.77</ele>
        <time>2011-03-21T13:17:11Z</time>
      </trkpt>
      <trkpt lat="44.53013" lon="6.70223">
        <ele>2010.73</ele>
        <time>2011-03-21T13:17:24Z</time>
      </trkpt>
      <trkpt lat="44.5302" lon="6.70224">
        <ele>2010.73</ele>
        <time>2011-03-21T13:17:32Z</time>
      </trkpt>
      <trkpt lat="44.53023" lon="6.70224">
        <ele>2010.73</ele>
        <time>2011-03-21T13:17:34Z</time>
      </trkpt>
      <trkpt lat="44.53034" lon="6.70221">
        <ele>2012.66</ele>
        <time>2011-03-21T13:17:45Z</time>
      </trkpt>
      <trkpt lat="44.53036" lon="6.7022">
        <ele>2013.62</ele>
        <time>2011-03-21T13:17:48Z</time>
      </trkpt>
      <trkpt lat="44.53048" lon="6.70212">
        <ele>2014.58</ele>
        <time>2011-03-21T13:18:02Z</time>
      </trkpt>
      <trkpt lat="44.53049" lon="6.70211">
        <ele>2014.58</ele>
        <time>2011-03-21T13:18:04Z</time>
      </trkpt>
      <trkpt lat="44.53057" lon="6.70205">
        <ele>2014.58</ele>
        <time>2011-03-21T13:18:12Z</time>
      </trkpt>
      <trkpt lat="44.53061" lon="6.70198">
        <ele>2015.54</ele>
        <time>2011-03-21T13:18:18Z</time>
      </trkpt>
      <trkpt lat="44.53064" lon="6.70195">
        <ele>2016.02</ele>
        <time>2011-03-21T13:18:23Z</time>
      </trkpt>
      <trkpt lat="44.53067" lon="6.70195">
        <ele>2016.5</ele>
        <time>2011-03-21T13:18:25Z</time>
      </trkpt>
      <trkpt lat="44.53077" lon="6.70194">
        <ele>2016.5</ele>
        <time>2011-03-21T13:18:37Z</time>
      </trkpt>
      <trkpt lat="44.53088" lon="6.70204">
        <ele>2016.98</ele>
        <time>2011-03-21T13:18:52Z</time>
      </trkpt>
      <trkpt lat="44.53098" lon="6.70206">
        <ele>2018.43</ele>
        <time>2011-03-21T13:19:06Z</time>
      </trkpt>
      <trkpt lat="44.531" lon="6.70205">
        <ele>2018.43</ele>
        <time>2011-03-21T13:19:08Z</time>
      </trkpt>
      <trkpt lat="44.53113" lon="6.70198">
        <ele>2020.35</ele>
        <time>2011-03-21T13:19:23Z</time>
      </trkpt>
      <trkpt lat="44.53121" lon="6.70193">
        <ele>2021.79</ele>
        <time>2011-03-21T13:19:36Z</time>
      </trkpt>
      <trkpt lat="44.53127" lon="6.70188">
        <ele>2022.27</ele>
        <time>2011-03-21T13:19:45Z</time>
      </trkpt>
      <trkpt lat="44.53135" lon="6.70179">
        <ele>2023.23</ele>
        <time>2011-03-21T13:19:56Z</time>
      </trkpt>
      <trkpt lat="44.53138" lon="6.70174">
        <ele>2023.71</ele>
        <time>2011-03-21T13:20:02Z</time>
      </trkpt>
      <trkpt lat="44.53142" lon="6.70166">
        <ele>2024.67</ele>
        <time>2011-03-21T13:20:12Z</time>
      </trkpt>
      <trkpt lat="44.53146" lon="6.70162">
        <ele>2025.15</ele>
        <time>2011-03-21T13:20:18Z</time>
      </trkpt>
      <trkpt lat="44.53149" lon="6.70154">
        <ele>2026.12</ele>
        <time>2011-03-21T13:20:25Z</time>
      </trkpt>
      <trkpt lat="44.53155" lon="6.70144">
        <ele>2026.6</ele>
        <time>2011-03-21T13:20:39Z</time>
      </trkpt>
      <trkpt lat="44.53157" lon="6.70144">
        <ele>2027.08</ele>
        <time>2011-03-21T13:20:43Z</time>
      </trkpt>
      <trkpt lat="44.53165" lon="6.70138">
        <ele>2027.56</ele>
        <time>2011-03-21T13:20:56Z</time>
      </trkpt>
      <trkpt lat="44.53173" lon="6.70146">
        <ele>2028.52</ele>
        <time>2011-03-21T13:21:07Z</time>
      </trkpt>
      <trkpt lat="44.53173" lon="6.70146">
        <ele>2028.04</ele>
        <time>2011-03-21T13:21:22Z</time>
      </trkpt>
      <trkpt lat="44.53176" lon="6.70149">
        <ele>2028.52</ele>
        <time>2011-03-21T13:21:37Z</time>
      </trkpt>
    </trkseg>
  </trk>
</gpx>